[[{"header":{"parameterUnit":"m.s-1","parameterCategory":1,"la1":31.0,"la2":29.5877,"lo1":-88.7671,"lo2":-86.6584,"dy":0.0162,"dx":0.0185,"nx":115,"ny":88,"refTime":"2024-04-21T00:00:00:Z","depth":0,"parameterNumber":2,"parameterNumberName":"U-component_of_WINDS"},"data":[0.0,0.0,0.0,0.0,0.0,0.0,0.0,0.0,0.0,0.0,0.0,0.0,0.0,0.0,0.0,0.0,0.0,0.0,0.0,0.0,0.0,0.0,0.0,0.0,0.0,0.0,0.0,0.0,0.0,0.0,0.0,0.0,0.0,0.0,0.0,0.0,0.0,0.0,0.0,0.0,0.0,0.0,0.0,0.0,0.0,0.0,0.0,0.0,0.0,0.0,0.0,0.0,0.0,0.0,0.0,0.0,0.0,0.0,0.0,0.0,0.0,0.0,0.0,0.0,0.0,0.0,0.0,0.0,0.0,0.0,0.0,0.0,0.0,0.0,0.0,0.0,0.0,0.0,0.0,0.0,0.0,0.0,0.0,0.0,0.0,0.0,0.0,0.0,0.0,0.0,0.0,0.0,0.0,0.0,0.0,0.0,0.0,0.0,0.0,0.0,0.0,0.0,0.0,0.0,0.0,0.0,0.0,0.0,0.0,0.0,0.0,0.0,0.0,0.0,0.0,0.0,0.0,0.0,0.0,0.0,0.0,0.0,0.0,0.0,0.0,0.0,0.0,0.0,0.0,0.0,0.0,0.0,0.0,0.0,0.0,0.0,0.0,0.0,0.0,0.0,0.0,0.0,0.0,0.0,0.0,0.0,0.0,0.0,0.0,0.0,0.0,0.0,0.0,0.0,0.0,0.0,0.0,0.0,0.0,0.0,0.0,0.0,0.0,0.0,0.0,0.0,0.0,0.0,0.0,0.0,0.0,0.0,0.0,0.0,0.0,0.0,0.0,0.0,0.0,0.0,0.0,0.0,0.0,0.0,0.0,0.0,0.0,0.0,0.0,0.0,0.0,0.0,0.0,0.0,0.0,0.0,0.0,0.0,0.0,0.0,0.0,0.0,0.0,0.0,0.0,0.0,0.0,0.0,0.0,0.0,0.0,0.0,0.0,0.0,0.0,0.0,0.0,0.0,0.0,0.0,0.0,0.0,0.0,0.0,0.0,0.0,0.0,0.0,0.0,0.0,0.0,0.0,0.0,0.0,0.0,0.0,0.0,0.0,0.0,0.0,0.0,0.0,0.0,0.0,0.0,0.0,0.0,0.0,0.0,0.0,0.0,0.0,0.0,0.0,0.0,0.0,0.0,0.0,0.0,0.0,0.0,0.0,0.0,0.0,0.0,0.0,0.0,0.0,0.0,0.0,0.0,0.0,0.0,0.0,0.0,0.0,0.0,0.0,0.0,0.0,0.0,0.0,0.0,0.0,0.0,0.0,0.0,0.0,0.0,0.0,0.0,0.0,0.0,0.0,0.0,0.0,0.0,0.0,0.0,0.0,0.0,0.0,0.0,0.0,0.0,0.0,0.0,0.0,0.0,0.0,0.0,0.0,0.0,0.0,0.0,0.0,0.0,0.0,0.0,0.0,0.0,0.0,0.0,0.0,0.0,0.0,0.0,0.0,0.0,0.0,0.0,0.0,0.0,0.0,0.0,0.0,0.0,0.0,0.0,0.0,0.0,0.0,0.0,0.0,0.0,0.0,0.0,0.0,0.0,0.0,0.0,0.0,0.0,0.0,0.0,0.0,0.0,0.0,0.0,0.0,0.0,0.0,0.0,0.0,0.0,0.0,0.0,0.0,0.0,0.0,0.0,0.0,0.0,0.0,0.0,0.0,0.0,0.0,0.0,0.0,0.0,0.0,0.0,0.0,0.0,0.0,0.0,0.0,0.0,0.0,0.0,0.0,0.0,0.0,0.0,0.0,0.0,0.0,0.0,0.0,0.0,0.0,0.0,0.0,0.0,0.0,0.0,0.0,0.0,0.0,0.0,0.0,0.0,0.0,0.0,0.0,0.0,0.0,0.0,0.0,0.0,0.0,0.0,0.0,0.0,0.0,0.0,0.0,0.0,0.0,0.0,0.0,0.0,0.0,0.0,0.0,0.0,0.0,0.0,0.0,0.0,0.0,0.0,0.0,0.0,0.0,0.0,0.0,0.0,0.0,0.0,0.0,0.0,0.0,0.0,0.0,0.0,0.0,0.0,0.0,0.0,0.0,0.0,0.0,0.0,0.0,0.0,0.0,0.0,0.0,0.0,0.0,0.0,0.0,0.0,0.0,0.0,0.0,0.0,0.0,0.0,0.0,0.0,0.0,0.0,0.0,0.0,0.0,0.0,0.0,0.0,0.0,0.0,0.0,0.0,0.0,0.0,0.0,0.0,0.0,0.0,0.0,0.0,0.0,0.0,0.0,0.0,0.0,0.0,0.0,0.0,0.0,0.0,0.0,0.0,0.0,0.0,0.0,0.0,0.0,0.0,0.0,0.0,0.0,0.0,0.0,0.0,0.0,0.0,0.0,0.0,0.0,0.0,0.0,0.0,0.0,0.0,0.0,0.0,0.0,0.0,0.0,0.0,0.0,0.0,0.0,0.0,0.0,0.0,0.0,0.0,0.0,0.0,0.0,0.0,0.0,0.0,0.0,0.0,0.0,0.0,0.0,0.0,0.0,0.0,0.0,0.0,0.0,0.0,0.0,0.0,0.0,0.0,0.0,0.0,0.0,0.0,0.0,0.0,0.0,0.0,0.0,0.0,0.0,0.0,0.0,0.0,0.0,0.0,0.0,0.0,0.0,0.0,0.0,0.0,0.0,0.0,0.0,0.0,0.0,0.0,0.0,0.0,0.0,0.0,0.0,0.0,0.0,0.0,0.0,0.0,0.0,0.0,0.0,0.0,0.0,0.0,0.0,0.0,0.0,0.0,0.0,0.0,0.0,0.0,0.0,0.0,0.0,0.0,0.0,0.0,0.0,0.0,0.0,0.0,0.0,0.0,0.0,0.0,0.0,0.0,0.0,0.0,0.0,0.0,0.0,0.0,0.0,0.0,0.0,0.0,0.0,0.0,0.0,0.0,0.0,0.0,0.0,0.0,0.0,0.0,0.0,0.0,0.0,0.0,0.0,0.0,0.0,0.0,0.0,0.0,0.0,0.0,0.0,0.0,0.0,0.0,0.0,0.0,0.0,0.0,0.0,0.0,0.0,0.0,0.0,0.0,0.0,0.0,0.0,0.0,0.0,0.0,0.0,0.0,0.0,0.0,0.0,0.0,0.0,0.0,0.0,0.0,0.0,0.0,0.0,0.0,0.0,0.0,0.0,0.0,0.0,0.0,0.0,0.0,0.0,0.0,0.0,0.0,0.0,0.0,0.0,0.0,0.0,0.0,0.0,0.0,0.0,0.0,0.0,0.0,0.0,0.0,0.0,0.0,0.0,0.0,0.0,0.0,0.0,0.0,0.0,0.0,0.0,0.0,0.0,0.0,0.0,0.0,0.0,0.0,0.0,0.0,0.0,0.0,0.0,0.0,0.0,0.0,0.0,0.0,0.0,0.0,0.0,0.0,0.0,0.0,0.0,0.0,0.0,0.0,0.0,0.0,0.0,0.0,0.0,0.0,0.0,0.0,0.0,0.0,0.0,0.0,0.0,0.0,0.0,0.0,0.0,0.0,0.0,0.0,0.0,0.0,0.0,0.0,0.0,0.0,0.0,0.0,0.0,0.0,0.0,0.0,0.0,0.0,0.0,0.0,0.0,0.0,0.0,0.0,0.0,0.0,0.0,0.0,0.0,0.0,0.0,0.0,0.0,0.0,0.0,0.0,0.0,0.0,0.0,0.0,0.0,0.0,0.0,0.0,0.0,0.0,0.0,0.0,0.0,0.0,0.0,0.0,0.0,0.0,0.0,0.0,0.0,0.0,0.0,0.0,0.0,0.0,0.0,0.0,0.0,0.0,0.0,0.0,0.0,0.0,0.0,0.0,0.0,0.0,0.0,0.0,0.0,0.0,0.0,0.0,0.0,0.0,0.0,0.0,0.0,0.0,0.0,0.0,0.0,0.0,0.0,0.0,0.0,0.0,0.0,0.0,0.0,0.0,0.0,0.0,0.0,0.0,0.0,0.0,0.0,0.0,0.0,0.0,0.0,0.0,0.0,0.0,0.0,0.0,0.0,0.0,0.0,0.0,0.0,0.0,0.0,0.0,0.0,0.0,0.0,0.0,0.0,0.0,0.0,0.0,0.0,0.0,0.0,0.0,0.0,0.0,0.0,0.0,0.0,0.0,0.0,0.0,0.0,0.0,0.0,0.0,0.0,0.0,0.0,0.0,0.0,0.0,0.0,0.0,0.0,0.0,0.0,0.0,0.0,0.0,0.0,0.0,0.0,0.0,0.0,0.0,0.0,0.0,0.0,0.0,0.0,0.0,0.0,0.0,0.0,0.0,0.0,0.0,0.0,-1.3513,0.0,0.0,0.0,0.0,0.0,0.0,0.0,0.0,0.0,0.0,0.0,0.0,0.0,0.0,0.0,0.0,0.0,0.0,0.0,0.0,0.0,0.0,0.0,0.0,0.0,0.0,0.0,0.0,0.0,0.0,0.0,0.0,0.0,0.0,0.0,0.0,0.0,0.0,0.0,0.0,0.0,0.0,0.0,0.0,0.0,0.0,0.0,0.0,0.0,0.0,0.0,0.0,0.0,0.0,0.0,0.0,0.0,0.0,0.0,0.0,0.0,0.0,0.0,0.0,0.0,0.0,0.0,0.0,0.0,0.0,0.0,0.0,0.0,0.0,0.0,0.0,0.0,0.0,0.0,0.0,0.0,0.0,0.0,0.0,0.0,0.0,0.0,0.0,0.0,0.0,0.0,0.0,0.0,0.0,0.0,0.0,0.0,0.0,0.0,0.0,0.0,0.0,0.0,0.0,0.0,0.0,0.0,0.0,0.0,0.0,-1.4908,-1.5117,-1.4703,-1.4394,-1.4209,0.0,0.0,0.0,0.0,0.0,0.0,0.0,0.0,0.0,0.0,0.0,0.0,0.0,0.0,0.0,0.0,0.0,0.0,0.0,0.0,0.0,0.0,0.0,0.0,0.0,0.0,0.0,0.0,0.0,0.0,0.0,0.0,0.0,0.0,0.0,0.0,0.0,0.0,0.0,0.0,0.0,0.0,0.0,0.0,0.0,0.0,0.0,0.0,0.0,0.0,0.0,0.0,0.0,0.0,0.0,0.0,0.0,0.0,0.0,0.0,0.0,0.0,0.0,0.0,0.0,0.0,0.0,0.0,0.0,0.0,0.0,0.0,0.0,0.0,0.0,0.0,0.0,0.0,0.0,0.0,0.0,0.0,0.0,0.0,0.0,0.0,0.0,0.0,0.0,0.0,0.0,0.0,0.0,0.0,0.0,0.0,0.0,0.0,0.0,0.0,0.0,0.0,0.0,0.0,0.0,0.0,0.0,0.0,0.0,0.0,0.0,0.0,-1.5098,-1.4834,-1.4643,0.0,0.0,0.0,0.0,0.0,0.0,0.0,0.0,0.0,0.0,0.0,0.0,0.0,0.0,0.0,0.0,0.0,0.0,0.0,0.0,0.0,0.0,0.0,0.0,0.0,0.0,0.0,0.0,0.0,0.0,0.0,0.0,0.0,0.0,0.0,0.0,0.0,0.0,0.0,0.0,0.0,0.0,0.0,0.0,0.0,0.0,0.0,0.0,0.0,0.0,0.0,0.0,0.0,0.0,0.0,0.0,0.0,0.0,0.0,0.0,0.0,0.0,0.0,0.0,0.0,0.0,0.0,0.0,0.0,0.0,0.0,0.0,0.0,0.0,0.0,0.0,0.0,0.0,0.0,0.0,0.0,0.0,0.0,0.0,0.0,0.0,0.0,0.0,0.0,0.0,0.0,0.0,0.0,0.0,0.0,0.0,0.0,0.0,0.0,0.0,0.0,0.0,0.0,0.0,0.0,0.0,0.0,0.0,0.0,0.0,-1.542,-1.542,-1.5357,0.0,-1.4211,0.0,0.0,0.0,0.0,0.0,0.0,0.0,0.0,0.0,0.0,0.0,0.0,0.0,0.0,0.0,0.0,0.0,0.0,0.0,0.0,0.0,0.0,0.0,0.0,0.0,0.0,0.0,0.0,0.0,0.0,0.0,0.0,0.0,0.0,0.0,0.0,0.0,0.0,0.0,0.0,0.0,0.0,0.0,0.0,0.0,0.0,0.0,0.0,0.0,0.0,0.0,0.0,0.0,0.0,0.0,0.0,0.0,0.0,0.0,0.0,0.0,0.0,0.0,0.0,0.0,0.0,0.0,0.0,0.0,0.0,0.0,0.0,0.0,0.0,0.0,0.0,0.0,0.0,0.0,0.0,0.0,0.0,0.0,0.0,0.0,0.0,0.0,0.0,0.0,0.0,0.0,0.0,0.0,0.0,0.0,0.0,0.0,0.0,0.0,0.0,0.0,0.0,0.0,0.0,0.0,0.0,0.0,0.0,0.0,0.0,-1.542,-1.542,-1.542,-1.4996,0.0,0.0,0.0,0.0,0.0,0.0,0.0,0.0,0.0,0.0,0.0,0.0,0.0,0.0,0.0,0.0,0.0,0.0,0.0,0.0,0.0,0.0,0.0,0.0,0.0,0.0,0.0,0.0,0.0,0.0,0.0,0.0,0.0,0.0,0.0,0.0,0.0,0.0,0.0,0.0,0.0,0.0,0.0,0.0,0.0,0.0,0.0,0.0,0.0,0.0,0.0,0.0,0.0,0.0,0.0,0.0,0.0,0.0,0.0,0.0,0.0,0.0,0.0,0.0,0.0,0.0,0.0,0.0,0.0,0.0,0.0,0.0,0.0,0.0,0.0,0.0,0.0,0.0,0.0,0.0,0.0,0.0,0.0,0.0,0.0,0.0,0.0,0.0,0.0,0.0,0.0,0.0,0.0,0.0,0.0,0.0,0.0,0.0,0.0,0.0,0.0,0.0,0.0,0.0,0.0,0.0,0.0,0.0,0.0,0.0,-1.5376,-1.5332,-1.5298,-1.5318,-1.4934,-1.4066,0.0,0.0,0.0,0.0,0.0,0.0,0.0,0.0,0.0,0.0,0.0,0.0,0.0,0.0,0.0,0.0,0.0,0.0,0.0,0.0,0.0,0.0,0.0,0.0,0.0,0.0,0.0,0.0,0.0,0.0,0.0,0.0,0.0,0.0,0.0,0.0,0.0,0.0,0.0,0.0,0.0,0.0,0.0,0.0,0.0,0.0,0.0,0.0,0.0,0.0,0.0,0.0,0.0,0.0,0.0,0.0,0.0,0.0,0.0,0.0,0.0,0.0,0.0,0.0,0.0,0.0,0.0,0.0,0.0,0.0,0.0,0.0,0.0,0.0,0.0,0.0,0.0,0.0,0.0,0.0,0.0,0.0,0.0,0.0,0.0,0.0,0.0,0.0,0.0,0.0,0.0,0.0,0.0,0.0,0.0,0.0,0.0,0.0,0.0,0.0,0.0,0.0,0.0,0.0,0.0,0.0,0.0,0.0,-1.5396,-1.5279,-1.5142,-1.5039,-1.5132,-1.4787,0.0,0.0,0.0,0.0,0.0,0.0,0.0,0.0,0.0,0.0,0.0,0.0,0.0,0.0,0.0,0.0,0.0,0.0,0.0,0.0,0.0,0.0,0.0,0.0,0.0,0.0,0.0,0.0,0.0,0.0,0.0,0.0,0.0,0.0,0.0,0.0,0.0,0.0,0.0,0.0,0.0,0.0,0.0,0.0,0.0,0.0,0.0,0.0,0.0,0.0,0.0,0.0,0.0,0.0,0.0,0.0,0.0,0.0,0.0,0.0,0.0,0.0,0.0,0.0,0.0,0.0,0.0,0.0,0.0,0.0,0.0,0.0,0.0,0.0,0.0,0.0,0.0,0.0,0.0,0.0,0.0,0.0,0.0,0.0,0.0,0.0,0.0,0.0,0.0,0.0,0.0,0.0,0.0,0.0,0.0,0.0,0.0,0.0,0.0,0.0,0.0,0.0,0.0,0.0,0.0,0.0,0.0,0.0,0.0,-1.4942,-1.4809,-1.4769,-1.4813,-1.4858,-1.452,0.0,0.0,0.0,0.0,0.0,0.0,0.0,0.0,0.0,0.0,0.0,0.0,0.0,0.0,0.0,0.0,0.0,0.0,0.0,0.0,0.0,0.0,0.0,0.0,0.0,0.0,0.0,0.0,0.0,0.0,0.0,0.0,0.0,0.0,0.0,0.0,0.0,0.0,0.0,0.0,0.0,0.0,0.0,0.0,0.0,0.0,0.0,0.0,0.0,0.0,0.0,0.0,0.0,0.0,0.0,0.0,0.0,0.0,0.0,0.0,0.0,0.0,0.0,0.0,0.0,0.0,0.0,0.0,0.0,0.0,0.0,0.0,0.0,0.0,0.0,0.0,0.0,0.0,0.0,0.0,0.0,0.0,0.0,0.0,0.0,0.0,0.0,0.0,0.0,0.0,0.0,0.0,0.0,0.0,0.0,0.0,0.0,0.0,0.0,0.0,0.0,0.0,0.0,0.0,0.0,0.0,0.0,0.0,0.0,-1.4493,0.0,-1.4306,-1.4404,-1.444,-1.4235,0.0,0.0,0.0,0.0,0.0,0.0,0.0,0.0,0.0,0.0,0.0,0.0,0.0,0.0,0.0,0.0,0.0,0.0,0.0,0.0,0.0,0.0,0.0,0.0,0.0,0.0,0.0,0.0,0.0,0.0,0.0,0.0,0.0,0.0,0.0,0.0,0.0,0.0,0.0,0.0,0.0,0.0,0.0,0.0,0.0,0.0,0.0,0.0,0.0,0.0,0.0,0.0,0.0,0.0,0.0,0.0,0.0,0.0,0.0,0.0,0.0,0.0,0.0,0.0,0.0,0.0,0.0,0.0,0.0,0.0,0.0,0.0,0.0,0.0,0.0,0.0,0.0,0.0,0.0,0.0,0.0,0.0,0.0,0.0,0.0,0.0,0.0,0.0,0.0,0.0,0.0,0.0,0.0,0.0,0.0,0.0,0.0,0.0,0.0,0.0,0.0,0.0,0.0,0.0,0.0,0.0,0.0,0.0,-1.4443,-1.4019,-1.3853,-1.3804,-1.3817,-1.3955,-1.3951,0.0,0.0,0.0,0.0,0.0,0.0,0.0,0.0,0.0,0.0,0.0,0.0,0.0,0.0,0.0,0.0,0.0,0.0,0.0,0.0,0.0,0.0,0.0,0.0,0.0,0.0,0.0,0.0,0.0,0.0,0.0,0.0,0.0,0.0,0.0,0.0,0.0,0.0,0.0,0.0,0.0,0.0,0.0,0.0,0.0,0.0,0.0,0.0,0.0,0.0,0.0,0.0,0.0,0.0,0.0,0.0,0.0,0.0,0.0,0.0,0.0,0.0,0.0,0.0,0.0,0.0,0.0,0.0,0.0,0.0,0.0,0.0,0.0,0.0,0.0,0.0,0.0,0.0,0.0,0.0,0.0,0.0,0.0,0.0,0.0,0.0,0.0,0.0,0.0,0.0,0.0,0.0,0.0,0.0,0.0,0.0,0.0,0.0,0.0,0.0,0.0,0.0,0.0,0.0,0.0,0.0,0.0,0.0,0.0,-1.3647,-1.3374,-1.3465,-1.3896,-1.3884,-1.3863,0.0,0.0,0.0,0.0,0.0,0.0,0.0,0.0,0.0,0.0,0.0,0.0,0.0,0.0,0.0,0.0,0.0,0.0,0.0,0.0,0.0,0.0,0.0,0.0,0.0,0.0,0.0,0.0,0.0,0.0,0.0,0.0,0.0,0.0,0.0,0.0,0.0,0.0,0.0,0.0,0.0,0.0,0.0,0.0,0.0,0.0,0.0,0.0,0.0,0.0,0.0,0.0,0.0,0.0,0.0,0.0,0.0,0.0,0.0,0.0,0.0,0.0,0.0,0.0,0.0,0.0,0.0,0.0,0.0,0.0,0.0,0.0,0.0,0.0,0.0,0.0,0.0,0.0,0.0,0.0,0.0,0.0,0.0,0.0,0.0,0.0,0.0,0.0,0.0,0.0,0.0,0.0,0.0,0.0,0.0,0.0,0.0,0.0,0.0,0.0,0.0,0.0,0.0,0.0,0.0,0.0,0.0,0.0,0.0,-1.3307,-1.2975,-1.3058,-1.361,-1.3623,-1.3682,-1.3856,0.0,0.0,0.0,0.0,0.0,0.0,0.0,0.0,0.0,0.0,0.0,0.0,0.0,0.0,0.0,0.0,0.0,0.0,0.0,0.0,0.0,0.0,0.0,0.0,0.0,0.0,0.0,0.0,0.0,0.0,0.0,0.0,0.0,0.0,0.0,0.0,0.0,0.0,0.0,0.0,0.0,0.0,0.0,0.0,0.0,0.0,0.0,0.0,0.0,0.0,0.0,0.0,0.0,0.0,0.0,0.0,0.0,0.0,0.0,0.0,0.0,0.0,0.0,0.0,0.0,0.0,0.0,0.0,0.0,0.0,0.0,0.0,0.0,0.0,0.0,0.0,0.0,0.0,0.0,0.0,0.0,0.0,0.0,0.0,0.0,0.0,0.0,0.0,0.0,0.0,0.0,0.0,0.0,0.0,0.0,0.0,0.0,0.0,0.0,0.0,0.0,0.0,0.0,0.0,0.0,0.0,0.0,0.0,-1.3118,-1.2688,-1.2667,-1.3038,-1.325,-1.3481,0.0,0.0,0.0,0.0,0.0,0.0,0.0,0.0,0.0,0.0,0.0,0.0,0.0,0.0,0.0,0.0,0.0,0.0,0.0,0.0,0.0,0.0,0.0,0.0,0.0,0.0,0.0,0.0,0.0,0.0,0.0,0.0,0.0,0.0,0.0,0.0,0.0,0.0,0.0,0.0,0.0,0.0,0.0,0.0,0.0,0.0,0.0,0.0,0.0,0.0,0.0,0.0,0.0,0.0,0.0,0.0,0.0,0.0,0.0,0.0,0.0,0.0,0.0,0.0,0.0,0.0,0.0,0.0,0.0,0.0,0.0,0.0,0.0,0.0,0.0,0.0,0.0,0.0,0.0,0.0,0.0,0.0,0.0,0.0,0.0,0.0,0.0,0.0,0.0,0.0,0.0,0.0,0.0,0.0,0.0,0.0,0.0,0.0,0.0,0.0,0.0,0.0,0.0,0.0,0.0,0.0,0.0,0.0,0.0,-1.3363,-1.3324,-1.3409,-1.3638,-1.372,-1.3818,0.0,0.0,0.0,0.0,0.0,0.0,0.0,0.0,0.0,0.0,0.0,0.0,0.0,0.0,0.0,0.0,0.0,0.0,0.0,0.0,0.0,0.0,0.0,0.0,0.0,0.0,0.0,0.0,0.0,0.0,0.0,0.0,0.0,0.0,0.0,0.0,0.0,0.0,0.0,0.0,0.0,0.0,0.0,0.0,0.0,0.0,0.0,0.0,0.0,0.0,0.0,0.0,0.0,0.0,0.0,0.0,0.0,0.0,0.0,0.0,0.0,0.0,0.0,0.0,0.0,0.0,0.0,0.0,0.0,0.0,0.0,0.0,0.0,0.0,0.0,0.0,0.0,0.0,0.0,0.0,0.0,0.0,0.0,0.0,0.0,0.0,0.0,0.0,0.0,0.0,0.0,0.0,0.0,0.0,0.0,0.0,0.0,0.0,0.0,0.0,0.0,0.0,0.0,0.0,0.0,0.0,0.0,0.0,-1.3199,-1.3736,-1.4044,-1.4205,-1.428,-1.4086,-1.4029,0.0,0.0,0.0,0.0,0.0,0.0,0.0,0.0,0.0,0.0,0.0,0.0,0.0,0.0,0.0,0.0,0.0,0.0,0.0,0.0,0.0,0.0,0.0,0.0,0.0,0.0,0.0,0.0,0.0,0.0,0.0,0.0,0.0,0.0,0.0,0.0,0.0,0.0,0.0,0.0,0.0,0.0,0.0,0.0,0.0,0.0,0.0,0.0,0.0,0.0,0.0,0.0,0.0,0.0,0.0,0.0,0.0,0.0,0.0,0.0,0.0,0.0,0.0,0.0,0.0,0.0,0.0,0.0,0.0,0.0,0.0,0.0,0.0,0.0,0.0,0.0,0.0,0.0,0.0,0.0,0.0,0.0,0.0,0.0,0.0,0.0,0.0,0.0,0.0,0.0,0.0,0.0,0.0,0.0,0.0,0.0,0.0,0.0,0.0,0.0,0.0,0.0,0.0,0.0,0.0,0.0,0.0,0.0,-1.3655,-1.4128,-1.4732,-1.4988,-1.4887,-1.4425,-1.4223,0.0,0.0,0.0,0.0,0.0,0.0,0.0,0.0,0.0,0.0,0.0,0.0,0.0,0.0,0.0,0.0,0.0,0.0,0.0,0.0,0.0,0.0,0.0,0.0,0.0,0.0,0.0,0.0,0.0,0.0,0.0,0.0,0.0,0.0,0.0,0.0,0.0,0.0,0.0,0.0,0.0,0.0,0.0,0.0,0.0,0.0,0.0,0.0,0.0,0.0,0.0,0.0,0.0,0.0,0.0,0.0,0.0,0.0,0.0,0.0,0.0,0.0,0.0,0.0,0.0,0.0,0.0,0.0,0.0,0.0,0.0,0.0,0.0,0.0,0.0,0.0,0.0,0.0,0.0,0.0,0.0,0.0,0.0,0.0,0.0,0.0,0.0,0.0,0.0,0.0,0.0,0.0,0.0,0.0,0.0,0.0,0.0,0.0,0.0,0.0,0.0,0.0,0.0,0.0,0.0,0.0,0.0,0.0,-1.3834,-1.4401,-1.5003,-1.5369,-1.5506,-1.5035,-1.46,0.0,0.0,0.0,0.0,0.0,0.0,0.0,0.0,0.0,0.0,0.0,0.0,0.0,0.0,0.0,0.0,0.0,0.0,0.0,0.0,0.0,0.0,0.0,0.0,0.0,0.0,0.0,0.0,0.0,0.0,0.0,0.0,0.0,0.0,0.0,0.0,0.0,0.0,0.0,0.0,0.0,0.0,0.0,0.0,0.0,0.0,0.0,0.0,-1.1807,0.0,0.0,0.0,0.0,0.0,0.0,0.0,0.0,0.0,0.0,0.0,0.0,0.0,0.0,0.0,0.0,0.0,0.0,0.0,0.0,0.0,0.0,0.0,0.0,0.0,0.0,0.0,0.0,0.0,0.0,0.0,0.0,0.0,0.0,0.0,0.0,0.0,0.0,0.0,0.0,0.0,0.0,0.0,0.0,0.0,0.0,0.0,0.0,0.0,0.0,0.0,0.0,0.0,0.0,0.0,0.0,0.0,0.0,0.0,-1.4254,-1.4723,-1.5297,-1.5645,-1.5741,-1.5366,-1.4894,0.0,0.0,0.0,0.0,0.0,0.0,0.0,0.0,0.0,0.0,0.0,0.0,0.0,0.0,0.0,0.0,0.0,0.0,0.0,0.0,0.0,0.0,0.0,0.0,0.0,0.0,0.0,0.0,0.0,0.0,0.0,0.0,0.0,0.0,0.0,0.0,0.0,0.0,0.0,0.0,0.0,0.0,0.0,0.0,0.0,0.0,0.0,0.0,0.0,0.0,0.0,0.0,0.0,0.0,0.0,0.0,0.0,0.0,0.0,0.0,0.0,0.0,0.0,0.0,0.0,0.0,0.0,0.0,0.0,0.0,0.0,0.0,0.0,0.0,0.0,0.0,0.0,0.0,0.0,0.0,0.0,0.0,0.0,0.0,0.0,0.0,0.0,0.0,0.0,0.0,0.0,0.0,0.0,0.0,0.0,0.0,0.0,0.0,0.0,0.0,0.0,0.0,0.0,0.0,0.0,0.0,0.0,-1.4074,-1.4689,-1.5053,-1.5551,-1.5801,-1.5801,-1.5431,-1.5027,-1.4527,0.0,0.0,0.0,0.0,0.0,0.0,0.0,0.0,0.0,0.0,0.0,0.0,0.0,0.0,0.0,0.0,0.0,0.0,0.0,0.0,0.0,0.0,0.0,0.0,0.0,0.0,0.0,0.0,0.0,0.0,0.0,0.0,0.0,0.0,0.0,0.0,0.0,0.0,-1.1276,-1.2051,0.0,0.0,0.0,0.0,0.0,0.0,0.0,0.0,-1.2445,0.0,0.0,0.0,0.0,0.0,0.0,0.0,0.0,0.0,0.0,0.0,0.0,0.0,0.0,0.0,0.0,0.0,0.0,0.0,0.0,0.0,0.0,0.0,0.0,0.0,0.0,0.0,0.0,0.0,0.0,0.0,0.0,0.0,0.0,0.0,0.0,0.0,0.0,0.0,0.0,0.0,0.0,0.0,0.0,0.0,0.0,0.0,0.0,0.0,0.0,0.0,0.0,0.0,0.0,0.0,0.0,-1.352,-1.4181,-1.4776,-1.5317,-1.5658,-1.5801,-1.5788,-1.531,-1.4773,-1.4176,0.0,0.0,0.0,0.0,0.0,0.0,0.0,0.0,0.0,0.0,0.0,0.0,0.0,0.0,0.0,0.0,0.0,0.0,0.0,0.0,0.0,0.0,0.0,0.0,0.0,0.0,0.0,0.0,0.0,0.0,0.0,0.0,0.0,0.0,0.0,0.0,0.0,0.0,0.0,-1.3394,-1.3828,0.0,0.0,0.0,0.0,0.0,0.0,0.0,0.0,-1.3046,0.0,0.0,0.0,0.0,0.0,0.0,0.0,0.0,0.0,0.0,0.0,0.0,0.0,0.0,0.0,0.0,0.0,0.0,0.0,0.0,0.0,0.0,0.0,0.0,0.0,0.0,0.0,0.0,0.0,0.0,0.0,0.0,0.0,0.0,0.0,0.0,0.0,0.0,0.0,0.0,0.0,0.0,0.0,0.0,0.0,0.0,0.0,0.0,0.0,0.0,0.0,0.0,0.0,0.0,0.0,-1.36,-1.4369,-1.4963,-1.5391,-1.5661,-1.5801,-1.5795,-1.5294,-1.4733,0.0,0.0,0.0,0.0,0.0,0.0,0.0,0.0,0.0,0.0,0.0,0.0,0.0,0.0,0.0,0.0,0.0,0.0,0.0,0.0,0.0,0.0,0.0,0.0,0.0,0.0,0.0,0.0,0.0,0.0,0.0,0.0,0.0,0.0,0.0,0.0,0.0,0.0,0.0,0.0,-1.3714,-1.4216,-1.4524,0.0,0.0,0.0,0.0,0.0,0.0,-1.3413,-1.3367,0.0,0.0,0.0,0.0,0.0,0.0,0.0,0.0,0.0,0.0,0.0,0.0,0.0,0.0,0.0,0.0,0.0,0.0,0.0,0.0,0.0,0.0,0.0,0.0,0.0,0.0,0.0,0.0,0.0,0.0,0.0,0.0,0.0,0.0,0.0,0.0,0.0,0.0,0.0,0.0,0.0,0.0,0.0,0.0,0.0,0.0,0.0,0.0,0.0,0.0,0.0,0.0,0.0,0.0,0.0,-1.37,-1.4543,-1.516,-1.5471,-1.5712,-1.5781,-1.5708,-1.5177,-1.4618,0.0,0.0,0.0,0.0,0.0,0.0,0.0,0.0,0.0,0.0,0.0,0.0,0.0,0.0,0.0,0.0,0.0,0.0,0.0,0.0,0.0,0.0,0.0,0.0,0.0,0.0,0.0,0.0,0.0,0.0,0.0,0.0,0.0,0.0,0.0,0.0,0.0,0.0,0.0,0.0,0.0,-1.4477,-1.5015,-1.5073,0.0,0.0,0.0,0.0,-1.396,-1.3887,0.0,0.0,0.0,0.0,0.0,0.0,0.0,0.0,0.0,0.0,0.0,0.0,0.0,0.0,0.0,0.0,0.0,0.0,0.0,0.0,0.0,0.0,0.0,0.0,0.0,0.0,0.0,0.0,0.0,0.0,0.0,0.0,0.0,0.0,0.0,0.0,0.0,0.0,0.0,0.0,0.0,0.0,0.0,0.0,0.0,0.0,0.0,0.0,0.0,0.0,0.0,0.0,0.0,0.0,0.0,0.0,-1.4008,-1.4671,-1.5247,-1.5721,-1.5781,-1.5681,-1.5444,-1.4877,-1.4274,0.0,0.0,0.0,0.0,0.0,0.0,0.0,0.0,0.0,0.0,0.0,0.0,0.0,0.0,0.0,0.0,0.0,0.0,0.0,0.0,0.0,0.0,0.0,0.0,0.0,0.0,0.0,0.0,0.0,0.0,0.0,0.0,0.0,0.0,0.0,0.0,0.0,0.0,0.0,0.0,0.0,-1.4999,-1.5304,-1.5344,-1.5244,0.0,0.0,-1.4919,-1.4867,-1.4832,0.0,0.0,0.0,0.0,0.0,0.0,0.0,0.0,0.0,0.0,0.0,0.0,0.0,0.0,0.0,0.0,0.0,0.0,0.0,0.0,0.0,0.0,0.0,0.0,0.0,0.0,0.0,0.0,0.0,0.0,0.0,0.0,0.0,0.0,0.0,0.0,0.0,0.0,0.0,0.0,0.0,0.0,0.0,0.0,0.0,0.0,0.0,0.0,0.0,0.0,0.0,0.0,0.0,0.0,0.0,-1.3079,-1.4062,-1.4691,-1.5273,-1.5781,-1.5801,-1.5668,-1.5404,-1.4808,-1.4221,0.0,0.0,0.0,0.0,0.0,0.0,0.0,0.0,0.0,0.0,0.0,0.0,0.0,0.0,0.0,0.0,0.0,0.0,0.0,0.0,0.0,0.0,0.0,0.0,0.0,0.0,0.0,0.0,0.0,0.0,0.0,0.0,0.0,0.0,0.0,0.0,0.0,0.0,0.0,0.0,0.0,0.0,-1.5849,-1.6039,0.0,0.0,0.0,-1.5892,-1.5755,0.0,0.0,0.0,0.0,0.0,0.0,0.0,0.0,0.0,0.0,0.0,0.0,0.0,0.0,0.0,0.0,0.0,0.0,0.0,0.0,0.0,0.0,0.0,0.0,0.0,0.0,0.0,0.0,0.0,0.0,0.0,0.0,0.0,0.0,0.0,0.0,0.0,0.0,0.0,0.0,0.0,0.0,0.0,0.0,0.0,0.0,0.0,0.0,0.0,0.0,0.0,0.0,0.0,0.0,0.0,0.0,0.0,-1.4096,-1.4685,-1.5267,-1.5781,-1.5801,-1.5628,-1.5291,-1.4716,0.0,0.0,0.0,0.0,0.0,0.0,0.0,0.0,0.0,0.0,0.0,0.0,0.0,0.0,0.0,0.0,0.0,0.0,0.0,0.0,0.0,0.0,0.0,0.0,0.0,0.0,0.0,-1.0143,0.0,0.0,0.0,0.0,0.0,0.0,0.0,0.0,0.0,0.0,0.0,0.0,0.0,0.0,-1.5718,-1.6299,-1.6567,-1.6707,0.0,0.0,-1.6627,-1.6413,-1.6132,-1.5765,0.0,0.0,0.0,0.0,0.0,0.0,0.0,0.0,0.0,0.0,0.0,0.0,0.0,0.0,0.0,0.0,0.0,0.0,0.0,0.0,0.0,0.0,0.0,0.0,0.0,0.0,0.0,0.0,0.0,0.0,0.0,0.0,0.0,0.0,0.0,0.0,0.0,0.0,0.0,0.0,0.0,0.0,0.0,0.0,0.0,0.0,0.0,0.0,0.0,0.0,0.0,0.0,0.0,0.0,-1.3233,-1.4089,-1.4691,-1.5267,-1.5775,-1.5801,-1.5558,-1.5026,-1.4444,-1.3848,0.0,0.0,0.0,0.0,0.0,0.0,0.0,0.0,0.0,0.0,0.0,0.0,0.0,0.0,0.0,0.0,0.0,0.0,0.0,0.0,0.0,0.0,0.0,0.0,0.0,0.0,0.0,0.0,0.0,0.0,0.0,0.0,0.0,0.0,0.0,0.0,0.0,0.0,0.0,0.0,0.0,-1.5988,-1.6593,-1.6693,-1.6714,0.0,-1.6707,-1.67,-1.6687,-1.6464,-1.6132,-1.5795,0.0,0.0,0.0,0.0,0.0,0.0,0.0,0.0,0.0,0.0,0.0,0.0,0.0,0.0,0.0,0.0,0.0,0.0,0.0,0.0,0.0,0.0,0.0,0.0,0.0,0.0,0.0,0.0,0.0,0.0,0.0,0.0,0.0,0.0,0.0,0.0,0.0,0.0,0.0,0.0,0.0,0.0,0.0,0.0,0.0,0.0,0.0,0.0,0.0,0.0,0.0,0.0,0.0,-1.34,-1.4103,-1.4691,-1.5244,-1.5775,-1.5801,-1.5528,-1.4999,-1.4584,-1.3995,0.0,0.0,0.0,0.0,0.0,0.0,0.0,0.0,0.0,0.0,0.0,0.0,0.0,0.0,0.0,0.0,0.0,0.0,0.0,0.0,0.0,0.0,0.0,0.0,0.0,0.0,0.0,0.0,-1.144,-1.1725,-1.2109,0.0,0.0,0.0,0.0,0.0,0.0,0.0,0.0,0.0,0.0,-1.638,-1.7141,-1.7408,0.0,0.0,-1.7502,-1.7436,-1.7275,-1.7026,-1.6739,-1.642,-1.5972,0.0,0.0,0.0,0.0,0.0,0.0,0.0,0.0,0.0,0.0,0.0,0.0,0.0,0.0,0.0,0.0,0.0,0.0,0.0,0.0,0.0,0.0,0.0,0.0,0.0,0.0,0.0,0.0,0.0,0.0,0.0,0.0,0.0,0.0,0.0,0.0,0.0,0.0,0.0,0.0,0.0,0.0,0.0,0.0,0.0,0.0,0.0,0.0,0.0,0.0,0.0,0.0,-1.35,-1.4103,-1.4707,-1.5244,-1.5788,-1.5801,-1.5558,-1.5028,-1.4676,-1.4087,0.0,0.0,0.0,0.0,0.0,0.0,0.0,0.0,0.0,0.0,0.0,0.0,0.0,0.0,0.0,0.0,0.0,0.0,0.0,0.0,0.0,0.0,0.0,0.0,0.0,0.0,0.0,0.0,-1.1841,-1.2078,-1.2266,0.0,0.0,0.0,0.0,0.0,0.0,0.0,0.0,0.0,0.0,-1.672,-1.7595,-1.7882,-1.8022,-1.8143,-1.8156,-1.8042,-1.7762,-1.7501,-1.7233,-1.6913,0.0,0.0,0.0,0.0,0.0,0.0,0.0,0.0,0.0,0.0,0.0,0.0,0.0,0.0,0.0,0.0,0.0,0.0,0.0,0.0,0.0,0.0,0.0,0.0,0.0,0.0,0.0,-0.9701,0.0,0.0,-0.9719,0.0,0.0,0.0,0.0,0.0,0.0,0.0,0.0,0.0,0.0,0.0,0.0,0.0,0.0,0.0,0.0,0.0,0.0,0.0,0.0,0.0,0.0,-1.3507,-1.4088,-1.4691,-1.5267,-1.5781,-1.5801,-1.5528,-1.5035,-1.4683,-1.4087,-1.322,0.0,0.0,0.0,0.0,0.0,0.0,0.0,0.0,0.0,0.0,0.0,0.0,0.0,0.0,0.0,0.0,0.0,0.0,0.0,0.0,0.0,0.0,0.0,0.0,0.0,0.0,-1.1866,-1.2136,-1.2291,0.0,0.0,0.0,0.0,0.0,0.0,0.0,0.0,0.0,0.0,-1.6506,-1.7002,-1.7856,-1.7995,-1.8109,-1.8409,-1.8484,-1.8377,-1.8029,-1.7756,-1.7501,0.0,0.0,0.0,0.0,0.0,0.0,0.0,0.0,0.0,0.0,0.0,0.0,0.0,0.0,0.0,0.0,0.0,0.0,0.0,0.0,0.0,0.0,0.0,0.0,0.0,0.0,0.0,-0.9994,-1.0168,0.0,0.0,0.0,0.0,0.0,0.0,0.0,0.0,0.0,0.0,0.0,-1.2593,-1.26,0.0,0.0,0.0,0.0,0.0,0.0,0.0,0.0,0.0,0.0,0.0,0.0,-1.3601,-1.4349,-1.4785,-1.5273,-1.5781,-1.5801,-1.5645,-1.5287,-1.497,-1.4309,-1.3227,0.0,0.0,0.0,0.0,0.0,0.0,0.0,0.0,0.0,0.0,0.0,0.0,0.0,0.0,0.0,0.0,0.0,0.0,0.0,0.0,0.0,0.0,0.0,0.0,0.0,-1.1837,0.0,0.0,0.0,0.0,0.0,0.0,0.0,0.0,0.0,0.0,0.0,-1.5611,-1.6223,-1.6718,-1.7269,-1.7903,-1.8021,-1.8043,0.0,0.0,0.0,0.0,0.0,0.0,0.0,0.0,0.0,0.0,0.0,0.0,0.0,0.0,-1.5417,-1.5476,-1.5144,-1.4816,-1.4619,0.0,0.0,0.0,0.0,0.0,0.0,0.0,0.0,0.0,0.0,0.0,0.0,0.0,0.0,-1.0359,0.0,-1.0729,0.0,0.0,0.0,0.0,0.0,0.0,0.0,0.0,-1.2653,-1.294,-1.334,-1.3467,-1.3514,0.0,-1.3393,-1.294,0.0,0.0,0.0,0.0,0.0,0.0,0.0,0.0,-1.3841,-1.4487,-1.4939,-1.5344,-1.5775,-1.5801,-1.5661,-1.5398,-1.4946,-1.4249,-1.3367,-1.286,-1.2504,0.0,0.0,0.0,0.0,0.0,0.0,0.0,0.0,0.0,0.0,0.0,0.0,0.0,0.0,0.0,0.0,0.0,0.0,0.0,0.0,0.0,0.0,0.0,-1.227,0.0,0.0,0.0,0.0,0.0,0.0,0.0,0.0,0.0,-1.4696,-1.5328,-1.5964,-1.6389,-1.6867,-1.7345,-1.7784,0.0,0.0,0.0,0.0,0.0,0.0,0.0,-1.8798,-1.8811,-1.8379,-1.7907,-1.7601,-1.7114,-1.6756,-1.6758,0.0,0.0,-1.5825,-1.537,-1.4894,-1.4603,-1.4161,-1.3839,-1.3863,-1.3572,-1.3385,0.0,0.0,0.0,0.0,0.0,0.0,0.0,0.0,-1.0648,-1.0791,0.0,-1.0977,0.0,0.0,0.0,0.0,-1.1942,-1.2236,0.0,0.0,-1.338,-1.3633,-1.3694,-1.3981,-1.4136,-1.4116,-1.3807,-1.364,-1.3546,-1.2773,0.0,0.0,0.0,0.0,0.0,0.0,-1.4235,-1.4527,-1.5104,-1.5531,-1.5788,-1.5801,-1.5691,-1.5398,-1.4583,-1.3988,-1.3626,-1.3353,-1.308,-1.2804,-1.249,0.0,0.0,0.0,0.0,0.0,0.0,0.0,0.0,0.0,0.0,0.0,0.0,0.0,0.0,0.0,0.0,0.0,0.0,0.0,0.0,-1.2611,0.0,0.0,0.0,0.0,0.0,0.0,0.0,0.0,0.0,0.0,-1.5855,-1.5858,-1.606,-1.6645,0.0,0.0,0.0,0.0,-1.8087,-1.8331,-1.861,-1.8799,-1.8888,-1.9119,-1.9299,-1.9381,0.0,0.0,-1.7556,-1.7595,-1.739,-1.6483,-1.6174,-1.6111,-1.5946,-1.5349,-1.4749,-1.4173,-1.3982,-1.3912,-1.3632,-1.346,-1.344,-0.8032,0.0,0.0,0.0,0.0,-1.0298,-1.0686,-1.1136,-1.1221,-1.1355,-1.1512,-1.171,0.0,0.0,0.0,0.0,0.0,0.0,-1.3393,-1.3741,-1.4095,-1.4382,-1.4611,-1.4698,-1.476,-1.4732,-1.4645,-1.4476,-1.4241,-1.3987,-1.3547,-1.294,0.0,0.0,0.0,0.0,-1.4329,-1.4845,-1.5233,-1.5538,-1.5801,-1.5801,-1.5668,-1.5404,-1.4979,-1.4497,-1.3981,-1.3654,-1.334,-1.3086,-1.2805,0.0,0.0,0.0,0.0,0.0,0.0,0.0,0.0,0.0,0.0,0.0,0.0,0.0,0.0,0.0,0.0,0.0,0.0,0.0,-1.2919,-1.3033,-1.308,0.0,0.0,0.0,0.0,0.0,0.0,0.0,0.0,0.0,-1.6994,-1.7081,-1.7039,0.0,0.0,-1.7689,-1.7569,-1.7784,-1.7964,-1.8023,-1.8438,0.0,-1.8754,-1.9046,-1.9223,-1.926,-1.8778,-1.8204,-1.7773,-1.7137,-1.6604,-1.619,-1.5552,-1.5035,-1.4879,-1.4482,-1.3999,-1.3552,-1.3129,-1.2872,-1.2926,-1.2782,-1.2672,-0.8335,-0.8751,-0.8894,-0.9417,-1.0203,-1.0636,-1.114,-1.1697,-1.1843,-1.1967,-1.2043,-1.218,-1.2385,-1.2617,-1.3007,0.0,0.0,0.0,-1.4067,-1.4275,-1.4676,-1.4963,-1.516,-1.5273,-1.5334,-1.532,-1.5213,-1.5044,-1.4834,-1.475,-1.4429,-1.3915,0.0,0.0,-1.3814,-1.4342,-1.4776,-1.516,-1.5561,-1.5772,-1.5801,-1.5801,-1.5668,-1.5404,-1.514,-1.4787,-1.4282,-1.396,-1.366,-1.3373,-1.3206,-1.2985,0.0,0.0,0.0,0.0,0.0,0.0,0.0,0.0,0.0,0.0,0.0,-1.2062,-1.208,0.0,0.0,0.0,-1.2771,-1.3006,-1.3173,-1.3414,0.0,0.0,0.0,0.0,0.0,0.0,0.0,-1.5952,-1.6491,-1.7013,-1.7548,-1.7896,-1.7907,-1.7369,-1.7716,-1.7833,-1.7399,0.0,-1.791,-1.7913,-1.8344,-1.8748,-1.8896,-1.9131,-1.9299,-1.9175,-1.8714,-1.8126,-1.7557,-1.6965,-1.6382,-1.5726,-1.5027,-1.4355,-1.3857,-1.3356,-1.3062,-1.3023,-1.2645,-1.2326,-1.2355,-1.2186,-1.2078,-0.8858,-0.9182,-0.9297,-0.9724,-1.0413,-1.1056,-1.1734,-1.2392,-1.2447,-1.2572,-1.2732,-1.2491,-1.2523,-1.2778,-1.3423,0.0,-1.419,-1.4434,-1.4567,-1.4594,-1.517,-1.5424,-1.5444,-1.5675,-1.5801,-1.5795,-1.5558,-1.5431,-1.5418,-1.5186,-1.5039,-1.5042,-1.475,-1.4469,-1.4215,-1.4977,-1.5404,-1.5438,-1.6009,-1.6139,-1.5848,-1.5815,-1.5705,-1.5438,-1.5146,-1.4859,-1.4541,-1.4255,-1.3961,-1.3653,-1.3613,-1.35,-1.3233,0.0,0.0,0.0,0.0,0.0,0.0,0.0,0.0,0.0,0.0,0.0,0.0,0.0,0.0,0.0,-1.3106,0.0,-1.3327,-1.3855,0.0,0.0,0.0,-1.516,-1.5404,-1.5708,-1.6015,-1.6337,0.0,0.0,-1.7689,-1.839,-1.8605,-1.7774,-1.79,-1.7871,-1.7303,-1.7677,-1.7992,-1.8004,-1.8421,-1.8829,-1.9024,-1.9259,-1.9267,-1.8992,-1.8693,-1.8086,-1.72,-1.685,-1.6321,-1.5113,-1.4604,-1.4043,-1.2997,-1.2351,-1.1978,-1.2618,-1.2388,-1.2062,-1.1791,-1.1688,-1.164,-0.9347,-0.9806,-1.0248,-1.0576,-1.0879,-1.1378,-1.1908,-1.2434,-1.2834,-1.3052,-1.3096,-1.3171,-1.3437,-1.3852,-1.4419,-1.4711,-1.4792,-1.5079,-1.519,-1.5211,-1.5535,-1.5701,-1.5708,-1.5775,-1.5801,-1.5801,-1.5735,-1.5701,-1.5701,-1.5658,-1.5511,-1.5311,-1.5414,-1.5264,-1.4819,-1.5207,-1.5504,-1.5701,-1.6086,-1.6264,-1.6166,-1.5921,-1.5775,-1.5701,-1.5247,-1.4952,-1.4872,-1.4384,-1.4076,-1.3981,-1.3747,-1.3573,-1.3507,-1.326,0.0,0.0,0.0,0.0,0.0,0.0,0.0,0.0,0.0,-1.2777,-1.2979,0.0,-1.31,0.0,-1.3574,-1.4083,-1.4524,-1.4698,0.0,0.0,-1.5277,-1.5628,-1.5701,-1.6404,-1.6892,-1.6978,-1.7528,-1.7996,-1.8243,-1.8651,-1.8757,-1.8292,-1.8658,-1.8785,-1.8219,-1.8544,-1.8797,-1.8567,-1.8752,-1.895,-1.8758,-1.8544,-1.8355,-1.8296,-1.7781,-1.7297,-1.7039,-1.6331,-1.5556,-1.4698,-1.4235,-1.3715,-1.2935,-1.2276,-1.1912,-1.1978,-1.1549,-1.1049,-1.0986,-1.0986,-1.1038,-1.0219,-1.0585,-1.11,-1.1496,-1.1824,-1.2178,-1.2601,-1.3093,-1.3514,-1.3635,-1.3545,-1.3721,-1.409,-1.4621,-1.4991,-1.5247,-1.5357,-1.5518,-1.5585,-1.5575,-1.5728,-1.5801,-1.5801,-1.5801,-1.5801,-1.5801,-1.5801,-1.5801,-1.5801,-1.5801,-1.5721,-1.5575,-1.5721,-1.5641,-1.5378,-1.5638,-1.5896,-1.6025,-1.6217,-1.6297,-1.629,-1.5961,-1.5801,-1.5795,-1.5271,-1.5015,-1.4979,-1.4417,-1.4109,-1.4103,-1.3928,-1.382,-1.3814,-1.352,-1.3387,0.0,0.0,0.0,0.0,0.0,0.0,0.0,0.0,0.0,0.0,0.0,-1.3714,-1.3989,-1.431,-1.4631,-1.4981,-1.522,-1.5351,-1.5374,-1.5848,-1.6242,-1.6406,-1.6879,-1.728,-1.7548,-1.7956,-1.8329,-1.8644,-1.8945,-1.8999,-1.8693,-1.9004,-1.9037,-1.8364,-1.8551,-1.8697,-1.8505,-1.8713,-1.8758,-1.8404,-1.7878,-1.755,-1.7518,-1.7001,-1.6521,-1.6331,-1.5719,-1.5001,-1.4305,-1.3884,-1.349,-1.2902,-1.2243,-1.1817,-1.1714,-1.1214,-1.075,-1.0721,-1.0721,-1.0787,-1.1242,-1.1419,-1.1907,-1.2395,-1.291,-1.3128,-1.3467,-1.3907,-1.4208,-1.4243,-1.4059,-1.4274,-1.4672,-1.5143,-1.5358,-1.5561,-1.5795,-1.5801,-1.5801,-1.5801,-1.5801,-1.5801,-1.5801,-1.5801,-1.5801,-1.5801,-1.5801,-1.5801,-1.5801,-1.5801,-1.5801,-1.5801,-1.5801,-1.5801,-1.5815,-1.6126,-1.6297,-1.6297,-1.6297,-1.6297,-1.6297,-1.5979,-1.5801,-1.5781,-1.5287,-1.5015,-1.4995,-1.4424,-1.4109,-1.4109,-1.4109,-1.4109,-1.4103,-1.382,-1.368,0.0,-1.3474,0.0,0.0,0.0,0.0,0.0,0.0,0.0,0.0,-1.4048,-1.4451,-1.4992,-1.5095,-1.5113,-1.5146,-1.5618,-1.5898,-1.5935,-1.6408,-1.6867,-1.7166,-1.7233,-1.7448,-1.7929,-1.8283,-1.8597,-1.8843,-1.9185,-1.9272,-1.89,-1.8982,-1.8824,-1.8135,-1.8191,-1.8376,-1.8272,-1.8349,-1.8276,-1.7878,-1.7324,-1.6942,-1.6845,-1.6396,-1.5849,-1.5593,-1.5132,-1.4632,-1.4039,-1.3654,-1.3301,-1.2869,-1.2309,-1.1879,-1.178,-1.1251,-1.0787,-1.0721,-1.0721,-1.0721,-1.1716,-1.22,-1.2516,-1.291,-1.3394,-1.3636,-1.3811,-1.3931,-1.4406,-1.4735,-1.4875,-1.5143,-1.5332,-1.5438,-1.5627,-1.5755,-1.5801,-1.5801,-1.5801,-1.5801,-1.5801,-1.5801,-1.5801,-1.5801,-1.5801,-1.5801,-1.5801,-1.5801,-1.5801,-1.5801,-1.5801,-1.5801,-1.5801,-1.5801,-1.5815,0.0,0.0,0.0,-1.6297,-1.6297,-1.629,-1.5979,-1.5801,-1.5795,-1.5271,0.0,-1.4988,-1.4417,-1.4109,-1.4109,-1.4109,0.0,0.0,0.0,0.0,0.0,0.0,0.0,0.0,0.0,0.0,0.0,-1.4718,-1.4678,-1.4732,-1.4807,-1.4988,-1.5307,-1.5524,-1.5765,-1.6029,-1.6333,-1.654,-1.6528,-1.6886,-1.7146,-1.7206,-1.7381,-1.7642,-1.7949,-1.8276,-1.8604,-1.887,-1.9178,-1.9156,-1.8625,-1.8524,-1.838,-1.7973,-1.8312,-1.856,-1.8511,-1.808,-1.7594,-1.726,-1.6882,-1.6494,-1.6234,-1.5881,-1.5593,-1.5468,-1.4931,-1.4408,-1.3973,-1.3625,-1.3272,-1.2906,-1.2474,-1.2111,-1.1843,-1.1416,-1.1019,-1.0754,-1.0721,-1.0721,-1.2509,-1.2643,-1.3152,-1.3491,0.0,-1.4118,-1.4286,-1.4334,-1.4598,-1.4927,-1.5309,-1.5428,-1.554,-1.5635,-1.5761,-1.5801,-1.5801,-1.5801,-1.5801,-1.5801,-1.5801,-1.5801,-1.5801,-1.5801,-1.5801,-1.5801,-1.5801,-1.5801,-1.5801,-1.5801,-1.5801,-1.5801,-1.5801,-1.5801,-1.5808,-1.5948,-1.6126,-1.6297,-1.6297,-1.6199,-1.6059,-1.5881,-1.5801,-1.5788,-1.5411,0.0,0.0,0.0,0.0,0.0,0.0,0.0,0.0,-1.4457,0.0,-1.4544,-1.4678,-1.4765,-1.4743,-1.4899,-1.5068,-1.5193,-1.5311,-1.5354,-1.5207,-1.5467,-1.5695,-1.5818,-1.6092,-1.6319,-1.648,-1.6772,-1.6927,-1.6966,-1.7207,-1.7414,-1.7421,-1.7629,-1.7929,-1.8203,-1.8524,-1.8811,-1.9098,-1.9294,-1.912,-1.8538,-1.8392,-1.8282,-1.7997,-1.8221,-1.8463,-1.8329,-1.7723,-1.7201,-1.7007,-1.6553,-1.6239,-1.5974,-1.5556,-1.523,-1.5197,-1.4768,-1.4338,-1.4141,-1.3757,-1.3305,-1.3137,-1.2671,-1.2246,-1.2078,-1.1747,-1.138,-1.1016,-1.082,-1.0721,-1.3267,-1.3116,-1.3731,-1.4003,-1.407,-1.4568,-1.4783,-1.4855,0.0,0.0,0.0,-1.5564,-1.5635,-1.5801,-1.5801,-1.5801,-1.5801,-1.5801,-1.5801,-1.5801,-1.5801,-1.5801,-1.5801,-1.5801,-1.5801,-1.5801,-1.5801,-1.5801,-1.5801,-1.5801,-1.5801,-1.5801,-1.5801,-1.5801,-1.5801,-1.5801,-1.5928,-1.6203,-1.6223,-1.6079,-1.5815,-1.5801,-1.5801,-1.5801,-1.5551,-1.5307,-1.5095,-1.4756,-1.4489,-1.429,-1.4469,-1.4596,-1.4609,-1.4852,-1.5015,-1.5015,-1.5039,-1.5066,-1.5066,-1.5113,-1.524,-1.5458,-1.5715,-1.5805,-1.5595,-1.6023,-1.6317,-1.6364,-1.6645,-1.6787,-1.6787,-1.708,-1.7273,-1.728,-1.7468,-1.7608,-1.7628,-1.7836,-1.8123,-1.8457,-1.8731,-1.9038,-1.9334,-1.9388,-1.9191,-1.8655,-1.845,-1.8282,-1.8027,-1.8118,-1.8161,-1.7842,-1.7415,-1.7066,-1.6845,-1.6488,-1.6104,-1.6006,-1.5513,-1.5094,-1.4964,-1.4735,-1.4506,-1.4371,-1.3888,-1.3531,-1.3367,-1.2939,-1.2441,-1.2305,-1.2078,-1.178,-1.1383,-1.1019,-1.0784,-1.3668,-1.4113,-1.4201,-1.437,-1.4622,-1.4916,-1.5166,-1.5374,-1.5374,-1.5523,-1.5761,-1.5761,-1.5761,-1.5801,-1.5801,-1.5801,-1.5801,-1.5801,-1.5801,-1.5801,-1.5801,-1.5801,-1.5801,-1.5801,-1.5801,-1.5801,-1.5801,-1.5801,-1.5801,-1.5801,-1.5801,-1.5801,-1.5801,-1.5801,-1.5801,-1.5801,-1.5828,-1.5875,-1.5861,-1.5848,-1.5801,-1.5801,-1.5801,-1.5788,-1.5551,-1.5384,-1.536,-1.5073,-1.4905,-1.4865,-1.4899,-1.4926,-1.4926,-1.4972,-1.5015,-1.5028,-1.522,-1.5331,-1.5344,-1.5535,-1.5701,-1.5755,-1.6039,-1.6217,-1.6183,-1.6244,-1.638,-1.662,-1.6939,-1.7113,-1.7159,-1.7367,-1.7535,-1.7535,-1.7582,-1.7615,-1.7622,-1.7842,-1.8149,-1.8457,-1.8716,-1.9045,-1.9334,-1.9395,-1.9243,-1.8881,-1.8538,-1.8276,-1.8027,-1.8084,-1.7925,-1.7451,-1.7369,-1.719,-1.6785,-1.6536,-1.6331,-1.6039,-1.5909,-1.5681,-1.5463,-1.5132,-1.48,-1.4473,-1.4141,-1.3785,-1.3498,-1.3338,-1.2972,-1.2539,-1.2309,-1.2144,-1.1813,-1.1416,-1.1082,-1.4265,-1.4506,-1.4534,-1.4688,-1.4933,-1.522,-1.5428,-1.5659,-1.5659,-1.5706,-1.5801,-1.5801,-1.5801,-1.5801,-1.5801,-1.5801,-1.5801,-1.5801,-1.5801,-1.5801,-1.5801,-1.5801,-1.5801,-1.5801,-1.5801,-1.5801,-1.5801,-1.5801,-1.5801,-1.5801,-1.5801,-1.5801,-1.5801,-1.5801,-1.5801,-1.5801,-1.5801,-1.5801,-1.5801,-1.5801,-1.5801,-1.5801,-1.5801,-1.5801,-1.5675,-1.5551,-1.5427,-1.5271,-1.5146,-1.5015,-1.5162,-1.522,-1.5227,-1.5344,-1.5431,-1.5438,-1.5558,-1.5631,-1.5631,-1.5728,-1.5801,-1.5815,-1.6106,-1.6371,-1.6524,-1.6678,-1.6826,-1.6966,-1.724,-1.7408,-1.7408,-1.7535,-1.7615,-1.7615,-1.7615,-1.7615,-1.7662,-1.8016,-1.8337,-1.8504,-1.892,-1.9241,-1.9381,-1.9395,-1.9272,-1.8939,-1.8509,-1.8133,-1.7992,-1.7986,-1.7984,-1.7736,-1.7612,-1.7417,-1.7077,-1.6888,-1.6656,-1.6331,-1.6136,-1.5936,-1.5784,-1.5583,-1.5388,-1.5066,-1.4702,-1.4338,-1.3986,-1.3785,-1.3461,-1.3071,-1.2902,-1.2704,-1.221,-1.178,-1.135,-1.4829,-1.4881,-1.4866,-1.5022,-1.5267,-1.5499,-1.5666,-1.5801,-1.5801,-1.5801,-1.5801,-1.5801,-1.5801,-1.5801,-1.5801,-1.5801,-1.5801,-1.5801,-1.5801,-1.5801,-1.5801,-1.5801,-1.5801,-1.5801,-1.5801,-1.5801,-1.5801,-1.5801,-1.5801,-1.5801,-1.5801,-1.5801,-1.5801,-1.5801,-1.5801,-1.5801,-1.5801,-1.5801,-1.5801,-1.5801,-1.5801,-1.5801,-1.5801,-1.5801,-1.5801,-1.5695,-1.5511,-1.5491,-1.5391,-1.5207,-1.5378,-1.5491,-1.5481,-1.5681,-1.5801,-1.5801,-1.5801,-1.5801,-1.5801,-1.5801,-1.5801,-1.5815,-1.6166,-1.6491,-1.67,-1.7066,-1.7293,-1.7326,-1.7474,-1.7602,-1.7595,-1.7608,-1.7615,-1.7615,-1.7615,-1.7615,-1.7662,-1.815,-1.8497,-1.8551,-1.904,-1.9388,-1.9395,-1.9395,-1.9272,-1.891,-1.8486,-1.82,-1.8108,-1.8027,-1.81,-1.8126,-1.7917,-1.7611,-1.7524,-1.7306,-1.7071,-1.6834,-1.6688,-1.6521,-1.6364,-1.6229,-1.6039,-1.5686,-1.536,-1.4996,-1.4604,-1.4342,-1.3982,-1.3593,-1.3461,-1.3264,-1.2572,-1.2144,-1.1681,-1.5209,-1.5401,-1.5401,-1.554,-1.5713,-1.5754,-1.5778,-1.5801,-1.5801,-1.5801,-1.5801,-1.5801,-1.5801,-1.5801,-1.5801,-1.5801,-1.5801,-1.5801,-1.5801,-1.5801,-1.5801,-1.5801,-1.5801,-1.5801,-1.5801,-1.5801,-1.5801,-1.5801,-1.5801,-1.5801,-1.5801,-1.5801,-1.5801,-1.5801,-1.5801,-1.5801,-1.5801,-1.5801,-1.5801,-1.5801,-1.5801,-1.5801,-1.5801,-1.5801,-1.5801,-1.5795,-1.5748,-1.5768,-1.5748,-1.5735,-1.5735,-1.5761,-1.5768,-1.5788,-1.5801,-1.5801,-1.5801,-1.5801,-1.5801,-1.5801,-1.5801,-1.5841,-1.6346,-1.666,-1.6727,-1.7247,-1.7568,-1.7561,-1.7562,-1.7615,-1.7615,-1.7615,-1.7615,-1.7615,-1.7615,-1.7615,-1.7682,-1.815,-1.8497,-1.8497,-1.902,-1.9395,-1.9388,-1.9395,-1.9272,-1.8997,-1.8823,-1.8619,-1.8428,-1.8313,-1.8321,-1.8298,-1.8057,-1.7752,-1.7628,-1.757,-1.7549,-1.7723,-1.7797,-1.7458,-1.7028,-1.6856,-1.6742,-1.6266,-1.5974,-1.5676,-1.516,-1.48,-1.4604,-1.4141,-1.3916,-1.365,-1.2935,-1.2539,-1.2045,-1.5733,-1.5934,-1.5644,-1.5611,-1.5784,-1.5801,-1.5801,-1.5801,-1.5801,-1.5801,-1.5801,-1.5801,-1.5801,-1.5801,-1.5801,-1.5801,-1.5801,-1.5801,-1.5801,-1.5801,-1.5801,-1.5801,-1.5801,-1.5801,-1.5801,-1.5801,-1.5801,-1.5801,-1.5801,-1.5801,-1.5801,-1.5801,-1.5801,-1.5801,-1.5801,-1.5801,-1.5801,-1.5801,-1.5801,-1.5801,-1.5801,-1.5801,-1.5801,-1.5801,-1.5801,-1.5801,-1.5801,-1.5801,-1.5801,-1.5801,-1.5801,-1.5801,-1.5801,-1.5801,-1.5801,-1.5801,-1.5801,-1.5801,-1.5801,-1.5801,-1.5801,-1.5801,-1.6373,-1.6707,-1.6727,-1.7248,-1.7615,-1.7615,-1.7615,-1.7615,-1.7615,-1.7615,-1.7615,-1.7615,-1.7615,-1.7615,-1.7622,-1.7969,-1.8256,-1.8484,-1.8844,-1.9178,-1.9348,-1.9395,-1.9336,-1.9185,-1.9055,-1.8823,-1.8706,-1.8532,-1.8407,-1.8368,-1.8256,-1.8046,-1.7806,-1.7725,-1.7721,-1.7625,-1.7693,-1.7588,-1.7478,-1.751,-1.7421,-1.6936,-1.6715,-1.6423,-1.5979,-1.5649,-1.5388,-1.4889,-1.4338,-1.401,-1.3518,-1.3194,-1.2737,-1.6182,-1.6209,-1.5789,-1.5659,-1.5801,-1.5801,-1.5801,-1.5801,-1.5801,-1.5801,-1.5801,-1.5801,-1.5801,-1.5801,-1.5801,-1.5801,-1.5801,-1.5801,-1.5801,-1.5801,-1.5801,-1.5801,-1.5801,-1.5879,-1.5879,-1.5825,-1.5872,-1.5872,-1.5825,-1.5801,-1.5801,-1.5801,-1.5801,-1.5801,-1.5801,-1.5801,-1.5801,-1.5801,-1.5801,-1.5801,-1.5801,-1.5801,-1.5801,-1.5801,-1.5801,-1.5801,-1.5801,-1.5801,-1.5801,-1.5801,-1.5801,-1.5801,-1.5801,-1.5801,-1.5801,-1.5801,-1.5801,-1.5801,-1.5801,-1.5801,-1.5801,-1.5848,-1.6373,-1.6707,-1.68,-1.7241,-1.7582,-1.7615,-1.7615,-1.7615,-1.7615,-1.7615,-1.7615,-1.7615,-1.7615,-1.7615,-1.7628,-1.7836,-1.8075,-1.8357,-1.8698,-1.9038,-1.9321,-1.9395,-1.9395,-1.9366,-1.9178,-1.9026,-1.9026,-1.8829,-1.869,-1.8567,-1.8538,-1.8418,-1.8131,-1.813,-1.7935,-1.7807,-1.7879,-1.7935,-1.7733,-1.7866,-1.7893,-1.7325,-1.7285,-1.713,-1.6753,-1.6461,-1.6099,-1.5676,-1.5155,-1.46,-1.424,-1.3921,-1.356,-1.6515,-1.6279,-1.5934,-1.5784,-1.5801,-1.5801,-1.5801,-1.5801,-1.5801,-1.5801,-1.5801,-1.5801,-1.5801,-1.5801,-1.5801,-1.5801,-1.5801,-1.5801,-1.5825,-1.5825,-1.5832,-1.5801,-1.5801,-1.6052,-1.6045,-1.5903,-1.6076,-1.6052,-1.5825,-1.5801,-1.5801,-1.5801,-1.5801,-1.5801,-1.5801,-1.5801,-1.5801,-1.5801,-1.5801,-1.5801,-1.5801,-1.5801,-1.5801,-1.5801,-1.5801,-1.5801,-1.5801,-1.5801,-1.5801,-1.5801,-1.5801,-1.5801,-1.5801,-1.5801,-1.5801,-1.5801,-1.5801,-1.5801,-1.5801,-1.5801,-1.5815,-1.5888,-1.638,-1.6714,-1.6774,-1.7261,-1.7595,-1.7615,-1.7615,-1.7615,-1.7615,-1.7615,-1.7615,-1.7615,-1.7615,-1.7615,-1.7615,-1.7802,-1.7989,-1.8136,-1.8563,-1.897,-1.9334,-1.9395,-1.9395,-1.9395,-1.9366,-1.9336,-1.9336,-1.9336,-1.9156,-1.8939,-1.8865,-1.8839,-1.8754,-1.8525,-1.8577,-1.8471,-1.8289,-1.8447,-1.8162,-1.7915,-1.785,-1.7826,-1.7804,-1.7708,-1.7475,-1.7141,-1.6683,-1.6256,-1.5866,-1.5383,-1.4959,-1.46,-1.424,-1.6747,-1.6277,-1.5927,-1.5801,-1.5801,-1.5801,-1.5801,-1.5801,-1.5801,-1.5801,-1.5801,-1.5801,-1.5801,-1.5801,-1.5801,-1.5801,-1.5801,-1.5801,-1.5903,-1.6028,-1.6052,-1.6147,-1.6322,-1.6423,-1.6423,-1.6346,-1.6423,-1.6312,-1.6052,-1.5903,-1.5801,-1.5801,-1.5801,-1.5801,-1.5801,-1.5801,-1.5801,-1.5801,-1.5801,-1.5801,-1.5801,-1.5801,-1.5801,-1.5801,-1.5801,-1.5801,-1.5801,-1.5801,-1.5801,-1.5801,-1.5801,-1.5801,-1.5801,-1.5801,-1.5801,-1.5801,-1.5801,-1.5801,-1.5801,-1.5801,-1.5895,-1.6119,-1.6473,-1.68,-1.7033,-1.7374,-1.7615,-1.7615,-1.7615,-1.7615,-1.7615,-1.7615,-1.7615,-1.7615,-1.7615,-1.7615,-1.7628,-1.7689,-1.7822,-1.8049,-1.8529,-1.8936,-1.9085,-1.9245,-1.9388,-1.9395,-1.9395,-1.9395,-1.9395,-1.9395,-1.9336,-1.9243,-1.9214,-1.9218,-1.9216,-1.875,-1.8536,-1.8578,-1.8547,-1.8636,-1.8494,-1.8374,-1.8334,-1.8265,-1.8262,-1.8148,-1.7897,-1.7742,-1.7291,-1.6839,-1.6451,-1.6191,-1.5709,-1.5318,-1.4894,-1.6799,-1.638,-1.5968,-1.5801,-1.5801,-1.5801,-1.5801,-1.5801,-1.5801,-1.5801,-1.5801,-1.5801,-1.5801,-1.5801,-1.5801,-1.5849,-1.5927,-1.5927,-1.6069,-1.6312,-1.6336,-1.643,-1.6581,-1.6683,-1.6683,-1.6612,-1.6612,-1.6447,-1.6218,-1.6028,-1.5879,-1.5801,-1.5801,-1.5801,-1.5801,-1.5801,-1.5801,-1.5801,-1.5801,-1.5801,-1.5801,-1.5801,-1.5801,-1.5801,-1.5801,-1.5801,-1.5801,-1.5801,-1.5801,-1.5801,-1.5801,-1.5801,-1.5801,-1.5801,-1.5801,-1.5801,-1.5801,-1.5801,-1.5821,-1.5895,-1.6059,-1.6297,-1.6652,-1.6973,-1.7173,-1.7441,-1.7588,-1.7615,-1.7615,-1.7615,-1.7615,-1.7615,-1.7615,-1.7615,-1.7615,-1.7615,-1.7615,-1.7615,-1.7742,-1.7989,-1.8323,-1.8643,-1.8876,-1.9098,-1.9274,-1.9374,-1.9395,-1.9395,-1.9395,-1.9395,-1.9395,-1.9395,-1.9395,-1.9366,-1.9347,-1.9069,-1.8771,-1.876,-1.8711,-1.88,-1.8784,-1.874,-1.8714,-1.8679,-1.86,-1.8486,-1.8364,-1.8267,-1.7912,-1.7442,-1.7227,-1.7039,-1.6521,-1.6001,-1.5644,-1.6714,-1.66,-1.6048,-1.5801,-1.5801,-1.5801,-1.5801,-1.5801,-1.5801,-1.5801,-1.5801,-1.5801,-1.5801,-1.5801,-1.5832,-1.595,-1.617,-1.6224,-1.639,-1.6588,-1.6612,-1.6612,-1.6676,-1.6902,-1.6871,-1.6683,-1.6636,-1.6494,-1.6241,-1.6177,-1.6052,-1.5849,-1.5801,-1.5801,-1.5801,-1.5801,-1.5801,-1.5801,-1.5801,-1.5801,-1.5801,-1.5801,-1.5801,-1.5801,-1.5801,-1.5801,-1.5801,-1.5801,-1.5801,-1.5801,-1.5801,-1.5801,-1.5801,-1.5801,-1.5801,-1.5801,-1.5801,-1.5801,-1.5855,-1.6099,-1.6264,-1.6451,-1.6884,-1.7179,-1.7254,-1.7461,-1.7615,-1.7615,-1.7615,-1.7615,-1.7615,-1.7615,-1.7615,-1.7615,-1.7615,-1.7615,-1.7615,-1.7615,-1.7695,-1.7922,-1.8076,-1.8262,-1.8703,-1.8923,-1.9078,-1.9328,-1.9395,-1.9395,-1.9395,-1.9395,-1.9395,-1.9395,-1.9395,-1.9395,-1.9395,-1.9366,-1.9185,-1.9017,-1.8949,-1.8972,-1.8868,-1.8779,-1.8803,-1.8783,-1.8815,-1.8723,-1.8818,-1.8722,-1.8497,-1.8095,-1.8016,-1.7781,-1.7233,-1.671,-1.6418,-1.6707,-1.6633,-1.6048,-1.5801,-1.5801,-1.5801,-1.5801,-1.5801,-1.5801,-1.5801,-1.5801,-1.5801,-1.5801,-1.5849,-1.5974,-1.6211,-1.6471,-1.6673,-1.6815,-1.6869,-1.6862,-1.6949,-1.7075,-1.7169,-1.7169,-1.7082,-1.6941,-1.6737,-1.6478,-1.6289,-1.6076,-1.5855,-1.5801,-1.5801,-1.5801,-1.5801,-1.5801,-1.5801,-1.5801,-1.5801,-1.5801,-1.5801,-1.5801,-1.5801,-1.5801,-1.5801,-1.5801,-1.5801,-1.5801,-1.5801,-1.5801,-1.5801,-1.5801,-1.5801,-1.5801,-1.5801,-1.5801,-1.5915,-1.6112,-1.6233,-1.6498,-1.6844,-1.7112,-1.73,-1.7441,-1.7548,-1.7615,-1.7615,-1.7615,-1.7615,-1.7615,-1.7615,-1.7615,-1.7615,-1.7615,-1.7615,-1.7615,-1.7615,-1.7622,-1.7729,-1.7882,-1.8183,-1.8523,-1.8764,-1.9018,-1.9334,-1.9395,-1.9395,-1.9395,-1.9395,-1.9395,-1.9395,-1.9395,-1.9395,-1.9395,-1.9395,-1.9307,-1.9214,-1.9156,-1.912,-1.9021,-1.8936,-1.8914,-1.8929,-1.8967,-1.9066,-1.9175,-1.911,-1.8885,-1.8762,-1.8579,-1.8238,-1.7781,-1.7421,-1.7098,-1.6707,-1.664,-1.6048,-1.5801,-1.5801,-1.5801,-1.5801,-1.5801,-1.5801,-1.5801,-1.5801,-1.5801,-1.5855,-1.5974,-1.6123,-1.6407,-1.6767,-1.7023,-1.7222,-1.7257,-1.7142,-1.7176,-1.7309,-1.7309,-1.7309,-1.7286,-1.7176,-1.6941,-1.6612,-1.643,-1.617,-1.5849,-1.5801,-1.5801,-1.5801,-1.5801,-1.5801,-1.5801,-1.5801,-1.5801,-1.5801,-1.5801,-1.5801,-1.5801,-1.5801,-1.5801,-1.5801,-1.5801,-1.5801,-1.5801,-1.5801,-1.5801,-1.5801,-1.5801,-1.5801,-1.5821,-1.5921,-1.6086,-1.6297,-1.6518,-1.6784,-1.7139,-1.73,-1.7401,-1.7575,-1.7615,-1.7615,-1.7615,-1.7615,-1.7615,-1.7615,-1.7615,-1.7615,-1.7615,-1.7615,-1.7615,-1.7615,-1.7615,-1.7615,-1.7668,-1.7749,-1.8056,-1.8417,-1.8624,-1.8945,-1.9274,-1.9395,-1.9395,-1.9395,-1.9395,-1.9395,-1.9395,-1.9395,-1.9395,-1.9395,-1.9395,-1.9395,-1.9366,-1.9366,-1.9336,-1.9263,-1.9182,-1.9163,-1.9132,-1.9164,-1.9283,-1.9381,-1.9393,-1.928,-1.9195,-1.9168,-1.8848,-1.8457,-1.8077,-1.7723,-1.6707,-1.6602,-1.6048,-1.5801,-1.5801,-1.5801,-1.5801,-1.5801,-1.5801,-1.5801,-1.5801,-1.5801,-1.5957,-1.6147,-1.6289,-1.6608,-1.6994,-1.7368,-1.7659,-1.7748,-1.7604,-1.751,-1.7541,-1.749,-1.7444,-1.7375,-1.7308,-1.7028,-1.6612,-1.6558,-1.6322,-1.5855,-1.5801,-1.5801,-1.5801,-1.5801,-1.5801,-1.5801,-1.5801,-1.5801,-1.5801,-1.5801,-1.5801,-1.5801,-1.5801,-1.5801,-1.5801,-1.5801,-1.5801,-1.5801,-1.5801,-1.5801,-1.5801,-1.5801,-1.5801,-1.5821,-1.6099,-1.627,-1.6431,-1.6799,-1.7166,-1.7259,-1.7441,-1.7615,-1.7608,-1.7615,-1.7615,-1.7615,-1.7615,-1.7615,-1.7615,-1.7615,-1.7615,-1.7615,-1.7615,-1.7615,-1.7615,-1.7615,-1.7615,-1.7615,-1.7648,-1.7842,-1.839,-1.851,-1.8804,-1.9227,-1.9395,-1.9395,-1.9395,-1.9395,-1.9395,-1.9395,-1.9395,-1.9395,-1.9395,-1.9395,-1.9395,-1.9395,-1.9395,-1.9395,-1.9395,-1.9366,-1.9307,-1.93,-1.9338,-1.9462,-1.9598,-1.9636,-1.9775,-1.9871,-1.9737,-1.9482,-1.913,-1.8655,-1.8276,-1.6707,-1.664,-1.6048,-1.5801,-1.5801,-1.5801,-1.5801,-1.5801,-1.5801,-1.5801,-1.5801,-1.5801,-1.5957,-1.6221,-1.6673,-1.7028,-1.737,-1.7833,-1.8223,-1.8422,-1.8379,-1.8327,-1.8268,-1.8074,-1.7851,-1.7662,-1.7425,-1.7052,-1.6636,-1.6595,-1.6329,-1.5825,-1.5801,-1.5801,-1.5801,-1.5801,-1.5801,-1.5801,-1.5801,-1.5801,-1.5801,-1.5801,-1.5801,-1.5801,-1.5801,-1.5801,-1.5801,-1.5801,-1.5801,-1.5801,-1.5801,-1.5801,-1.5801,-1.5801,-1.5815,-1.5875,-1.6119,-1.6411,-1.6645,-1.6973,-1.726,-1.7468,-1.7555,-1.7608,-1.7615,-1.7615,-1.7615,-1.7615,-1.7615,-1.7615,-1.7615,-1.7615,-1.7615,-1.7615,-1.7615,-1.7615,-1.7615,-1.7615,-1.7615,-1.7615,-1.7615,-1.7909,-1.8324,-1.8524,-1.8759,-1.9227,-1.9395,-1.9395,-1.9395,-1.9395,-1.9395,-1.9395,-1.9395,-1.9395,-1.9395,-1.9395,-1.9395,-1.9395,-1.9395,-1.9395,-1.9395,-1.9395,-1.9395,-1.9392,-1.9441,-1.9546,-1.974,-1.9894,-2.0141,-2.0417,-2.0183,-1.9877,-1.952,-1.9136,-1.879,-1.6707,-1.6628,-1.6048,-1.5801,-1.5801,-1.5801,-1.5801,-1.5801,-1.5801,-1.5801,-1.5801,-1.5801,-1.6096,-1.659,-1.6949,-1.7346,-1.7813,-1.8283,-1.8646,-1.8942,-1.9287,-1.9164,-1.8782,-1.8461,-1.828,-1.8001,-1.7691,-1.7275,-1.6852,-1.6682,-1.6305,-1.5896,-1.5801,-1.5801,-1.5801,-1.5801,-1.5801,-1.5801,-1.5801,-1.5801,-1.5801,-1.5801,-1.5801,-1.5801,-1.5801,-1.5801,-1.5801,-1.5801,-1.5801,-1.5801,-1.5801,-1.5801,-1.5801,-1.5801,-1.5861,-1.5981,-1.6293,-1.6611,-1.6899,-1.7187,-1.7421,-1.7568,-1.7615,-1.7615,-1.7615,-1.7615,-1.7615,-1.7615,-1.7615,-1.7615,-1.7615,-1.7615,-1.7615,-1.7615,-1.7615,-1.7615,-1.7615,-1.7615,-1.7615,-1.7615,-1.7642,-1.7836,-1.8431,-1.8484,-1.8826,-1.9214,-1.9395,-1.9395,-1.9395,-1.9395,-1.9395,-1.9395,-1.9395,-1.9395,-1.9395,-1.9395,-1.9395,-1.9395,-1.9395,-1.9395,-1.9395,-1.9395,-1.9395,-1.9415,-1.9502,-1.9653,-1.988,-2.0151,-2.0464,-2.0585,-2.0423,-2.0259,-1.9966,-1.9616,-1.927,-1.6707,-1.6653,-1.6072,-1.5801,-1.5801,-1.5801,-1.5801,-1.5801,-1.5801,-1.5801,-1.5801,-1.5801,-1.6266,-1.7075,-1.7162,-1.7586,-1.8347,-1.8694,-1.8981,-1.9382,-1.9801,-1.9776,-1.8975,-1.8897,-1.8654,-1.8348,-1.7996,-1.7599,-1.7175,-1.6829,-1.6381,-1.5994,-1.5848,-1.5801,-1.5801,-1.5801,-1.5801,-1.5801,-1.5801,-1.5801,-1.5801,-1.5801,-1.5801,-1.5801,-1.5801,-1.5801,-1.5801,-1.5801,-1.5801,-1.5801,-1.5801,-1.5801,-1.5808,-1.5815,-1.5992,-1.6259,-1.6571,-1.6892,-1.7172,-1.7394,-1.7588,-1.7615,-1.7615,-1.7615,-1.7615,-1.7615,-1.7615,-1.7615,-1.7615,-1.7615,-1.7615,-1.7615,-1.7615,-1.7615,-1.7615,-1.7615,-1.7615,-1.7615,-1.7615,-1.7622,-1.7628,-1.7923,-1.8277,-1.8592,-1.8779,-1.9267,-1.9395,-1.9395,-1.9395,-1.9395,-1.9395,-1.9395,-1.9395,-1.9395,-1.9395,-1.9395,-1.9395,-1.9395,-1.9395,-1.9395,-1.9395,-1.9395,-1.9395,-1.9435,-1.9562,-1.9773,-2.0053,-2.038,-2.0693,-2.0823,-2.0741,-2.0672,-2.0513,-2.0125,-1.9749,-1.6707,-1.6653,-1.6048,-1.5801,-1.5801,-1.5801,-1.5801,-1.5801,-1.5801,-1.5801,-1.5808,-1.5808,-1.63,-1.7127,-1.739,-1.7932,-1.8651,-1.9019,-1.9343,-1.9642,-1.9955,-1.9937,-1.949,-1.9386,-1.9122,-1.8706,-1.835,-1.7933,-1.7461,-1.7103,-1.6711,-1.6232,-1.5975,-1.5815,-1.5841,-1.5855,-1.5808,-1.5801,-1.5808,-1.5801,-1.5801,-1.5801,-1.5801,-1.5801,-1.5801,-1.5801,-1.5801,-1.5801,-1.5801,-1.5801,-1.5801,-1.5801,-1.5835,-1.6039,-1.6192,-1.6397,-1.6817,-1.7125,-1.7246,-1.7441,-1.7615,-1.7615,-1.7615,-1.7615,-1.7615,-1.7615,-1.7615,-1.7615,-1.7615,-1.7615,-1.7615,-1.7615,-1.7615,-1.7615,-1.7615,-1.7615,-1.7615,-1.7615,-1.7615,-1.7642,-1.7802,-1.8056,-1.8444,-1.8704,-1.8951,-1.9314,-1.9395,-1.9395,-1.9395,-1.9395,-1.9395,-1.9395,-1.9395,-1.9395,-1.9395,-1.9395,-1.9395,-1.9395,-1.9395,-1.9395,-1.9395,-1.9395,-1.9395,-1.9495,-1.9613,-1.987,-2.0177,-2.0484,-2.0791,-2.0913,-2.1014,-2.0887,-2.0704,-2.0443,-2.0125,-1.6707,-1.6622,-1.6048,-1.5801,-1.5801,-1.5801,-1.5801,-1.5801,-1.5801,-1.5801,-1.5841,-1.5959,-1.6424,-1.7109,-1.7589,-1.8177,-1.8814,-1.9313,-1.955,-1.9724,-1.9957,-1.9957,-1.9742,-1.9633,-1.9426,-1.9016,-1.8567,-1.8121,-1.7746,-1.7318,-1.6874,-1.6522,-1.6299,-1.6286,-1.6175,-1.6106,-1.6059,-1.6012,-1.5868,-1.5801,-1.5801,-1.5801,-1.5801,-1.5801,-1.5801,-1.5801,-1.5801,-1.5801,-1.5801,-1.5801,-1.5808,-1.5808,-1.5855,-1.6136,-1.6337,-1.6558,-1.6918,-1.7273,-1.7414,-1.7508,-1.7615,-1.7615,-1.7615,-1.7615,-1.7615,-1.7615,-1.7615,-1.7615,-1.7615,-1.7615,-1.7615,-1.7615,-1.7615,-1.7615,-1.7615,-1.7615,-1.7615,-1.7615,-1.7662,-1.7769,-1.7916,-1.8236,-1.8543,-1.881,-1.9045,-1.9341,-1.9395,-1.9395,-1.9395,-1.9395,-1.9395,-1.9395,-1.9395,-1.9395,-1.9395,-1.9395,-1.9395,-1.9395,-1.9395,-1.9395,-1.9395,-1.9395,-1.9395,-1.9528,-1.9646,-1.993,-2.0244,-2.0581,-2.0855,-2.0977,-2.1046,-2.0982,-2.0862,-2.0634,-2.0354,-1.6707,-1.666,-1.6055,-1.5801,-1.5801,-1.5801,-1.5801,-1.5801,-1.5801,-1.5801,-1.5861,-1.6146,-1.6565,-1.7145,-1.7712,-1.8348,-1.8939,-1.9335,-1.9576,-1.9628,-1.9783,-1.9776,-1.9613,-1.9546,-1.9435,-1.9216,-1.8751,-1.834,-1.7993,-1.7512,-1.7095,-1.6811,-1.6693,-1.6613,-1.6607,-1.648,-1.6339,-1.6313,-1.6152,-1.6021,-1.6015,-1.6008,-1.6008,-1.6015,-1.6021,-1.6021,-1.6028,-1.6015,-1.5981,-1.5941,-1.5941,-1.5935,-1.5995,-1.6179,-1.6491,-1.676,-1.7107,-1.7373,-1.7515,-1.7595,-1.7615,-1.7615,-1.7615,-1.7615,-1.7615,-1.7615,-1.7615,-1.7615,-1.7615,-1.7615,-1.7615,-1.7615,-1.7615,-1.7615,-1.7615,-1.7609,-1.7649,-1.7649,-1.7802,-1.7949,-1.8183,-1.8503,-1.873,-1.8991,-1.9187,-1.9328,-1.9368,-1.9395,-1.9395,-1.9395,-1.9395,-1.9395,-1.9395,-1.9395,-1.9395,-1.9395,-1.9395,-1.9395,-1.9395,-1.9395,-1.9395,-1.9395,-1.9421,-1.9548,-1.9713,-1.9997,-2.033,-2.0664,-2.0922,-2.1024,-2.1071,-2.1046,-2.0951,-2.0824,-2.0545,-1.6707,-1.6653,-1.6048,-1.5801,-1.5801,-1.5801,-1.5801,-1.5801,-1.5801,-1.5801,-1.5848,-1.617,-1.6608,-1.7141,-1.7733,-1.8451,-1.9046,-1.935,-1.9402,-1.9402,-1.948,-1.9428,-1.9428,-1.935,-1.9227,-1.9018,-1.8757,-1.854,-1.8228,-1.7783,-1.7357,-1.7104,-1.6867,-1.676,-1.6767,-1.6628,-1.6658,-1.6652,-1.6513,-1.6442,-1.6442,-1.6448,-1.6442,-1.6442,-1.6428,-1.6448,-1.6506,-1.6508,-1.6535,-1.656,-1.6535,-1.6522,-1.654,-1.6593,-1.6767,-1.7046,-1.7327,-1.7535,-1.7602,-1.7615,-1.7615,-1.7615,-1.7615,-1.7615,-1.7615,-1.7615,-1.7615,-1.7615,-1.7615,-1.7615,-1.7615,-1.7615,-1.7615,-1.7615,-1.7629,-1.7695,-1.7849,-1.7969,-1.8002,-1.8129,-1.8435,-1.875,-1.8965,-1.9118,-1.9267,-1.9354,-1.9374,-1.9395,-1.9395,-1.9395,-1.9395,-1.9395,-1.9395,-1.9395,-1.9395,-1.9395,-1.9395,-1.9395,-1.9395,-1.9395,-1.9395,-1.9395,-1.9455,-1.9528,-1.976,-2.009,-2.0424,-2.0744,-2.0931,-2.1089,-2.1102,-2.1102,-2.1007,-2.0919,-2.0792,-1.6613,-1.6458,-1.5981,-1.5801,-1.5801,-1.5801,-1.5801,-1.5801,-1.5801,-1.5801,-1.5941,-1.6286,-1.6641,-1.7034,-1.769,-1.8407,-1.8949,-1.9253,-1.9279,-1.9298,-1.9298,-1.9298,-1.9253,-1.9175,-1.9026,-1.8843,-1.8608,-1.8391,-1.8187,-1.7795,-1.755,-1.7433,-1.724,-1.7161,-1.7114,-1.7046,-1.6979,-1.6939,-1.68,-1.672,-1.672,-1.672,-1.672,-1.6714,-1.672,-1.6707,-1.6707,-1.6707,-1.6675,-1.6693,-1.67,-1.6794,-1.6887,-1.6979,-1.702,-1.7233,-1.7448,-1.7615,-1.7615,-1.7615,-1.7615,-1.7615,-1.7615,-1.7615,-1.7615,-1.7615,-1.7615,-1.7615,-1.7615,-1.7615,-1.7615,-1.7622,-1.7615,-1.7642,-1.7716,-1.7862,-1.8042,-1.8262,-1.8362,-1.8408,-1.8663,-1.8916,-1.9145,-1.9294,-1.9368,-1.9395,-1.9395,-1.9395,-1.9395,-1.9395,-1.9395,-1.9395,-1.9395,-1.9395,-1.9395,-1.9395,-1.9395,-1.9395,-1.9395,-1.9395,-1.9395,-1.9395,-1.9395,-1.9428,-1.9746,-2.017,-2.0397,-2.0664,-2.0871,-2.1102,-2.1102,-2.1102,-2.1102,-2.1039,-2.0887,-1.6558,-1.6277,-1.5952,-1.5801,-1.5801,-1.5801,-1.5801,-1.5801,-1.5801,-1.5801,-1.5888,-1.6406,-1.6687,-1.6936,-1.7565,-1.8305,-1.881,-1.9011,-1.9063,-1.9063,-1.9063,-1.9089,-1.9037,-1.894,-1.8738,-1.8555,-1.8312,-1.8016,-1.799,-1.7746,-1.7628,-1.7568,-1.7595,-1.7608,-1.7521,-1.7341,-1.728,-1.7187,-1.7053,-1.6887,-1.6881,-1.6881,-1.6887,-1.6881,-1.6887,-1.6914,-1.6954,-1.6961,-1.6954,-1.6947,-1.6947,-1.7007,-1.7214,-1.7286,-1.7286,-1.7294,-1.7481,-1.7582,-1.7615,-1.7615,-1.7615,-1.7615,-1.7615,-1.7615,-1.7615,-1.7615,-1.7615,-1.7615,-1.7615,-1.7615,-1.7622,-1.7675,-1.7689,-1.7756,-1.7956,-1.8163,-1.8336,-1.8556,-1.8803,-1.8876,-1.8963,-1.9092,-1.9294,-1.9341,-1.9388,-1.9395,-1.9395,-1.9395,-1.9395,-1.9395,-1.9395,-1.9395,-1.9395,-1.9395,-1.9395,-1.9395,-1.9395,-1.9395,-1.9395,-1.9395,-1.9395,-1.9395,-1.9401,-1.9435,-1.9853,-2.0237,-2.0417,-2.0624,-2.0904,-2.1102,-2.1102,-2.1102,-2.1102,-2.1071,-2.1014,-1.6533,-1.627,-1.5952,-1.5801,-1.5801,-1.5801,-1.5801,-1.5801,-1.5801,-1.5801,-1.5875,-1.6426,-1.6714,-1.6945,-1.7601,-1.8153,-1.8403,-1.856,-1.8605,-1.8639,-1.8605,-1.8605,-1.856,-1.8482,-1.8358,-1.8233,-1.8069,-1.8016,-1.7905,-1.7694,-1.7615,-1.7615,-1.7615,-1.7615,-1.7602,-1.7528,-1.7561,-1.7541,-1.7501,-1.7468,-1.7435,-1.7448,-1.7422,-1.7428,-1.7422,-1.7402,-1.7368,-1.7394,-1.7388,-1.7415,-1.7468,-1.7508,-1.7528,-1.7555,-1.7555,-1.7561,-1.7588,-1.7615,-1.7615,-1.7615,-1.7615,-1.7615,-1.7615,-1.7615,-1.7615,-1.7615,-1.7615,-1.7615,-1.7628,-1.7655,-1.7695,-1.7856,-1.7922,-1.8063,-1.825,-1.8524,-1.8703,-1.8783,-1.9065,-1.9158,-1.9185,-1.9267,-1.9374,-1.9388,-1.9395,-1.9395,-1.9395,-1.9395,-1.9395,-1.9395,-1.9395,-1.9395,-1.9395,-1.9395,-1.9395,-1.9395,-1.9395,-1.9395,-1.9395,-1.9395,-1.9395,-1.9401,-1.9428,-1.9568,-1.9973,-2.025,-2.041,-2.065,-2.0989,-2.1102,-2.1102,-2.1102,-2.1102,-2.1071,-2.1077,-1.6286,-1.6012,-1.5855,-1.5801,-1.5801,-1.5801,-1.5801,-1.5801,-1.5801,-1.5901,-1.6132,-1.6482,-1.6874,-1.7239,-1.7804,-1.8036,-1.8174,-1.8318,-1.8396,-1.837,-1.837,-1.8396,-1.8377,-1.8246,-1.8069,-1.799,-1.7852,-1.7747,-1.7714,-1.7694,-1.7615,-1.7615,-1.7615,-1.7615,-1.7615,-1.7615,-1.7608,-1.7602,-1.7602,-1.7608,-1.7615,-1.7615,-1.7615,-1.7615,-1.7615,-1.7615,-1.7615,-1.7615,-1.7615,-1.7615,-1.7615,-1.7615,-1.7608,-1.7608,-1.7608,-1.7608,-1.7608,-1.7615,-1.7615,-1.7615,-1.7615,-1.7615,-1.7615,-1.7615,-1.7615,-1.7622,-1.7622,-1.7615,-1.7756,-1.7829,-1.7889,-1.8123,-1.8216,-1.8356,-1.8564,-1.8718,-1.8945,-1.9112,-1.9274,-1.9348,-1.9395,-1.9395,-1.9395,-1.9395,-1.9395,-1.9395,-1.9395,-1.9395,-1.9395,-1.9395,-1.9395,-1.9395,-1.9395,-1.9395,-1.9395,-1.9395,-1.9395,-1.9395,-1.9395,-1.9395,-1.9395,-1.9408,-1.9448,-1.9613,-2.0,-2.0254,-2.0434,-2.0728,-2.1056,-2.1102,-2.1102,-2.1102,-2.1102,-2.1071,-2.0982,-1.6099,-1.5808,-1.5801,-1.5801,-1.5801,-1.5801,-1.5801,-1.5801,-1.5801,-1.5992,-1.6344,-1.666,-1.7114,-1.7534,-1.7786,-1.7885,-1.7905,-1.8108,-1.8187,-1.8187,-1.8187,-1.816,-1.8082,-1.7983,-1.7885,-1.7885,-1.7714,-1.7635,-1.7641,-1.7615,-1.7615,-1.7615,-1.7615,-1.7615,-1.7615,-1.7615,-1.7615,-1.7615,-1.7615,-1.7615,-1.7615,-1.7615,-1.7615,-1.7615,-1.7615,-1.7615,-1.7615,-1.7615,-1.7615,-1.7615,-1.7615,-1.7615,-1.7615,-1.7615,-1.7615,-1.7615,-1.7615,-1.7615,-1.7615,-1.7615,-1.7615,-1.7615,-1.7615,-1.7615,-1.7622,-1.7615,-1.7695,-1.7742,-1.7996,-1.8123,-1.8189,-1.8417,-1.8557,-1.8663,-1.8851,-1.8951,-1.9052,-1.9234,-1.9334,-1.9368,-1.9395,-1.9395,-1.9395,-1.9395,-1.9395,-1.9395,-1.9395,-1.9395,-1.9395,-1.9395,-1.9395,-1.9395,-1.9395,-1.9395,-1.9395,-1.9395,-1.9395,-1.9395,-1.9395,-1.9395,-1.9395,-1.9441,-1.9495,-1.9733,-2.006,-2.0301,-2.0521,-2.0828,-2.1102,-2.1102,-2.1102,-2.1102,-2.1102,-2.1102,-2.0887,-1.6099,-1.5801,-1.5801,-1.5801,-1.5801,-1.5801,-1.5801,-1.5801,-1.5801,-1.6012,-1.6397,-1.6904,-1.7314,-1.7568,-1.7641,-1.7668,-1.7641,-1.7635,-1.7714,-1.7714,-1.7661,-1.774,-1.774,-1.7714,-1.7661,-1.7668,-1.7608,-1.7608,-1.7615,-1.7615,-1.7615,-1.7615,-1.7615,-1.7615,-1.7615,-1.7615,-1.7615,-1.7615,-1.7615,-1.7615,-1.7615,-1.7615,-1.7615,-1.7615,-1.7615,-1.7615,-1.7615,-1.7615,-1.7615,-1.7615,-1.7615,-1.7615,-1.7615,-1.7615,-1.7615,-1.7615,-1.7615,-1.7615,-1.7615,-1.7615,-1.7615,-1.7615,-1.7615,-1.7635,-1.7669,-1.7849,-1.7949,-1.8002,-1.829,-1.843,-1.8537,-1.8691,-1.8871,-1.8958,-1.9078,-1.9194,-1.9254,-1.9294,-1.9381,-1.9388,-1.9395,-1.9395,-1.9395,-1.9395,-1.9395,-1.9395,-1.9395,-1.9395,-1.9395,-1.9395,-1.9395,-1.9395,-1.9395,-1.9395,-1.9395,-1.9395,-1.9395,-1.9395,-1.9395,-1.9395,-1.9395,-1.9461,-1.9595,-1.984,-2.0154,-2.0388,-2.0621,-2.0902,-2.1096,-2.1102,-2.1102,-2.1102,-2.1102,-2.1102,-2.0761,-1.6099,-1.5808,-1.5801,-1.5801,-1.5801,-1.5801,-1.5801,-1.5801,-1.5808,-1.6082,-1.6573,-1.7167,-1.7501,-1.7588,-1.7615,-1.7615,-1.7615,-1.7615,-1.7615,-1.7615,-1.7615,-1.7615,-1.7615,-1.7615,-1.7615,-1.7615,-1.7615,-1.7615,-1.7615,-1.7615,-1.7615,-1.7615,-1.7615,-1.7615,-1.7615,-1.7615,-1.7615,-1.7615,-1.7615,-1.7615,-1.7615,-1.7615,-1.7615,-1.7615,-1.7615,-1.7615,-1.7615,-1.7615,-1.7615,-1.7615,-1.7615,-1.7615,-1.7615,-1.7615,-1.7615,-1.7615,-1.7615,-1.7615,-1.7615,-1.7615,-1.7615,-1.7615,-1.7622,-1.7655,-1.7782,-1.7976,-1.8129,-1.8296,-1.8584,-1.8744,-1.8763,-1.9005,-1.9205,-1.9261,-1.9301,-1.9368,-1.9395,-1.9395,-1.9395,-1.9395,-1.9395,-1.9395,-1.9395,-1.9395,-1.9395,-1.9395,-1.9395,-1.9395,-1.9395,-1.9395,-1.9395,-1.9395,-1.9395,-1.9395,-1.9395,-1.9395,-1.9395,-1.9395,-1.9395,-1.9428,-1.9461,-1.9635,-1.9766,-2.002,-2.0287,-2.0568,-2.0808,-2.0995,-2.1089,-2.1102,-2.1102,-2.1102,-2.1102,-2.1102,-2.0697,-1.6099,-1.5815,-1.5801,-1.5801,-1.5801,-1.5801,-1.5801,-1.5821,-1.5908,-1.6293,-1.6867,-1.7388,-1.7615,-1.7615,-1.7615,-1.7615,-1.7615,-1.7615,-1.7615,-1.7615,-1.7615,-1.7615,-1.7615,-1.7615,-1.7615,-1.7615,-1.7615,-1.7615,-1.7615,-1.7615,-1.7615,-1.7615,-1.7615,-1.7615,-1.7615,-1.7615,-1.7615,-1.7615,-1.7615,-1.7615,-1.7615,-1.7615,-1.7615,-1.7615,-1.7615,-1.7615,-1.7615,-1.7615,-1.7615,-1.7615,-1.7615,-1.7615,-1.7615,-1.7615,-1.7615,-1.7615,-1.7615,-1.7615,-1.7615,-1.7615,-1.7615,-1.7615,-1.7722,-1.7816,-1.7969,-1.8163,-1.8456,-1.8611,-1.885,-1.9023,-1.9052,-1.9232,-1.9348,-1.9341,-1.9341,-1.9395,-1.9395,-1.9395,-1.9395,-1.9395,-1.9395,-1.9395,-1.9395,-1.9395,-1.9395,-1.9395,-1.9395,-1.9395,-1.9395,-1.9395,-1.9395,-1.9395,-1.9395,-1.9395,-1.9395,-1.9395,-1.9395,-1.9395,-1.9415,-1.9495,-1.9575,-1.972,-1.9993,-2.0301,-2.0561,-2.0802,-2.0949,-2.1069,-2.1096,-2.1102,-2.1102,-2.1102,-2.1102,-2.1039,-2.0736,-1.6126,-1.5815,-1.5828,-1.5835,-1.5861,-1.5808,-1.5815,-1.5895,-1.6217,-1.6618,-1.7127,-1.7474,-1.7615,-1.7615,-1.7615,-1.7615,-1.7615,-1.7615,-1.7615,-1.7615,-1.7615,-1.7615,-1.7615,-1.7615,-1.7615,-1.7615,-1.7615,-1.7615,-1.7615,-1.7615,-1.7615,-1.7615,-1.7615,-1.7615,-1.7615,-1.7615,-1.7615,-1.7615,-1.7615,-1.7615,-1.7615,-1.7615,-1.7615,-1.7615,-1.7615,-1.7615,-1.7615,-1.7615,-1.7615,-1.7615,-1.7615,-1.7615,-1.7615,-1.7615,-1.7615,-1.7615,-1.7615,-1.7615,-1.7622,-1.7628,-1.7689,-1.7709,-1.7856,-1.8063,-1.8176,-1.8463,-1.881,-1.8918,-1.9145,-1.9321,-1.9368,-1.9381,-1.9395,-1.9395,-1.9395,-1.9395,-1.9395,-1.9395,-1.9395,-1.9395,-1.9395,-1.9395,-1.9395,-1.9395,-1.9395,-1.9395,-1.9395,-1.9395,-1.9395,-1.9395,-1.9395,-1.9395,-1.9395,-1.9395,-1.9395,-1.9395,-1.9395,-1.9395,-1.9435,-1.9508,-1.9633,-1.9826,-2.014,-2.0528,-2.0748,-2.0915,-2.1009,-2.1102,-2.1102,-2.1102,-2.1102,-2.1102,-2.1102,-2.1014,-2.0704,-1.6705,-1.6388,-1.6413,-1.6406,-1.6328,-1.5961,-1.5915,-1.6186,-1.6645,-1.7018,-1.7233,-1.7481,-1.7615,-1.7615,-1.7615,-1.7615,-1.7615,-1.7615,-1.7615,-1.7615,-1.7615,-1.7615,-1.7615,-1.7615,-1.7615,-1.7615,-1.7615,-1.7615,-1.7615,-1.7615,-1.7615,-1.7615,-1.7615,-1.7615,-1.7615,-1.7615,-1.7615,-1.7615,-1.7615,-1.7615,-1.7615,-1.7615,-1.7615,-1.7615,-1.7615,-1.7615,-1.7615,-1.7615,-1.7615,-1.7615,-1.7615,-1.7615,-1.7615,-1.7615,-1.7615,-1.7615,-1.7622,-1.7695,-1.7876,-1.8002,-1.8056,-1.8049,-1.8156,-1.8389,-1.8603,-1.8736,-1.897,-1.9158,-1.9308,-1.9395,-1.9395,-1.9395,-1.9395,-1.9395,-1.9395,-1.9395,-1.9395,-1.9395,-1.9395,-1.9395,-1.9395,-1.9395,-1.9395,-1.9395,-1.9395,-1.9395,-1.9395,-1.9395,-1.9395,-1.9395,-1.9395,-1.9395,-1.9395,-1.9395,-1.9395,-1.9395,-1.9395,-1.9395,-1.9441,-1.9522,-1.9673,-1.9953,-2.0267,-2.0655,-2.0835,-2.1002,-2.1056,-2.1102,-2.1102,-2.1102,-2.1102,-2.1102,-2.1102,-2.0982,-2.0799,-1.6999,-1.6714,-1.6707,-1.6707,-1.6647,-1.6268,-1.6306,-1.6638,-1.7038,-1.7253,-1.7361,-1.7535,-1.7615,-1.7615,-1.7615,-1.7615,-1.7615,-1.7615,-1.7615,-1.7615,-1.7615,-1.7615,-1.7615,-1.7615,-1.7615,-1.7615,-1.7615,-1.7615,-1.7615,-1.7615,-1.7615,-1.7615,-1.7615,-1.7615,-1.7615,-1.7615,-1.7615,-1.7615,-1.7615,-1.7615,-1.7615,-1.7615,-1.7615,-1.7615,-1.7615,-1.7615,-1.7615,-1.7615,-1.7615,-1.7615,-1.7615,-1.7615,-1.7615,-1.7615,-1.7615,-1.7615,-1.7722,-1.7856,-1.8149,-1.8436,-1.8456,-1.8389,-1.8557,-1.8718,-1.889,-1.899,-1.9158,-1.9321,-1.9388,-1.9395,-1.9395,-1.9395,-1.9395,-1.9395,-1.9395,-1.9395,-1.9395,-1.9395,-1.9395,-1.9395,-1.9395,-1.9395,-1.9395,-1.9395,-1.9395,-1.9395,-1.9395,-1.9395,-1.9395,-1.9395,-1.9395,-1.9395,-1.9395,-1.9395,-1.9395,-1.9395,-1.9395,-1.9395,-1.9515,-1.9626,-1.9907,-2.0214,-2.0494,-2.0742,-2.0922,-2.1056,-2.1076,-2.1102,-2.1102,-2.1102,-2.1102,-2.1102,-2.1102,-2.0982,-2.0862,-1.7026,-1.6747,-1.6734,-1.6735,-1.674,-1.674,-1.6887,-1.7186,-1.7213,-1.738,-1.7595,-1.7595,-1.7615,-1.7615,-1.7615,-1.7615,-1.7615,-1.7615,-1.7615,-1.7615,-1.7615,-1.7615,-1.7615,-1.7615,-1.7615,-1.7615,-1.7615,-1.7615,-1.7615,-1.7615,-1.7615,-1.7615,-1.7615,-1.7615,-1.7615,-1.7615,-1.7615,-1.7615,-1.7615,-1.7615,-1.7615,-1.7615,-1.7615,-1.7615,-1.7615,-1.7615,-1.7615,-1.7615,-1.7615,-1.7615,-1.7615,-1.7615,-1.7615,-1.7595,-1.7628,-1.7716,-1.7922,-1.8216,-1.8456,-1.8771,-1.8905,-1.883,-1.8876,-1.8916,-1.9018,-1.9178,-1.9314,-1.9368,-1.9395,-1.9395,-1.9395,-1.9395,-1.9395,-1.9395,-1.9395,-1.9395,-1.9395,-1.9395,-1.9395,-1.9395,-1.9395,-1.9395,-1.9395,-1.9395,-1.9395,-1.9395,-1.9395,-1.9395,-1.9395,-1.9395,-1.9395,-1.9395,-1.9395,-1.9395,-1.9408,-1.9455,-1.9522,-1.9555,-1.974,-1.9913,-2.0201,-2.0441,-2.0661,-2.0862,-2.1015,-2.1102,-2.1102,-2.1102,-2.1102,-2.1102,-2.1102,-2.1102,-2.1102,-2.1077,-2.0957,-1.7434,-1.7354,-1.7354,-1.7335,-1.7328,-1.7354,-1.7294,-1.7239,-1.7414,-1.7548,-1.7615,-1.7615,-1.7615,-1.7615,-1.7615,-1.7615,-1.7615,-1.7615,-1.7615,-1.7615,-1.7615,-1.7615,-1.7615,-1.7615,-1.7615,-1.7615,-1.7615,-1.7615,-1.7615,-1.7615,-1.7615,-1.7615,-1.7615,-1.7615,-1.7615,-1.7615,-1.7615,-1.7615,-1.7615,-1.7615,-1.7615,-1.7615,-1.7615,-1.7615,-1.7615,-1.7615,-1.7615,-1.7615,-1.7615,-1.7615,-1.7615,-1.7615,-1.7615,-1.7789,-1.7936,-1.825,-1.8497,-1.871,-1.8803,-1.9072,-1.9254,-1.9234,-1.9212,-1.9239,-1.9301,-1.9328,-1.9395,-1.9395,-1.9395,-1.9395,-1.9395,-1.9395,-1.9395,-1.9395,-1.9395,-1.9395,-1.9395,-1.9395,-1.9395,-1.9395,-1.9395,-1.9395,-1.9395,-1.9395,-1.9395,-1.9395,-1.9401,-1.9408,-1.9408,-1.9415,-1.9395,-1.9395,-1.9468,-1.9488,-1.9535,-1.9589,-1.9633,-1.9726,-1.9953,-2.018,-2.0421,-2.0672,-2.0822,-2.0955,-2.1069,-2.1102,-2.1102,-2.1102,-2.1102,-2.1102,-2.1102,-2.1102,-2.1102,-2.1077,-2.1021,-1.7615,-1.7615,-1.7615,-1.7615,-1.7615,-1.7615,-1.7495,-1.7394,-1.7508,-1.7615,-1.7615,-1.7615,-1.7615,-1.7615,-1.7615,-1.7615,-1.7615,-1.7615,-1.7615,-1.7615,-1.7615,-1.7615,-1.7615,-1.7615,-1.7615,-1.7615,-1.7615,-1.7615,-1.7615,-1.7615,-1.7615,-1.7615,-1.7615,-1.7615,-1.7615,-1.7615,-1.7615,-1.7615,-1.7615,-1.7615,-1.7615,-1.7615,-1.7615,-1.7615,-1.7615,-1.7615,-1.7615,-1.7615,-1.7615,-1.7629,-1.7649,-1.7762,-1.7822,-1.8029,-1.8323,-1.8604,-1.873,-1.8923,-1.9085,-1.9267,-1.9368,-1.9395,-1.9395,-1.9381,-1.9381,-1.9381,-1.9395,-1.9395,-1.9395,-1.9395,-1.9395,-1.9395,-1.9395,-1.9395,-1.9395,-1.9395,-1.9395,-1.9395,-1.9395,-1.9395,-1.9395,-1.9395,-1.9395,-1.9395,-1.9395,-1.9395,-1.9441,-1.9502,-1.9488,-1.9468,-1.9428,-1.9395,-1.9515,-1.9586,-1.9653,-1.9789,-1.9893,-2.0034,-2.0247,-2.0468,-2.0699,-2.0808,-2.0962,-2.1036,-2.1089,-2.1102,-2.1102,-2.1102,-2.1102,-2.1102,-2.1102,-2.1102,-2.1102,-2.1071,-2.1014,-1.7615,-1.7615,-1.7615,-1.7615,-1.7615,-1.7615,-1.7602,-1.7615,-1.7608,-1.7615,-1.7615,-1.7615,-1.7615,-1.7615,-1.7615,-1.7615,-1.7615,-1.7615,-1.7615,-1.7615,-1.7615,-1.7615,-1.7615,-1.7615,-1.7615,-1.7615,-1.7615,-1.7615,-1.7615,-1.7615,-1.7615,-1.7615,-1.7615,-1.7615,-1.7615,-1.7615,-1.7615,-1.7615,-1.7615,-1.7615,-1.7615,-1.7615,-1.7615,-1.7615,-1.7615,-1.7615,-1.7615,-1.7615,-1.7602,-1.7709,-1.7809,-1.7976,-1.8203,-1.8336,-1.8657,-1.8858,-1.8998,-1.9112,-1.9267,-1.9374,-1.9381,-1.9395,-1.9395,-1.9395,-1.9395,-1.9395,-1.9395,-1.9395,-1.9395,-1.9395,-1.9395,-1.9395,-1.9395,-1.9395,-1.9395,-1.9395,-1.9395,-1.9395,-1.9395,-1.9395,-1.9395,-1.9401,-1.9421,-1.9435,-1.9568,-1.9488,-1.9582,-1.9689,-1.9696,-1.9633,-1.9635,-1.9582,-1.9679,-1.9846,-1.9913,-2.0034,-2.0201,-2.0368,-2.0548,-2.0675,-2.0822,-2.0955,-2.1089,-2.1102,-2.1102,-2.1102,-2.1102,-2.1102,-2.1102,-2.1102,-2.1102,-2.1102,-2.1109,-2.1149,-2.1066,-1.7615,-1.7615,-1.7615,-1.7615,-1.7615,-1.7615,-1.7615,-1.7615,-1.7615,-1.7615,-1.7615,-1.7615,-1.7615,-1.7615,-1.7615,-1.7615,-1.7615,-1.7615,-1.7615,-1.7615,-1.7615,-1.7615,-1.7615,-1.7615,-1.7615,-1.7615,-1.7615,-1.7615,-1.7615,-1.7615,-1.7615,-1.7615,-1.7615,-1.7615,-1.7615,-1.7615,-1.7615,-1.7615,-1.7615,-1.7615,-1.7615,-1.7615,-1.7615,-1.7615,-1.7615,-1.7615,-1.7615,-1.7602,-1.7742,-1.7889,-1.7962,-1.8243,-1.8656,-1.875,-1.8965,-1.9192,-1.9261,-1.9314,-1.9354,-1.9395,-1.9395,-1.9395,-1.9395,-1.9395,-1.9395,-1.9395,-1.9395,-1.9395,-1.9395,-1.9395,-1.9395,-1.9395,-1.9395,-1.9395,-1.9395,-1.9395,-1.9401,-1.9408,-1.9408,-1.9415,-1.9415,-1.9455,-1.9495,-1.9568,-1.9653,-1.98,-1.9973,-2.0044,-2.0044,-2.003,-2.0087,-2.0054,-2.0047,-2.0124,-2.0207,-2.0334,-2.0508,-2.0635,-2.0788,-2.0895,-2.0975,-2.1036,-2.1102,-2.1102,-2.1102,-2.1102,-2.1102,-2.1102,-2.1102,-2.1102,-2.1176,-2.1209,-2.1269,-2.1316,-2.1243,-1.7615,-1.7615,-1.7615,-1.7615,-1.7615,-1.7615,-1.7615,-1.7615,-1.7615,-1.7615,-1.7615,-1.7615,-1.7615,-1.7615,-1.7615,-1.7615,-1.7615,-1.7615,-1.7615,-1.7615,-1.7615,-1.7615,-1.7615,-1.7615,-1.7615,-1.7615,-1.7615,-1.7615,-1.7615,-1.7615,-1.7615,-1.7615,-1.7615,-1.7615,-1.7615,-1.7615,-1.7615,-1.7615,-1.7615,-1.7615,-1.7615,-1.7615,-1.7615,-1.7615,-1.7615,-1.7615,-1.7649,-1.7689,-1.7856,-1.8075,-1.8235,-1.8657,-1.8991,-1.9105,-1.9192,-1.9328,-1.9381,-1.9395,-1.9395,-1.9395,-1.9395,-1.9395,-1.9395,-1.9395,-1.9395,-1.9395,-1.9395,-1.9395,-1.9395,-1.9395,-1.9395,-1.9395,-1.9395,-1.9395,-1.9395,-1.9395,-1.9468,-1.9542,-1.9582,-1.9642,-1.9686,-1.986,-1.9887,-1.99,-1.9957,-2.0,-2.017,-2.0337,-2.0357,-2.0404,-2.045,-2.047,-2.043,-2.041,-2.0468,-2.0628,-2.0835,-2.0949,-2.0995,-2.1022,-2.1042,-2.1076,-2.1102,-2.1102,-2.1102,-2.1102,-2.1102,-2.1142,-2.1116,-2.1102,-2.1223,-2.1375,-2.1448,-2.1555,-2.1563,-1.7615,-1.7615,-1.7615,-1.7615,-1.7615,-1.7615,-1.7615,-1.7615,-1.7615,-1.7615,-1.7615,-1.7615,-1.7615,-1.7615,-1.7615,-1.7615,-1.7615,-1.7615,-1.7615,-1.7615,-1.7615,-1.7615,-1.7615,-1.7615,-1.7615,-1.7615,-1.7615,-1.7615,-1.7615,-1.7615,-1.7615,-1.7615,-1.7615,-1.7615,-1.7615,-1.7615,-1.7615,-1.7615,-1.7615,-1.7615,-1.7615,-1.7615,-1.7615,-1.7615,-1.7615,-1.7622,-1.7716,-1.7829,-1.7975,-1.8336,-1.8636,-1.8985,-1.9221,-1.9321,-1.9341,-1.9395,-1.9395,-1.9395,-1.9395,-1.9395,-1.9395,-1.9395,-1.9395,-1.9395,-1.9395,-1.9395,-1.9395,-1.9395,-1.9395,-1.9395,-1.9395,-1.9395,-1.9395,-1.9435,-1.9435,-1.9515,-1.9629,-1.9706,-1.978,-1.9853,-1.997,-2.0164,-2.019,-2.0204,-2.0257,-2.0257,-2.0344,-2.0514,-2.0641,-2.0708,-2.0768,-2.0788,-2.0775,-2.0762,-2.0742,-2.0828,-2.1015,-2.1036,-2.1056,-2.1082,-2.1102,-2.1102,-2.1102,-2.1102,-2.1102,-2.1142,-2.1203,-2.1256,-2.1209,-2.1236,-2.1423,-2.1649,-2.1716,-2.183,-2.1964,-1.7615,-1.7615,-1.7615,-1.7615,-1.7615,-1.7615,-1.7615,-1.7615,-1.7615,-1.7615,-1.7615,-1.7615,-1.7615,-1.7615,-1.7615,-1.7615,-1.7615,-1.7615,-1.7615,-1.7615,-1.7615,-1.7615,-1.7615,-1.7615,-1.7615,-1.7615,-1.7615,-1.7615,-1.7615,-1.7615,-1.7615,-1.7615,-1.7615,-1.7615,-1.7615,-1.7615,-1.7615,-1.7615,-1.7615,-1.7615,-1.7615,-1.7615,-1.7615,-1.7615,-1.7615,-1.7742,-1.7876,-1.7949,-1.8282,-1.8683,-1.9032,-1.9267,-1.9354,-1.9395,-1.9395,-1.9395,-1.9395,-1.9395,-1.9395,-1.9395,-1.9395,-1.9395,-1.9395,-1.9395,-1.9395,-1.9395,-1.9395,-1.9395,-1.9395,-1.9395,-1.9395,-1.9395,-1.9401,-1.9522,-1.9575,-1.9786,-1.998,-2.006,-2.0127,-2.0137,-2.0197,-2.029,-2.031,-2.0397,-2.0588,-2.0628,-2.0724,-2.0875,-2.0889,-2.0969,-2.1022,-2.1022,-2.1015,-2.1049,-2.1022,-2.0969,-2.1076,-2.1096,-2.1102,-2.1102,-2.1102,-2.1102,-2.1109,-2.1189,-2.1209,-2.1236,-2.1296,-2.1495,-2.1563,-2.1637,-2.1784,-2.1957,-2.201,-2.2124,-2.2305]},{"header":{"parameterUnit":"m.s-1","parameterCategory":1,"la1":31.0,"la2":29.5877,"lo1":-88.7671,"lo2":-86.6584,"dy":0.0162,"dx":0.0185,"nx":115,"ny":88,"refTime":"2024-04-21T00:00:00:Z","depth":0,"parameterNumber":3,"parameterNumberName":"V-component_of_WINDS"},"data":[0.0,0.0,0.0,0.0,0.0,0.0,0.0,0.0,0.0,0.0,0.0,0.0,0.0,0.0,0.0,0.0,0.0,0.0,0.0,0.0,0.0,0.0,0.0,0.0,0.0,0.0,0.0,0.0,0.0,0.0,0.0,0.0,0.0,0.0,0.0,0.0,0.0,0.0,0.0,0.0,0.0,0.0,0.0,0.0,0.0,0.0,0.0,0.0,0.0,0.0,0.0,0.0,0.0,0.0,0.0,0.0,0.0,0.0,0.0,0.0,0.0,0.0,0.0,0.0,0.0,0.0,0.0,0.0,0.0,0.0,0.0,0.0,0.0,0.0,0.0,0.0,0.0,0.0,0.0,0.0,0.0,0.0,0.0,0.0,0.0,0.0,0.0,0.0,0.0,0.0,0.0,0.0,0.0,0.0,0.0,0.0,0.0,0.0,0.0,0.0,0.0,0.0,0.0,0.0,0.0,0.0,0.0,0.0,0.0,0.0,0.0,0.0,0.0,0.0,0.0,0.0,0.0,0.0,0.0,0.0,0.0,0.0,0.0,0.0,0.0,0.0,0.0,0.0,0.0,0.0,0.0,0.0,0.0,0.0,0.0,0.0,0.0,0.0,0.0,0.0,0.0,0.0,0.0,0.0,0.0,0.0,0.0,0.0,0.0,0.0,0.0,0.0,0.0,0.0,0.0,0.0,0.0,0.0,0.0,0.0,0.0,0.0,0.0,0.0,0.0,0.0,0.0,0.0,0.0,0.0,0.0,0.0,0.0,0.0,0.0,0.0,0.0,0.0,0.0,0.0,0.0,0.0,0.0,0.0,0.0,0.0,0.0,0.0,0.0,0.0,0.0,0.0,0.0,0.0,0.0,0.0,0.0,0.0,0.0,0.0,0.0,0.0,0.0,0.0,0.0,0.0,0.0,0.0,0.0,0.0,0.0,0.0,0.0,0.0,0.0,0.0,0.0,0.0,0.0,0.0,0.0,0.0,0.0,0.0,0.0,0.0,0.0,0.0,0.0,0.0,0.0,0.0,0.0,0.0,0.0,0.0,0.0,0.0,0.0,0.0,0.0,0.0,0.0,0.0,0.0,0.0,0.0,0.0,0.0,0.0,0.0,0.0,0.0,0.0,0.0,0.0,0.0,0.0,0.0,0.0,0.0,0.0,0.0,0.0,0.0,0.0,0.0,0.0,0.0,0.0,0.0,0.0,0.0,0.0,0.0,0.0,0.0,0.0,0.0,0.0,0.0,0.0,0.0,0.0,0.0,0.0,0.0,0.0,0.0,0.0,0.0,0.0,0.0,0.0,0.0,0.0,0.0,0.0,0.0,0.0,0.0,0.0,0.0,0.0,0.0,0.0,0.0,0.0,0.0,0.0,0.0,0.0,0.0,0.0,0.0,0.0,0.0,0.0,0.0,0.0,0.0,0.0,0.0,0.0,0.0,0.0,0.0,0.0,0.0,0.0,0.0,0.0,0.0,0.0,0.0,0.0,0.0,0.0,0.0,0.0,0.0,0.0,0.0,0.0,0.0,0.0,0.0,0.0,0.0,0.0,0.0,0.0,0.0,0.0,0.0,0.0,0.0,0.0,0.0,0.0,0.0,0.0,0.0,0.0,0.0,0.0,0.0,0.0,0.0,0.0,0.0,0.0,0.0,0.0,0.0,0.0,0.0,0.0,0.0,0.0,0.0,0.0,0.0,0.0,0.0,0.0,0.0,0.0,0.0,0.0,0.0,0.0,0.0,0.0,0.0,0.0,0.0,0.0,0.0,0.0,0.0,0.0,0.0,0.0,0.0,0.0,0.0,0.0,0.0,0.0,0.0,0.0,0.0,0.0,0.0,0.0,0.0,0.0,0.0,0.0,0.0,0.0,0.0,0.0,0.0,0.0,0.0,0.0,0.0,0.0,0.0,0.0,0.0,0.0,0.0,0.0,0.0,0.0,0.0,0.0,0.0,0.0,0.0,0.0,0.0,0.0,0.0,0.0,0.0,0.0,0.0,0.0,0.0,0.0,0.0,0.0,0.0,0.0,0.0,0.0,0.0,0.0,0.0,0.0,0.0,0.0,0.0,0.0,0.0,0.0,0.0,0.0,0.0,0.0,0.0,0.0,0.0,0.0,0.0,0.0,0.0,0.0,0.0,0.0,0.0,0.0,0.0,0.0,0.0,0.0,0.0,0.0,0.0,0.0,0.0,0.0,0.0,0.0,0.0,0.0,0.0,0.0,0.0,0.0,0.0,0.0,0.0,0.0,0.0,0.0,0.0,0.0,0.0,0.0,0.0,0.0,0.0,0.0,0.0,0.0,0.0,0.0,0.0,0.0,0.0,0.0,0.0,0.0,0.0,0.0,0.0,0.0,0.0,0.0,0.0,0.0,0.0,0.0,0.0,0.0,0.0,0.0,0.0,0.0,0.0,0.0,0.0,0.0,0.0,0.0,0.0,0.0,0.0,0.0,0.0,0.0,0.0,0.0,0.0,0.0,0.0,0.0,0.0,0.0,0.0,0.0,0.0,0.0,0.0,0.0,0.0,0.0,0.0,0.0,0.0,0.0,0.0,0.0,0.0,0.0,0.0,0.0,0.0,0.0,0.0,0.0,0.0,0.0,0.0,0.0,0.0,0.0,0.0,0.0,0.0,0.0,0.0,0.0,0.0,0.0,0.0,0.0,0.0,0.0,0.0,0.0,0.0,0.0,0.0,0.0,0.0,0.0,0.0,0.0,0.0,0.0,0.0,0.0,0.0,0.0,0.0,0.0,0.0,0.0,0.0,0.0,0.0,0.0,0.0,0.0,0.0,0.0,0.0,0.0,0.0,0.0,0.0,0.0,0.0,0.0,0.0,0.0,0.0,0.0,0.0,0.0,0.0,0.0,0.0,0.0,0.0,0.0,0.0,0.0,0.0,0.0,0.0,0.0,0.0,0.0,0.0,0.0,0.0,0.0,0.0,0.0,0.0,0.0,0.0,0.0,0.0,0.0,0.0,0.0,0.0,0.0,0.0,0.0,0.0,0.0,0.0,0.0,0.0,0.0,0.0,0.0,0.0,0.0,0.0,0.0,0.0,0.0,0.0,0.0,0.0,0.0,0.0,0.0,0.0,0.0,0.0,0.0,0.0,0.0,0.0,0.0,0.0,0.0,0.0,0.0,0.0,0.0,0.0,0.0,0.0,0.0,0.0,0.0,0.0,0.0,0.0,0.0,0.0,0.0,0.0,0.0,0.0,0.0,0.0,0.0,0.0,0.0,0.0,0.0,0.0,0.0,0.0,0.0,0.0,0.0,0.0,0.0,0.0,0.0,0.0,0.0,0.0,0.0,0.0,0.0,0.0,0.0,0.0,0.0,0.0,0.0,0.0,0.0,0.0,0.0,0.0,0.0,0.0,0.0,0.0,0.0,0.0,0.0,0.0,0.0,0.0,0.0,0.0,0.0,0.0,0.0,0.0,0.0,0.0,0.0,0.0,0.0,0.0,0.0,0.0,0.0,0.0,0.0,0.0,0.0,0.0,0.0,0.0,0.0,0.0,0.0,0.0,0.0,0.0,0.0,0.0,0.0,0.0,0.0,0.0,0.0,0.0,0.0,0.0,0.0,0.0,0.0,0.0,0.0,0.0,0.0,0.0,0.0,0.0,0.0,0.0,0.0,0.0,0.0,0.0,0.0,0.0,0.0,0.0,0.0,0.0,0.0,0.0,0.0,0.0,0.0,0.0,0.0,0.0,0.0,0.0,0.0,0.0,0.0,0.0,0.0,0.0,0.0,0.0,0.0,0.0,0.0,0.0,0.0,0.0,0.0,0.0,0.0,0.0,0.0,0.0,0.0,0.0,0.0,0.0,0.0,0.0,0.0,0.0,0.0,0.0,0.0,0.0,0.0,0.0,0.0,0.0,0.0,0.0,0.0,0.0,0.0,0.0,0.0,0.0,0.0,0.0,0.0,0.0,0.0,0.0,0.0,0.0,0.0,0.0,0.0,0.0,0.0,0.0,0.0,0.0,0.0,0.0,0.0,0.0,0.0,0.0,0.0,0.0,0.0,0.0,0.0,0.0,0.0,0.0,0.0,0.0,0.0,0.0,0.0,0.0,0.0,0.0,0.0,0.0,0.0,0.0,0.0,0.0,0.0,0.0,0.0,0.0,0.0,0.0,0.0,0.0,0.0,0.0,0.0,0.0,0.0,0.0,0.0,0.0,0.0,0.0,0.0,0.0,0.0,0.0,0.0,0.0,0.0,0.0,0.0,0.0,0.0,0.0,0.0,0.0,0.0,0.0,0.0,0.0,0.0,2.3434,0.0,0.0,0.0,0.0,0.0,0.0,0.0,0.0,0.0,0.0,0.0,0.0,0.0,0.0,0.0,0.0,0.0,0.0,0.0,0.0,0.0,0.0,0.0,0.0,0.0,0.0,0.0,0.0,0.0,0.0,0.0,0.0,0.0,0.0,0.0,0.0,0.0,0.0,0.0,0.0,0.0,0.0,0.0,0.0,0.0,0.0,0.0,0.0,0.0,0.0,0.0,0.0,0.0,0.0,0.0,0.0,0.0,0.0,0.0,0.0,0.0,0.0,0.0,0.0,0.0,0.0,0.0,0.0,0.0,0.0,0.0,0.0,0.0,0.0,0.0,0.0,0.0,0.0,0.0,0.0,0.0,0.0,0.0,0.0,0.0,0.0,0.0,0.0,0.0,0.0,0.0,0.0,0.0,0.0,0.0,0.0,0.0,0.0,0.0,0.0,0.0,0.0,0.0,0.0,0.0,0.0,0.0,0.0,0.0,0.0,2.5854,2.6184,2.5498,2.4932,2.4611,0.0,0.0,0.0,0.0,0.0,0.0,0.0,0.0,0.0,0.0,0.0,0.0,0.0,0.0,0.0,0.0,0.0,0.0,0.0,0.0,0.0,0.0,0.0,0.0,0.0,0.0,0.0,0.0,0.0,0.0,0.0,0.0,0.0,0.0,0.0,0.0,0.0,0.0,0.0,0.0,0.0,0.0,0.0,0.0,0.0,0.0,0.0,0.0,0.0,0.0,0.0,0.0,0.0,0.0,0.0,0.0,0.0,0.0,0.0,0.0,0.0,0.0,0.0,0.0,0.0,0.0,0.0,0.0,0.0,0.0,0.0,0.0,0.0,0.0,0.0,0.0,0.0,0.0,0.0,0.0,0.0,0.0,0.0,0.0,0.0,0.0,0.0,0.0,0.0,0.0,0.0,0.0,0.0,0.0,0.0,0.0,0.0,0.0,0.0,0.0,0.0,0.0,0.0,0.0,0.0,0.0,0.0,0.0,0.0,0.0,0.0,0.0,2.615,2.5693,2.533,0.0,0.0,0.0,0.0,0.0,0.0,0.0,0.0,0.0,0.0,0.0,0.0,0.0,0.0,0.0,0.0,0.0,0.0,0.0,0.0,0.0,0.0,0.0,0.0,0.0,0.0,0.0,0.0,0.0,0.0,0.0,0.0,0.0,0.0,0.0,0.0,0.0,0.0,0.0,0.0,0.0,0.0,0.0,0.0,0.0,0.0,0.0,0.0,0.0,0.0,0.0,0.0,0.0,0.0,0.0,0.0,0.0,0.0,0.0,0.0,0.0,0.0,0.0,0.0,0.0,0.0,0.0,0.0,0.0,0.0,0.0,0.0,0.0,0.0,0.0,0.0,0.0,0.0,0.0,0.0,0.0,0.0,0.0,0.0,0.0,0.0,0.0,0.0,0.0,0.0,0.0,0.0,0.0,0.0,0.0,0.0,0.0,0.0,0.0,0.0,0.0,0.0,0.0,0.0,0.0,0.0,0.0,0.0,0.0,0.0,2.6708,2.6708,2.6632,0.0,2.4677,0.0,0.0,0.0,0.0,0.0,0.0,0.0,0.0,0.0,0.0,0.0,0.0,0.0,0.0,0.0,0.0,0.0,0.0,0.0,0.0,0.0,0.0,0.0,0.0,0.0,0.0,0.0,0.0,0.0,0.0,0.0,0.0,0.0,0.0,0.0,0.0,0.0,0.0,0.0,0.0,0.0,0.0,0.0,0.0,0.0,0.0,0.0,0.0,0.0,0.0,0.0,0.0,0.0,0.0,0.0,0.0,0.0,0.0,0.0,0.0,0.0,0.0,0.0,0.0,0.0,0.0,0.0,0.0,0.0,0.0,0.0,0.0,0.0,0.0,0.0,0.0,0.0,0.0,0.0,0.0,0.0,0.0,0.0,0.0,0.0,0.0,0.0,0.0,0.0,0.0,0.0,0.0,0.0,0.0,0.0,0.0,0.0,0.0,0.0,0.0,0.0,0.0,0.0,0.0,0.0,0.0,0.0,0.0,0.0,0.0,2.6708,2.6708,2.6708,2.6006,0.0,0.0,0.0,0.0,0.0,0.0,0.0,0.0,0.0,0.0,0.0,0.0,0.0,0.0,0.0,0.0,0.0,0.0,0.0,0.0,0.0,0.0,0.0,0.0,0.0,0.0,0.0,0.0,0.0,0.0,0.0,0.0,0.0,0.0,0.0,0.0,0.0,0.0,0.0,0.0,0.0,0.0,0.0,0.0,0.0,0.0,0.0,0.0,0.0,0.0,0.0,0.0,0.0,0.0,0.0,0.0,0.0,0.0,0.0,0.0,0.0,0.0,0.0,0.0,0.0,0.0,0.0,0.0,0.0,0.0,0.0,0.0,0.0,0.0,0.0,0.0,0.0,0.0,0.0,0.0,0.0,0.0,0.0,0.0,0.0,0.0,0.0,0.0,0.0,0.0,0.0,0.0,0.0,0.0,0.0,0.0,0.0,0.0,0.0,0.0,0.0,0.0,0.0,0.0,0.0,0.0,0.0,0.0,0.0,0.0,2.6733,2.6758,2.68,2.6767,2.6064,2.458,0.0,0.0,0.0,0.0,0.0,0.0,0.0,0.0,0.0,0.0,0.0,0.0,0.0,0.0,0.0,0.0,0.0,0.0,0.0,0.0,0.0,0.0,0.0,0.0,0.0,0.0,0.0,0.0,0.0,0.0,0.0,0.0,0.0,0.0,0.0,0.0,0.0,0.0,0.0,0.0,0.0,0.0,0.0,0.0,0.0,0.0,0.0,0.0,0.0,0.0,0.0,0.0,0.0,0.0,0.0,0.0,0.0,0.0,0.0,0.0,0.0,0.0,0.0,0.0,0.0,0.0,0.0,0.0,0.0,0.0,0.0,0.0,0.0,0.0,0.0,0.0,0.0,0.0,0.0,0.0,0.0,0.0,0.0,0.0,0.0,0.0,0.0,0.0,0.0,0.0,0.0,0.0,0.0,0.0,0.0,0.0,0.0,0.0,0.0,0.0,0.0,0.0,0.0,0.0,0.0,0.0,0.0,0.0,2.67,2.6834,2.6934,2.6992,2.6917,2.617,0.0,0.0,0.0,0.0,0.0,0.0,0.0,0.0,0.0,0.0,0.0,0.0,0.0,0.0,0.0,0.0,0.0,0.0,0.0,0.0,0.0,0.0,0.0,0.0,0.0,0.0,0.0,0.0,0.0,0.0,0.0,0.0,0.0,0.0,0.0,0.0,0.0,0.0,0.0,0.0,0.0,0.0,0.0,0.0,0.0,0.0,0.0,0.0,0.0,0.0,0.0,0.0,0.0,0.0,0.0,0.0,0.0,0.0,0.0,0.0,0.0,0.0,0.0,0.0,0.0,0.0,0.0,0.0,0.0,0.0,0.0,0.0,0.0,0.0,0.0,0.0,0.0,0.0,0.0,0.0,0.0,0.0,0.0,0.0,0.0,0.0,0.0,0.0,0.0,0.0,0.0,0.0,0.0,0.0,0.0,0.0,0.0,0.0,0.0,0.0,0.0,0.0,0.0,0.0,0.0,0.0,0.0,0.0,0.0,2.6956,2.7029,2.7096,2.7071,2.7047,2.6296,0.0,0.0,0.0,0.0,0.0,0.0,0.0,0.0,0.0,0.0,0.0,0.0,0.0,0.0,0.0,0.0,0.0,0.0,0.0,0.0,0.0,0.0,0.0,0.0,0.0,0.0,0.0,0.0,0.0,0.0,0.0,0.0,0.0,0.0,0.0,0.0,0.0,0.0,0.0,0.0,0.0,0.0,0.0,0.0,0.0,0.0,0.0,0.0,0.0,0.0,0.0,0.0,0.0,0.0,0.0,0.0,0.0,0.0,0.0,0.0,0.0,0.0,0.0,0.0,0.0,0.0,0.0,0.0,0.0,0.0,0.0,0.0,0.0,0.0,0.0,0.0,0.0,0.0,0.0,0.0,0.0,0.0,0.0,0.0,0.0,0.0,0.0,0.0,0.0,0.0,0.0,0.0,0.0,0.0,0.0,0.0,0.0,0.0,0.0,0.0,0.0,0.0,0.0,0.0,0.0,0.0,0.0,0.0,0.0,2.7222,0.0,2.7299,2.7269,2.7228,2.6563,0.0,0.0,0.0,0.0,0.0,0.0,0.0,0.0,0.0,0.0,0.0,0.0,0.0,0.0,0.0,0.0,0.0,0.0,0.0,0.0,0.0,0.0,0.0,0.0,0.0,0.0,0.0,0.0,0.0,0.0,0.0,0.0,0.0,0.0,0.0,0.0,0.0,0.0,0.0,0.0,0.0,0.0,0.0,0.0,0.0,0.0,0.0,0.0,0.0,0.0,0.0,0.0,0.0,0.0,0.0,0.0,0.0,0.0,0.0,0.0,0.0,0.0,0.0,0.0,0.0,0.0,0.0,0.0,0.0,0.0,0.0,0.0,0.0,0.0,0.0,0.0,0.0,0.0,0.0,0.0,0.0,0.0,0.0,0.0,0.0,0.0,0.0,0.0,0.0,0.0,0.0,0.0,0.0,0.0,0.0,0.0,0.0,0.0,0.0,0.0,0.0,0.0,0.0,0.0,0.0,0.0,0.0,0.0,2.7271,2.7513,2.7597,2.7687,2.7637,2.7611,2.7087,0.0,0.0,0.0,0.0,0.0,0.0,0.0,0.0,0.0,0.0,0.0,0.0,0.0,0.0,0.0,0.0,0.0,0.0,0.0,0.0,0.0,0.0,0.0,0.0,0.0,0.0,0.0,0.0,0.0,0.0,0.0,0.0,0.0,0.0,0.0,0.0,0.0,0.0,0.0,0.0,0.0,0.0,0.0,0.0,0.0,0.0,0.0,0.0,0.0,0.0,0.0,0.0,0.0,0.0,0.0,0.0,0.0,0.0,0.0,0.0,0.0,0.0,0.0,0.0,0.0,0.0,0.0,0.0,0.0,0.0,0.0,0.0,0.0,0.0,0.0,0.0,0.0,0.0,0.0,0.0,0.0,0.0,0.0,0.0,0.0,0.0,0.0,0.0,0.0,0.0,0.0,0.0,0.0,0.0,0.0,0.0,0.0,0.0,0.0,0.0,0.0,0.0,0.0,0.0,0.0,0.0,0.0,0.0,0.0,2.8611,2.8761,2.9042,2.9422,2.8866,2.8072,0.0,0.0,0.0,0.0,0.0,0.0,0.0,0.0,0.0,0.0,0.0,0.0,0.0,0.0,0.0,0.0,0.0,0.0,0.0,0.0,0.0,0.0,0.0,0.0,0.0,0.0,0.0,0.0,0.0,0.0,0.0,0.0,0.0,0.0,0.0,0.0,0.0,0.0,0.0,0.0,0.0,0.0,0.0,0.0,0.0,0.0,0.0,0.0,0.0,0.0,0.0,0.0,0.0,0.0,0.0,0.0,0.0,0.0,0.0,0.0,0.0,0.0,0.0,0.0,0.0,0.0,0.0,0.0,0.0,0.0,0.0,0.0,0.0,0.0,0.0,0.0,0.0,0.0,0.0,0.0,0.0,0.0,0.0,0.0,0.0,0.0,0.0,0.0,0.0,0.0,0.0,0.0,0.0,0.0,0.0,0.0,0.0,0.0,0.0,0.0,0.0,0.0,0.0,0.0,0.0,0.0,0.0,0.0,0.0,3.0697,3.0245,3.0166,3.0478,2.9937,2.9135,2.8097,0.0,0.0,0.0,0.0,0.0,0.0,0.0,0.0,0.0,0.0,0.0,0.0,0.0,0.0,0.0,0.0,0.0,0.0,0.0,0.0,0.0,0.0,0.0,0.0,0.0,0.0,0.0,0.0,0.0,0.0,0.0,0.0,0.0,0.0,0.0,0.0,0.0,0.0,0.0,0.0,0.0,0.0,0.0,0.0,0.0,0.0,0.0,0.0,0.0,0.0,0.0,0.0,0.0,0.0,0.0,0.0,0.0,0.0,0.0,0.0,0.0,0.0,0.0,0.0,0.0,0.0,0.0,0.0,0.0,0.0,0.0,0.0,0.0,0.0,0.0,0.0,0.0,0.0,0.0,0.0,0.0,0.0,0.0,0.0,0.0,0.0,0.0,0.0,0.0,0.0,0.0,0.0,0.0,0.0,0.0,0.0,0.0,0.0,0.0,0.0,0.0,0.0,0.0,0.0,0.0,0.0,0.0,0.0,3.3625,3.2158,3.1304,3.1045,3.0934,3.0279,0.0,0.0,0.0,0.0,0.0,0.0,0.0,0.0,0.0,0.0,0.0,0.0,0.0,0.0,0.0,0.0,0.0,0.0,0.0,0.0,0.0,0.0,0.0,0.0,0.0,0.0,0.0,0.0,0.0,0.0,0.0,0.0,0.0,0.0,0.0,0.0,0.0,0.0,0.0,0.0,0.0,0.0,0.0,0.0,0.0,0.0,0.0,0.0,0.0,0.0,0.0,0.0,0.0,0.0,0.0,0.0,0.0,0.0,0.0,0.0,0.0,0.0,0.0,0.0,0.0,0.0,0.0,0.0,0.0,0.0,0.0,0.0,0.0,0.0,0.0,0.0,0.0,0.0,0.0,0.0,0.0,0.0,0.0,0.0,0.0,0.0,0.0,0.0,0.0,0.0,0.0,0.0,0.0,0.0,0.0,0.0,0.0,0.0,0.0,0.0,0.0,0.0,0.0,0.0,0.0,0.0,0.0,0.0,0.0,3.533,3.5637,3.5104,3.365,3.2919,3.1731,0.0,0.0,0.0,0.0,0.0,0.0,0.0,0.0,0.0,0.0,0.0,0.0,0.0,0.0,0.0,0.0,0.0,0.0,0.0,0.0,0.0,0.0,0.0,0.0,0.0,0.0,0.0,0.0,0.0,0.0,0.0,0.0,0.0,0.0,0.0,0.0,0.0,0.0,0.0,0.0,0.0,0.0,0.0,0.0,0.0,0.0,0.0,0.0,0.0,0.0,0.0,0.0,0.0,0.0,0.0,0.0,0.0,0.0,0.0,0.0,0.0,0.0,0.0,0.0,0.0,0.0,0.0,0.0,0.0,0.0,0.0,0.0,0.0,0.0,0.0,0.0,0.0,0.0,0.0,0.0,0.0,0.0,0.0,0.0,0.0,0.0,0.0,0.0,0.0,0.0,0.0,0.0,0.0,0.0,0.0,0.0,0.0,0.0,0.0,0.0,0.0,0.0,0.0,0.0,0.0,0.0,0.0,0.0,3.5538,3.7172,3.8391,3.8311,3.6841,3.5196,3.3404,0.0,0.0,0.0,0.0,0.0,0.0,0.0,0.0,0.0,0.0,0.0,0.0,0.0,0.0,0.0,0.0,0.0,0.0,0.0,0.0,0.0,0.0,0.0,0.0,0.0,0.0,0.0,0.0,0.0,0.0,0.0,0.0,0.0,0.0,0.0,0.0,0.0,0.0,0.0,0.0,0.0,0.0,0.0,0.0,0.0,0.0,0.0,0.0,0.0,0.0,0.0,0.0,0.0,0.0,0.0,0.0,0.0,0.0,0.0,0.0,0.0,0.0,0.0,0.0,0.0,0.0,0.0,0.0,0.0,0.0,0.0,0.0,0.0,0.0,0.0,0.0,0.0,0.0,0.0,0.0,0.0,0.0,0.0,0.0,0.0,0.0,0.0,0.0,0.0,0.0,0.0,0.0,0.0,0.0,0.0,0.0,0.0,0.0,0.0,0.0,0.0,0.0,0.0,0.0,0.0,0.0,0.0,0.0,3.7139,3.8817,4.0406,4.0832,4.0016,3.7518,3.5204,0.0,0.0,0.0,0.0,0.0,0.0,0.0,0.0,0.0,0.0,0.0,0.0,0.0,0.0,0.0,0.0,0.0,0.0,0.0,0.0,0.0,0.0,0.0,0.0,0.0,0.0,0.0,0.0,0.0,0.0,0.0,0.0,0.0,0.0,0.0,0.0,0.0,0.0,0.0,0.0,0.0,0.0,0.0,0.0,0.0,0.0,0.0,0.0,0.0,0.0,0.0,0.0,0.0,0.0,0.0,0.0,0.0,0.0,0.0,0.0,0.0,0.0,0.0,0.0,0.0,0.0,0.0,0.0,0.0,0.0,0.0,0.0,0.0,0.0,0.0,0.0,0.0,0.0,0.0,0.0,0.0,0.0,0.0,0.0,0.0,0.0,0.0,0.0,0.0,0.0,0.0,0.0,0.0,0.0,0.0,0.0,0.0,0.0,0.0,0.0,0.0,0.0,0.0,0.0,0.0,0.0,0.0,0.0,3.801,3.9633,4.1222,4.1941,4.1682,3.9167,3.6652,0.0,0.0,0.0,0.0,0.0,0.0,0.0,0.0,0.0,0.0,0.0,0.0,0.0,0.0,0.0,0.0,0.0,0.0,0.0,0.0,0.0,0.0,0.0,0.0,0.0,0.0,0.0,0.0,0.0,0.0,0.0,0.0,0.0,0.0,0.0,0.0,0.0,0.0,0.0,0.0,0.0,0.0,0.0,0.0,0.0,0.0,0.0,0.0,3.2221,0.0,0.0,0.0,0.0,0.0,0.0,0.0,0.0,0.0,0.0,0.0,0.0,0.0,0.0,0.0,0.0,0.0,0.0,0.0,0.0,0.0,0.0,0.0,0.0,0.0,0.0,0.0,0.0,0.0,0.0,0.0,0.0,0.0,0.0,0.0,0.0,0.0,0.0,0.0,0.0,0.0,0.0,0.0,0.0,0.0,0.0,0.0,0.0,0.0,0.0,0.0,0.0,0.0,0.0,0.0,0.0,0.0,0.0,0.0,3.9229,4.0451,4.2029,4.2838,4.274,4.0691,3.8362,0.0,0.0,0.0,0.0,0.0,0.0,0.0,0.0,0.0,0.0,0.0,0.0,0.0,0.0,0.0,0.0,0.0,0.0,0.0,0.0,0.0,0.0,0.0,0.0,0.0,0.0,0.0,0.0,0.0,0.0,0.0,0.0,0.0,0.0,0.0,0.0,0.0,0.0,0.0,0.0,0.0,0.0,0.0,0.0,0.0,0.0,0.0,0.0,0.0,0.0,0.0,0.0,0.0,0.0,0.0,0.0,0.0,0.0,0.0,0.0,0.0,0.0,0.0,0.0,0.0,0.0,0.0,0.0,0.0,0.0,0.0,0.0,0.0,0.0,0.0,0.0,0.0,0.0,0.0,0.0,0.0,0.0,0.0,0.0,0.0,0.0,0.0,0.0,0.0,0.0,0.0,0.0,0.0,0.0,0.0,0.0,0.0,0.0,0.0,0.0,0.0,0.0,0.0,0.0,0.0,0.0,0.0,3.8733,4.0359,4.1287,4.2727,4.3488,4.3488,4.1897,3.9859,3.7416,0.0,0.0,0.0,0.0,0.0,0.0,0.0,0.0,0.0,0.0,0.0,0.0,0.0,0.0,0.0,0.0,0.0,0.0,0.0,0.0,0.0,0.0,0.0,0.0,0.0,0.0,0.0,0.0,0.0,0.0,0.0,0.0,0.0,0.0,0.0,0.0,0.0,0.0,3.098,3.3109,0.0,0.0,0.0,0.0,0.0,0.0,0.0,0.0,3.4192,0.0,0.0,0.0,0.0,0.0,0.0,0.0,0.0,0.0,0.0,0.0,0.0,0.0,0.0,0.0,0.0,0.0,0.0,0.0,0.0,0.0,0.0,0.0,0.0,0.0,0.0,0.0,0.0,0.0,0.0,0.0,0.0,0.0,0.0,0.0,0.0,0.0,0.0,0.0,0.0,0.0,0.0,0.0,0.0,0.0,0.0,0.0,0.0,0.0,0.0,0.0,0.0,0.0,0.0,0.0,0.0,3.7272,3.9027,4.0598,4.2084,4.302,4.3488,4.3451,4.1921,4.0245,3.8425,0.0,0.0,0.0,0.0,0.0,0.0,0.0,0.0,0.0,0.0,0.0,0.0,0.0,0.0,0.0,0.0,0.0,0.0,0.0,0.0,0.0,0.0,0.0,0.0,0.0,0.0,0.0,0.0,0.0,0.0,0.0,0.0,0.0,0.0,0.0,0.0,0.0,0.0,0.0,3.6798,3.7991,0.0,0.0,0.0,0.0,0.0,0.0,0.0,0.0,3.5844,0.0,0.0,0.0,0.0,0.0,0.0,0.0,0.0,0.0,0.0,0.0,0.0,0.0,0.0,0.0,0.0,0.0,0.0,0.0,0.0,0.0,0.0,0.0,0.0,0.0,0.0,0.0,0.0,0.0,0.0,0.0,0.0,0.0,0.0,0.0,0.0,0.0,0.0,0.0,0.0,0.0,0.0,0.0,0.0,0.0,0.0,0.0,0.0,0.0,0.0,0.0,0.0,0.0,0.0,0.0,3.743,3.9478,4.1111,4.2286,4.3102,4.3488,4.3469,4.1947,4.0343,0.0,0.0,0.0,0.0,0.0,0.0,0.0,0.0,0.0,0.0,0.0,0.0,0.0,0.0,0.0,0.0,0.0,0.0,0.0,0.0,0.0,0.0,0.0,0.0,0.0,0.0,0.0,0.0,0.0,0.0,0.0,0.0,0.0,0.0,0.0,0.0,0.0,0.0,0.0,0.0,3.7679,3.8993,3.9837,0.0,0.0,0.0,0.0,0.0,0.0,3.6916,3.6787,0.0,0.0,0.0,0.0,0.0,0.0,0.0,0.0,0.0,0.0,0.0,0.0,0.0,0.0,0.0,0.0,0.0,0.0,0.0,0.0,0.0,0.0,0.0,0.0,0.0,0.0,0.0,0.0,0.0,0.0,0.0,0.0,0.0,0.0,0.0,0.0,0.0,0.0,0.0,0.0,0.0,0.0,0.0,0.0,0.0,0.0,0.0,0.0,0.0,0.0,0.0,0.0,0.0,0.0,0.0,3.7705,3.9955,4.158,4.2506,4.3167,4.3433,4.3231,4.1699,4.0094,0.0,0.0,0.0,0.0,0.0,0.0,0.0,0.0,0.0,0.0,0.0,0.0,0.0,0.0,0.0,0.0,0.0,0.0,0.0,0.0,0.0,0.0,0.0,0.0,0.0,0.0,0.0,0.0,0.0,0.0,0.0,0.0,0.0,0.0,0.0,0.0,0.0,0.0,0.0,0.0,0.0,3.9709,4.1113,4.1342,0.0,0.0,0.0,0.0,3.8421,3.8219,0.0,0.0,0.0,0.0,0.0,0.0,0.0,0.0,0.0,0.0,0.0,0.0,0.0,0.0,0.0,0.0,0.0,0.0,0.0,0.0,0.0,0.0,0.0,0.0,0.0,0.0,0.0,0.0,0.0,0.0,0.0,0.0,0.0,0.0,0.0,0.0,0.0,0.0,0.0,0.0,0.0,0.0,0.0,0.0,0.0,0.0,0.0,0.0,0.0,0.0,0.0,0.0,0.0,0.0,0.0,0.0,3.8487,4.0241,4.1819,4.3267,4.3433,4.3157,4.2433,4.0873,3.9284,0.0,0.0,0.0,0.0,0.0,0.0,0.0,0.0,0.0,0.0,0.0,0.0,0.0,0.0,0.0,0.0,0.0,0.0,0.0,0.0,0.0,0.0,0.0,0.0,0.0,0.0,0.0,0.0,0.0,0.0,0.0,0.0,0.0,0.0,0.0,0.0,0.0,0.0,0.0,0.0,0.0,4.114,4.2047,4.2158,4.1882,0.0,0.0,4.092,4.071,4.0681,0.0,0.0,0.0,0.0,0.0,0.0,0.0,0.0,0.0,0.0,0.0,0.0,0.0,0.0,0.0,0.0,0.0,0.0,0.0,0.0,0.0,0.0,0.0,0.0,0.0,0.0,0.0,0.0,0.0,0.0,0.0,0.0,0.0,0.0,0.0,0.0,0.0,0.0,0.0,0.0,0.0,0.0,0.0,0.0,0.0,0.0,0.0,0.0,0.0,0.0,0.0,0.0,0.0,0.0,0.0,3.5874,3.8634,4.0296,4.1892,4.3433,4.3488,4.3121,4.2323,4.0752,3.9137,0.0,0.0,0.0,0.0,0.0,0.0,0.0,0.0,0.0,0.0,0.0,0.0,0.0,0.0,0.0,0.0,0.0,0.0,0.0,0.0,0.0,0.0,0.0,0.0,0.0,0.0,0.0,0.0,0.0,0.0,0.0,0.0,0.0,0.0,0.0,0.0,0.0,0.0,0.0,0.0,0.0,0.0,4.347,4.4066,0.0,0.0,0.0,4.3663,4.3214,0.0,0.0,0.0,0.0,0.0,0.0,0.0,0.0,0.0,0.0,0.0,0.0,0.0,0.0,0.0,0.0,0.0,0.0,0.0,0.0,0.0,0.0,0.0,0.0,0.0,0.0,0.0,0.0,0.0,0.0,0.0,0.0,0.0,0.0,0.0,0.0,0.0,0.0,0.0,0.0,0.0,0.0,0.0,0.0,0.0,0.0,0.0,0.0,0.0,0.0,0.0,0.0,0.0,0.0,0.0,0.0,0.0,3.8663,4.0278,4.1874,4.3433,4.3488,4.301,4.2011,4.0432,0.0,0.0,0.0,0.0,0.0,0.0,0.0,0.0,0.0,0.0,0.0,0.0,0.0,0.0,0.0,0.0,0.0,0.0,0.0,0.0,0.0,0.0,0.0,0.0,0.0,0.0,0.0,2.7963,0.0,0.0,0.0,0.0,0.0,0.0,0.0,0.0,0.0,0.0,0.0,0.0,0.0,0.0,4.3185,4.4782,4.5516,4.5902,0.0,0.0,4.5681,4.5094,4.4323,4.3314,0.0,0.0,0.0,0.0,0.0,0.0,0.0,0.0,0.0,0.0,0.0,0.0,0.0,0.0,0.0,0.0,0.0,0.0,0.0,0.0,0.0,0.0,0.0,0.0,0.0,0.0,0.0,0.0,0.0,0.0,0.0,0.0,0.0,0.0,0.0,0.0,0.0,0.0,0.0,0.0,0.0,0.0,0.0,0.0,0.0,0.0,0.0,0.0,0.0,0.0,0.0,0.0,0.0,0.0,3.6233,3.8644,4.0296,4.1874,4.3414,4.3488,4.2745,4.1213,3.9617,3.8046,0.0,0.0,0.0,0.0,0.0,0.0,0.0,0.0,0.0,0.0,0.0,0.0,0.0,0.0,0.0,0.0,0.0,0.0,0.0,0.0,0.0,0.0,0.0,0.0,0.0,0.0,0.0,0.0,0.0,0.0,0.0,0.0,0.0,0.0,0.0,0.0,0.0,0.0,0.0,0.0,0.0,4.4002,4.559,4.5865,4.592,0.0,4.5902,4.5883,4.5847,4.5159,4.4323,4.3469,0.0,0.0,0.0,0.0,0.0,0.0,0.0,0.0,0.0,0.0,0.0,0.0,0.0,0.0,0.0,0.0,0.0,0.0,0.0,0.0,0.0,0.0,0.0,0.0,0.0,0.0,0.0,0.0,0.0,0.0,0.0,0.0,0.0,0.0,0.0,0.0,0.0,0.0,0.0,0.0,0.0,0.0,0.0,0.0,0.0,0.0,0.0,0.0,0.0,0.0,0.0,0.0,0.0,3.6754,3.8681,4.0296,4.1882,4.3414,4.3488,4.2735,4.114,4.0002,3.845,0.0,0.0,0.0,0.0,0.0,0.0,0.0,0.0,0.0,0.0,0.0,0.0,0.0,0.0,0.0,0.0,0.0,0.0,0.0,0.0,0.0,0.0,0.0,0.0,0.0,0.0,0.0,0.0,3.1378,3.2106,3.3213,0.0,0.0,0.0,0.0,0.0,0.0,0.0,0.0,0.0,0.0,4.5002,4.7095,4.7829,0.0,0.0,4.8169,4.7985,4.7462,4.67,4.5911,4.5112,4.3883,0.0,0.0,0.0,0.0,0.0,0.0,0.0,0.0,0.0,0.0,0.0,0.0,0.0,0.0,0.0,0.0,0.0,0.0,0.0,0.0,0.0,0.0,0.0,0.0,0.0,0.0,0.0,0.0,0.0,0.0,0.0,0.0,0.0,0.0,0.0,0.0,0.0,0.0,0.0,0.0,0.0,0.0,0.0,0.0,0.0,0.0,0.0,0.0,0.0,0.0,0.0,0.0,3.7092,3.8681,4.027,4.1882,4.3451,4.3488,4.2745,4.115,4.0322,3.877,0.0,0.0,0.0,0.0,0.0,0.0,0.0,0.0,0.0,0.0,0.0,0.0,0.0,0.0,0.0,0.0,0.0,0.0,0.0,0.0,0.0,0.0,0.0,0.0,0.0,0.0,0.0,0.0,3.2479,3.3183,3.3758,0.0,0.0,0.0,0.0,0.0,0.0,0.0,0.0,0.0,0.0,4.5938,4.8343,4.9215,4.9684,4.9931,4.9968,4.9656,4.8802,4.8003,4.7186,4.6388,0.0,0.0,0.0,0.0,0.0,0.0,0.0,0.0,0.0,0.0,0.0,0.0,0.0,0.0,0.0,0.0,0.0,0.0,0.0,0.0,0.0,0.0,0.0,0.0,0.0,0.0,0.0,2.6607,0.0,0.0,2.6704,0.0,0.0,0.0,0.0,0.0,0.0,0.0,0.0,0.0,0.0,0.0,0.0,0.0,0.0,0.0,0.0,0.0,0.0,0.0,0.0,0.0,0.0,3.711,3.8707,4.0296,4.1874,4.3433,4.3488,4.2735,4.1168,4.0341,3.877,3.6384,0.0,0.0,0.0,0.0,0.0,0.0,0.0,0.0,0.0,0.0,0.0,0.0,0.0,0.0,0.0,0.0,0.0,0.0,0.0,0.0,0.0,0.0,0.0,0.0,0.0,0.0,3.2491,3.3286,3.377,0.0,0.0,0.0,0.0,0.0,0.0,0.0,0.0,0.0,0.0,4.5351,4.6792,4.9225,4.961,4.9922,5.0665,5.0784,5.049,4.9702,4.8866,4.8003,0.0,0.0,0.0,0.0,0.0,0.0,0.0,0.0,0.0,0.0,0.0,0.0,0.0,0.0,0.0,0.0,0.0,0.0,0.0,0.0,0.0,0.0,0.0,0.0,0.0,0.0,0.0,2.8618,2.9115,0.0,0.0,0.0,0.0,0.0,0.0,0.0,0.0,0.0,0.0,0.0,3.4658,3.4676,0.0,0.0,0.0,0.0,0.0,0.0,0.0,0.0,0.0,0.0,0.0,0.0,3.7367,3.9423,4.0553,4.1892,4.3433,4.3488,4.2983,4.1929,4.113,3.9313,3.6402,0.0,0.0,0.0,0.0,0.0,0.0,0.0,0.0,0.0,0.0,0.0,0.0,0.0,0.0,0.0,0.0,0.0,0.0,0.0,0.0,0.0,0.0,0.0,0.0,0.0,3.2522,0.0,0.0,0.0,0.0,0.0,0.0,0.0,0.0,0.0,0.0,0.0,4.2892,4.4498,4.5856,4.7609,5.0121,5.0452,5.0776,0.0,0.0,0.0,0.0,0.0,0.0,0.0,0.0,0.0,0.0,0.0,0.0,0.0,0.0,4.6927,4.6002,4.4774,4.4039,4.466,0.0,0.0,0.0,0.0,0.0,0.0,0.0,0.0,0.0,0.0,0.0,0.0,0.0,0.0,3.0516,0.0,3.0885,0.0,0.0,0.0,0.0,0.0,0.0,0.0,0.0,3.4823,3.5675,3.6714,3.7,3.7129,0.0,3.6861,3.5613,0.0,0.0,0.0,0.0,0.0,0.0,0.0,0.0,3.8028,3.9871,4.0975,4.2158,4.3414,4.3488,4.3102,4.2304,4.0993,3.9148,3.6787,3.5392,3.4296,0.0,0.0,0.0,0.0,0.0,0.0,0.0,0.0,0.0,0.0,0.0,0.0,0.0,0.0,0.0,0.0,0.0,0.0,0.0,0.0,0.0,0.0,0.0,3.3653,0.0,0.0,0.0,0.0,0.0,0.0,0.0,0.0,0.0,4.0377,4.2184,4.401,4.5414,4.6737,4.8392,5.066,0.0,0.0,0.0,0.0,0.0,0.0,0.0,5.1999,5.1683,5.1278,5.101,5.1117,5.1056,5.138,5.2549,0.0,0.0,4.9812,4.8379,4.7689,4.833,4.8095,4.7965,4.8547,4.8731,4.8884,0.0,0.0,0.0,0.0,0.0,0.0,0.0,0.0,3.2232,3.2308,0.0,3.2163,0.0,0.0,0.0,0.0,3.2754,3.3562,0.0,0.0,3.6824,3.7584,3.7687,3.8414,3.8773,3.8718,3.7999,3.7603,3.7408,3.5154,0.0,0.0,0.0,0.0,0.0,0.0,3.9111,3.9981,4.1497,4.2671,4.3451,4.3488,4.3112,4.2304,4.0065,3.8432,3.7566,3.6751,3.5936,3.5059,3.4259,0.0,0.0,0.0,0.0,0.0,0.0,0.0,0.0,0.0,0.0,0.0,0.0,0.0,0.0,0.0,0.0,0.0,0.0,0.0,0.0,3.4589,0.0,0.0,0.0,0.0,0.0,0.0,0.0,0.0,0.0,0.0,4.3635,4.3717,4.4578,4.7003,0.0,0.0,0.0,0.0,5.2623,5.3427,5.424,5.4402,5.3523,5.4083,5.431,5.3429,0.0,0.0,5.3831,5.4557,5.5155,5.5535,5.6175,5.6071,5.3616,5.2448,5.1971,5.2212,5.2183,5.2262,5.2356,5.24,5.2204,3.7789,0.0,0.0,0.0,0.0,3.4695,3.5089,3.5726,3.5454,3.5473,3.5628,3.5316,0.0,0.0,0.0,0.0,0.0,0.0,3.6861,3.769,3.8726,3.9515,4.0076,4.0314,4.0416,4.0406,4.0167,3.9772,3.9192,3.8495,3.7283,3.5613,0.0,0.0,0.0,0.0,3.9368,4.0718,4.1782,4.269,4.3488,4.3488,4.3121,4.2323,4.1085,3.9764,3.8414,3.7577,3.6776,3.5954,3.5121,0.0,0.0,0.0,0.0,0.0,0.0,0.0,0.0,0.0,0.0,0.0,0.0,0.0,0.0,0.0,0.0,0.0,0.0,0.0,3.5495,3.5807,3.5936,0.0,0.0,0.0,0.0,0.0,0.0,0.0,0.0,0.0,4.6691,4.6929,4.7215,0.0,0.0,5.0652,5.185,5.2767,5.3593,5.4458,5.5205,0.0,5.5346,5.5412,5.5433,5.5152,5.5318,5.5509,5.5628,5.6052,5.6619,5.7287,5.7788,5.8005,5.7924,5.6251,5.5246,5.5779,5.562,5.5479,5.5988,5.6201,5.6146,4.1196,3.8771,3.7495,3.7165,3.7423,3.7323,3.7685,3.8333,3.792,3.7738,3.7693,3.7279,3.6882,3.6514,3.673,0.0,0.0,0.0,3.8715,3.9221,4.0322,4.1111,4.158,4.1892,4.2057,4.2021,4.1727,4.1332,4.0826,4.0524,3.9643,3.823,0.0,0.0,3.8017,3.9405,4.0598,4.158,4.2681,4.3332,4.3488,4.3488,4.3121,4.2323,4.1525,4.049,3.9239,3.8421,3.7595,3.6806,3.6285,3.5617,0.0,0.0,0.0,0.0,0.0,0.0,0.0,0.0,0.0,0.0,0.0,3.3084,3.3078,0.0,0.0,0.0,3.503,3.5734,3.6255,3.6853,0.0,0.0,0.0,0.0,0.0,0.0,0.0,4.3828,4.5232,4.6663,4.8131,4.9169,4.9705,4.9564,5.0643,5.1698,5.2381,0.0,5.4413,5.4926,5.5936,5.6646,5.6576,5.6765,5.6956,5.6998,5.7171,5.7381,5.7537,5.7735,5.8086,5.8691,5.9035,5.9363,6.0023,5.8875,5.802,5.859,5.8393,5.8301,5.8754,5.8909,5.8871,4.3781,4.2855,4.119,4.0308,3.9995,3.9781,4.0095,4.0612,3.9778,3.9349,3.9257,3.8513,3.7701,3.6913,3.7515,0.0,3.892,3.9724,4.0092,4.0165,4.168,4.2378,4.2433,4.3139,4.3488,4.3469,4.2745,4.2396,4.2359,4.1654,4.125,4.1187,4.0524,3.9753,3.9056,4.1148,4.2323,4.2415,4.3911,4.4342,4.3616,4.3524,4.3149,4.2415,4.1544,4.0755,4.0018,3.9166,3.8358,3.7639,3.7529,3.7155,3.642,0.0,0.0,0.0,0.0,0.0,0.0,0.0,0.0,0.0,0.0,0.0,0.0,0.0,0.0,0.0,3.5947,0.0,3.6677,3.8002,0.0,0.0,0.0,4.158,4.2323,4.3231,4.4075,4.481,0.0,0.0,4.8517,5.0527,5.182,5.1347,5.1985,5.2552,5.2763,5.4202,5.5168,5.5307,5.6589,5.7524,5.748,5.7979,5.8429,5.856,5.884,5.8927,5.9131,5.9252,5.9481,5.9779,5.9966,6.008,6.0335,6.037,6.0565,6.0335,6.0383,6.0469,6.0482,6.0482,6.0233,4.4937,4.4579,4.4058,4.3016,4.169,4.1556,4.1529,4.1559,4.1253,4.1082,4.1068,4.0839,4.0526,4.0158,4.0228,4.0351,4.0571,4.136,4.1735,4.1791,4.2753,4.3212,4.3231,4.3414,4.3488,4.3488,4.3304,4.3212,4.3212,4.302,4.2616,4.2066,4.2423,4.1937,4.0645,4.1709,4.2598,4.3212,4.4195,4.4608,4.4415,4.3818,4.3414,4.3212,4.1819,4.1012,4.0791,3.9452,3.8608,3.8414,3.7834,3.7419,3.7235,3.6431,0.0,0.0,0.0,0.0,0.0,0.0,0.0,0.0,0.0,3.4986,3.5661,0.0,3.5991,0.0,3.7294,3.8626,3.9837,4.0314,0.0,0.0,4.1974,4.301,4.3212,4.4993,4.6333,4.6489,4.8159,4.9527,5.0123,5.1242,5.2242,5.2841,5.3521,5.4076,5.4352,5.5726,5.6794,5.6932,5.7713,5.843,5.8491,5.8703,5.8885,5.8924,5.9081,5.9225,5.93,5.9519,5.9746,5.9923,6.0014,6.0155,6.0368,6.0505,6.0578,6.0565,6.0648,6.0722,6.0753,6.0753,6.0664,4.5507,4.5062,4.4938,4.4254,4.3277,4.3179,4.3057,4.291,4.2779,4.2515,4.2155,4.1687,4.1584,4.1794,4.1683,4.1819,4.2194,4.2635,4.2818,4.2864,4.3286,4.3488,4.3488,4.3488,4.3488,4.3488,4.3488,4.3488,4.3488,4.3488,4.3267,4.2864,4.3267,4.3047,4.2249,4.2965,4.3599,4.403,4.448,4.47,4.4681,4.3928,4.3488,4.3469,4.1956,4.1113,4.1085,3.9544,3.8699,3.8681,3.8267,3.8036,3.8017,3.7272,3.6842,0.0,0.0,0.0,0.0,0.0,0.0,0.0,0.0,0.0,0.0,0.0,3.7679,3.8369,3.925,4.0131,4.1022,4.1746,4.2176,4.2168,4.3616,4.4699,4.5076,4.6296,4.7397,4.8131,4.9334,5.0445,5.1224,5.205,5.2737,5.3343,5.4041,5.4609,5.4983,5.6053,5.7012,5.7485,5.8239,5.882,5.8931,5.9052,5.913,5.914,5.929,5.9446,5.9519,5.9704,5.9888,6.0018,6.0137,6.0226,6.0375,6.0512,6.0617,6.0617,6.0691,6.0775,6.08,6.08,6.0788,4.5728,4.4858,4.4731,4.4599,4.4473,4.4409,4.4307,4.4191,4.4055,4.3592,4.2871,4.1975,4.1941,4.2541,4.2485,4.2827,4.3469,4.3488,4.3488,4.3488,4.3488,4.3488,4.3488,4.3488,4.3488,4.3488,4.3488,4.3488,4.3488,4.3488,4.3488,4.3488,4.3488,4.3488,4.3524,4.4305,4.47,4.47,4.47,4.47,4.47,4.3901,4.3488,4.3433,4.1929,4.1113,4.1058,3.9562,3.8699,3.8699,3.8699,3.8699,3.8681,3.8036,3.765,0.0,3.7081,0.0,0.0,0.0,0.0,0.0,0.0,0.0,0.0,3.8597,3.9635,4.1122,4.1334,4.1452,4.1544,4.291,4.3827,4.3855,4.5158,4.6342,4.7003,4.7186,4.7856,4.9427,5.0316,5.1096,5.1858,5.2711,5.322,5.3373,5.3883,5.4476,5.4997,5.5883,5.687,5.7621,5.8416,5.8971,5.9052,5.9197,5.9327,5.9355,5.9501,5.9669,5.9757,5.9855,5.9939,6.0061,6.0189,6.0308,6.0382,6.0499,6.0584,6.0604,6.0704,6.0788,6.08,6.08,6.08,4.5609,4.4652,4.4565,4.4473,4.4329,4.4255,4.4222,4.4184,4.4011,4.3799,4.3586,4.3287,4.322,4.3369,4.3302,4.3359,4.3488,4.3488,4.3488,4.3488,4.3488,4.3488,4.3488,4.3488,4.3488,4.3488,4.3488,4.3488,4.3488,4.3488,4.3488,4.3488,4.3488,4.3488,4.3524,0.0,0.0,0.0,4.47,4.47,4.4681,4.3901,4.3488,4.3469,4.1956,0.0,4.104,3.9544,3.8699,3.8699,3.8699,0.0,0.0,0.0,0.0,0.0,0.0,0.0,0.0,0.0,0.0,0.0,4.0369,4.0259,4.0406,4.0545,4.104,4.1984,4.2653,4.3314,4.3966,4.4874,4.5443,4.5489,4.6315,4.6947,4.7113,4.7672,4.8471,4.9482,5.0298,5.1114,5.1932,5.2692,5.3261,5.3429,5.3608,5.405,5.4907,5.6255,5.755,5.8488,5.8909,5.9158,5.9215,5.9365,5.9474,5.9545,5.9661,5.9757,5.9809,5.9885,6.0013,6.0076,6.0216,6.0335,6.0394,6.0465,6.0539,6.0572,6.0673,6.0747,6.0794,6.08,6.08,4.5783,4.4549,4.4401,4.43,0.0,4.4104,4.405,4.4034,4.3947,4.3816,4.3684,4.3642,4.3582,4.3548,4.3523,4.3488,4.3488,4.3488,4.3488,4.3488,4.3488,4.3488,4.3488,4.3488,4.3488,4.3488,4.3488,4.3488,4.3488,4.3488,4.3488,4.3488,4.3488,4.3488,4.3506,4.3892,4.4305,4.47,4.47,4.4507,4.4121,4.3708,4.3488,4.3451,4.2341,0.0,0.0,0.0,0.0,0.0,0.0,0.0,0.0,3.9654,0.0,3.9892,4.0259,4.0498,4.0506,4.0865,4.126,4.1672,4.2066,4.2113,4.1709,4.2424,4.3048,4.3461,4.4213,4.4837,4.5278,4.6003,4.6507,4.6535,4.7195,4.7681,4.7783,4.8434,4.926,5.0096,5.0894,5.1683,5.2472,5.292,5.3254,5.3459,5.3509,5.3857,5.4878,5.6079,5.7355,5.8689,5.9119,5.9253,5.9309,5.9437,5.9564,5.9616,5.9746,5.983,5.9839,5.9926,6.001,6.0057,6.0186,6.0327,6.0344,6.0424,6.0531,6.0545,6.061,6.066,6.0728,6.0783,6.08,4.6077,4.4636,4.4308,4.4161,4.4119,4.3937,4.3865,4.3841,0.0,0.0,0.0,4.3573,4.3548,4.3488,4.3488,4.3488,4.3488,4.3488,4.3488,4.3488,4.3488,4.3488,4.3488,4.3488,4.3488,4.3488,4.3488,4.3488,4.3488,4.3488,4.3488,4.3488,4.3488,4.3488,4.3488,4.3488,4.3836,4.4443,4.4498,4.4176,4.3524,4.3488,4.3488,4.3488,4.2727,4.1984,4.1334,4.0543,3.9808,3.9195,3.9753,4.0102,4.0139,4.0736,4.1113,4.1113,4.125,4.1323,4.1323,4.1452,4.1801,4.247,4.3249,4.3424,4.2773,4.3947,4.4755,4.4883,4.5654,4.6122,4.6122,4.6847,4.7296,4.7314,4.7911,4.8296,4.8351,4.9087,4.9876,5.071,5.1463,5.2307,5.3031,5.3177,5.3269,5.3418,5.3489,5.3857,5.4868,5.5969,5.7165,5.8471,5.9028,5.9272,5.9355,5.9455,5.9581,5.9607,5.9717,5.9844,5.9877,5.9934,5.999,6.0002,6.0156,6.0257,6.0294,6.0387,6.0472,6.048,6.0545,6.0604,6.068,6.0747,6.0769,4.6327,4.5191,4.4364,4.3981,4.3939,4.3861,4.3734,4.3641,4.3641,4.3609,4.3523,4.3523,4.3523,4.3488,4.3488,4.3488,4.3488,4.3488,4.3488,4.3488,4.3488,4.3488,4.3488,4.3488,4.3488,4.3488,4.3488,4.3488,4.3488,4.3488,4.3488,4.3488,4.3488,4.3488,4.3488,4.3488,4.3561,4.369,4.3653,4.3616,4.3488,4.3488,4.3488,4.3451,4.2727,4.2268,4.2131,4.1342,4.0883,4.0773,4.0865,4.0938,4.0938,4.1067,4.1113,4.115,4.1746,4.2121,4.2158,4.2753,4.3212,4.3359,4.4066,4.448,4.4388,4.4553,4.5002,4.5663,4.6461,4.6938,4.6984,4.7636,4.8095,4.8095,4.8223,4.8315,4.8333,4.9105,4.9949,5.071,5.151,5.2325,5.3031,5.3196,5.323,5.3318,5.3459,5.3838,5.4868,5.639,5.7505,5.81,5.8756,5.9215,5.9392,5.9503,5.9519,5.9598,5.9633,5.9693,5.9791,5.9855,5.9918,5.9998,6.0057,6.0159,6.0264,6.032,6.038,6.0451,6.0499,6.0532,6.0597,6.0673,6.0716,4.6207,4.5231,4.4318,4.3897,4.3835,4.3736,4.3642,4.3539,4.3539,4.3522,4.3488,4.3488,4.3488,4.3488,4.3488,4.3488,4.3488,4.3488,4.3488,4.3488,4.3488,4.3488,4.3488,4.3488,4.3488,4.3488,4.3488,4.3488,4.3488,4.3488,4.3488,4.3488,4.3488,4.3488,4.3488,4.3488,4.3488,4.3488,4.3488,4.3488,4.3488,4.3488,4.3488,4.3488,4.3139,4.2727,4.2314,4.1956,4.1544,4.1113,4.1517,4.1746,4.1764,4.2158,4.2396,4.2415,4.2745,4.2947,4.2947,4.3286,4.3488,4.3524,4.425,4.4902,4.5324,4.5746,4.6149,4.6535,4.7287,4.7746,4.7746,4.8095,4.8315,4.8315,4.8315,4.8315,4.8443,4.9499,5.038,5.0839,5.1893,5.2774,5.3159,5.3196,5.322,5.3297,5.3469,5.3804,5.4263,5.5354,5.6606,5.7564,5.8174,5.8681,5.9187,5.9383,5.9429,5.9519,5.9572,5.9605,5.9686,5.9719,5.977,5.9872,5.9942,6.001,6.0133,6.0159,6.0253,6.0359,6.0375,6.0417,6.0519,6.0604,6.0686,4.6153,4.5376,4.427,4.3783,4.3719,4.3617,4.3558,4.3488,4.3488,4.3488,4.3488,4.3488,4.3488,4.3488,4.3488,4.3488,4.3488,4.3488,4.3488,4.3488,4.3488,4.3488,4.3488,4.3488,4.3488,4.3488,4.3488,4.3488,4.3488,4.3488,4.3488,4.3488,4.3488,4.3488,4.3488,4.3488,4.3488,4.3488,4.3488,4.3488,4.3488,4.3488,4.3488,4.3488,4.3488,4.3194,4.2616,4.2561,4.2286,4.1709,4.2249,4.2561,4.2607,4.3157,4.3488,4.3488,4.3488,4.3488,4.3488,4.3488,4.3488,4.3524,4.4415,4.5232,4.5883,4.681,4.7351,4.7443,4.7929,4.8278,4.826,4.8296,4.8315,4.8315,4.8315,4.8315,4.8443,4.9783,5.082,5.0967,5.2223,5.3177,5.3196,5.3196,5.322,5.3308,5.3498,5.3616,5.373,5.4272,5.5296,5.652,5.7262,5.7827,5.8689,5.8897,5.9047,5.9318,5.942,5.9446,5.951,5.9526,5.9598,5.9712,5.9797,5.9869,5.9966,6.0029,6.0114,6.0223,6.0253,6.0296,6.0444,6.0532,6.0623,4.6378,4.5944,4.4335,4.3582,4.354,4.3505,4.3496,4.3488,4.3488,4.3488,4.3488,4.3488,4.3488,4.3488,4.3488,4.3488,4.3488,4.3488,4.3488,4.3488,4.3488,4.3488,4.3488,4.3488,4.3488,4.3488,4.3488,4.3488,4.3488,4.3488,4.3488,4.3488,4.3488,4.3488,4.3488,4.3488,4.3488,4.3488,4.3488,4.3488,4.3488,4.3488,4.3488,4.3488,4.3488,4.3469,4.3341,4.3396,4.3341,4.3304,4.3304,4.3378,4.3396,4.3451,4.3488,4.3488,4.3488,4.3488,4.3488,4.3488,4.3488,4.3598,4.4911,4.5773,4.5957,4.7305,4.8186,4.8168,4.8251,4.8315,4.8315,4.8315,4.8315,4.8315,4.8315,4.8315,4.8498,4.9783,5.082,5.082,5.2168,5.3196,5.3177,5.3196,5.322,5.3277,5.3339,5.341,5.3518,5.366,5.407,5.5087,5.5885,5.6843,5.7658,5.7921,5.8193,5.8772,5.9015,5.9055,5.914,5.9271,5.9364,5.9536,5.9616,5.9674,5.9828,5.9918,5.9966,6.0057,6.0129,6.017,6.0368,6.0451,6.0552,4.6265,4.6031,4.4332,4.3556,4.3515,4.3488,4.3488,4.3488,4.3488,4.3488,4.3488,4.3488,4.3488,4.3488,4.3488,4.3488,4.3488,4.3488,4.3488,4.3488,4.3488,4.3488,4.3488,4.3488,4.3488,4.3488,4.3488,4.3488,4.3488,4.3488,4.3488,4.3488,4.3488,4.3488,4.3488,4.3488,4.3488,4.3488,4.3488,4.3488,4.3488,4.3488,4.3488,4.3488,4.3488,4.3488,4.3488,4.3488,4.3488,4.3488,4.3488,4.3488,4.3488,4.3488,4.3488,4.3488,4.3488,4.3488,4.3488,4.3488,4.3488,4.3488,4.4984,4.5902,4.5957,4.7388,4.8315,4.8315,4.8315,4.8315,4.8315,4.8315,4.8315,4.8315,4.8315,4.8315,4.8333,4.937,5.0243,5.0784,5.1775,5.2692,5.3067,5.3196,5.3217,5.3251,5.3256,5.3339,5.338,5.344,5.3649,5.4013,5.4463,5.5335,5.6581,5.6974,5.718,5.7537,5.7985,5.8324,5.8418,5.8877,5.9168,5.9309,5.9392,5.9473,5.9634,5.9702,5.977,5.9856,6.001,6.0087,6.02,6.0292,6.041,4.6338,4.5852,4.4281,4.3539,4.3488,4.3488,4.3488,4.3488,4.3488,4.3488,4.3488,4.3488,4.3488,4.3488,4.3488,4.3488,4.3488,4.3488,4.3488,4.3488,4.3488,4.3488,4.3488,4.348,4.348,4.3479,4.3462,4.3462,4.3479,4.3488,4.3488,4.3488,4.3488,4.3488,4.3488,4.3488,4.3488,4.3488,4.3488,4.3488,4.3488,4.3488,4.3488,4.3488,4.3488,4.3488,4.3488,4.3488,4.3488,4.3488,4.3488,4.3488,4.3488,4.3488,4.3488,4.3488,4.3488,4.3488,4.3488,4.3488,4.3488,4.3616,4.4984,4.5902,4.6159,4.737,4.8223,4.8315,4.8315,4.8315,4.8315,4.8315,4.8315,4.8315,4.8315,4.8315,4.8351,4.9087,4.9831,5.0435,5.1371,5.2307,5.2994,5.3196,5.3196,5.3206,5.3233,5.3266,5.3266,5.3357,5.3427,5.3449,5.3459,5.4161,5.5595,5.5903,5.6028,5.6478,5.7029,5.7318,5.7442,5.8096,5.8639,5.8606,5.8943,5.9253,5.9401,5.9483,5.9562,5.9674,5.9809,5.9947,6.0033,6.0148,6.0231,4.68,4.589,4.4229,4.3515,4.3488,4.3488,4.3488,4.3488,4.3488,4.3488,4.3488,4.3488,4.3488,4.3488,4.3488,4.3488,4.3488,4.3488,4.3479,4.3479,4.3497,4.3488,4.3488,4.3437,4.3419,4.3471,4.3429,4.3437,4.3479,4.3488,4.3488,4.3488,4.3488,4.3488,4.3488,4.3488,4.3488,4.3488,4.3488,4.3488,4.3488,4.3488,4.3488,4.3488,4.3488,4.3488,4.3488,4.3488,4.3488,4.3488,4.3488,4.3488,4.3488,4.3488,4.3488,4.3488,4.3488,4.3488,4.3488,4.3488,4.3524,4.3726,4.5002,4.592,4.6085,4.7425,4.826,4.8315,4.8315,4.8315,4.8315,4.8315,4.8315,4.8315,4.8315,4.8315,4.8315,4.8995,4.9509,4.9913,5.1087,5.2207,5.3031,5.3196,5.3196,5.3196,5.3206,5.3217,5.3217,5.3217,5.3261,5.3297,5.3365,5.3664,5.4562,5.4867,5.5221,5.5606,5.5872,5.6252,5.6631,5.7038,5.7488,5.7965,5.8462,5.8838,5.9112,5.929,5.9401,5.9499,5.9604,5.9751,5.9858,5.9947,6.0033,4.6406,4.5102,4.3982,4.3488,4.3488,4.3488,4.3488,4.3488,4.3488,4.3488,4.3488,4.3488,4.3488,4.3488,4.3488,4.3488,4.3488,4.3488,4.3471,4.3446,4.3437,4.3402,4.3295,4.3277,4.3277,4.3286,4.3277,4.334,4.3437,4.3471,4.3488,4.3488,4.3488,4.3488,4.3488,4.3488,4.3488,4.3488,4.3488,4.3488,4.3488,4.3488,4.3488,4.3488,4.3488,4.3488,4.3488,4.3488,4.3488,4.3488,4.3488,4.3488,4.3488,4.3488,4.3488,4.3488,4.3488,4.3488,4.3488,4.3488,4.3745,4.4287,4.5259,4.6159,4.6718,4.7654,4.8315,4.8315,4.8315,4.8315,4.8315,4.8315,4.8315,4.8315,4.8315,4.8315,4.8351,4.86,4.8967,4.9674,5.0996,5.2115,5.2435,5.2876,5.3177,5.3196,5.3196,5.3196,5.3196,5.3196,5.3217,5.323,5.3241,5.3343,5.3613,5.3881,5.4121,5.4437,5.4736,5.5098,5.5475,5.6132,5.6637,5.6845,5.7481,5.8111,5.8311,5.895,5.9084,5.9336,5.9445,5.9516,5.9666,5.9767,5.9874,4.6076,4.5002,4.3947,4.3488,4.3488,4.3488,4.3488,4.3488,4.3488,4.3488,4.3488,4.3488,4.3488,4.3488,4.3488,4.347,4.3463,4.3463,4.341,4.334,4.3331,4.3296,4.3196,4.3178,4.3178,4.3205,4.3205,4.3269,4.3376,4.3446,4.348,4.3488,4.3488,4.3488,4.3488,4.3488,4.3488,4.3488,4.3488,4.3488,4.3488,4.3488,4.3488,4.3488,4.3488,4.3488,4.3488,4.3488,4.3488,4.3488,4.3488,4.3488,4.3488,4.3488,4.3488,4.3488,4.3488,4.3488,4.3543,4.3745,4.4121,4.47,4.5672,4.6553,4.7104,4.7838,4.8241,4.8315,4.8315,4.8315,4.8315,4.8315,4.8315,4.8315,4.8315,4.8315,4.8315,4.8315,4.8746,4.9509,5.0427,5.1308,5.195,5.2472,5.2865,5.3141,5.3196,5.3196,5.3196,5.3196,5.3196,5.3196,5.3196,5.3206,5.3338,5.3479,5.3564,5.3816,5.3957,5.4216,5.4552,5.5207,5.5628,5.5825,5.6304,5.6999,5.7695,5.8381,5.8817,5.9121,5.9225,5.93,5.9446,5.9588,5.9683,4.592,4.5608,4.4167,4.3488,4.3488,4.3488,4.3488,4.3488,4.3488,4.3488,4.3488,4.3488,4.3488,4.3488,4.3497,4.3454,4.3394,4.3394,4.3332,4.3214,4.3205,4.3205,4.316,4.3114,4.3105,4.3178,4.3196,4.3251,4.3367,4.3412,4.3437,4.347,4.3488,4.3488,4.3488,4.3488,4.3488,4.3488,4.3488,4.3488,4.3488,4.3488,4.3488,4.3488,4.3488,4.3488,4.3488,4.3488,4.3488,4.3488,4.3488,4.3488,4.3488,4.3488,4.3488,4.3488,4.3488,4.3488,4.3635,4.4232,4.4608,4.5122,4.6232,4.7039,4.7324,4.7893,4.8315,4.8315,4.8315,4.8315,4.8315,4.8315,4.8315,4.8315,4.8315,4.8315,4.8315,4.8315,4.8618,4.9325,4.9747,5.0345,5.1473,5.2079,5.2417,5.3012,5.3196,5.3196,5.3196,5.3196,5.3196,5.3196,5.3196,5.3196,5.3196,5.3206,5.3251,5.3332,5.3418,5.3576,5.384,5.4347,5.4607,5.4841,5.5429,5.616,5.7384,5.8052,5.8554,5.8843,5.8928,5.9081,5.9244,5.9373,5.9454,4.5902,4.57,4.4167,4.3488,4.3488,4.3488,4.3488,4.3488,4.3488,4.3488,4.3488,4.3488,4.3488,4.347,4.3445,4.3358,4.326,4.3224,4.3169,4.3169,4.3151,4.3095,4.3003,4.2966,4.2966,4.3022,4.3077,4.3178,4.3278,4.3349,4.3429,4.3489,4.3488,4.3488,4.3488,4.3488,4.3488,4.3488,4.3488,4.3488,4.3488,4.3488,4.3488,4.3488,4.3488,4.3488,4.3488,4.3488,4.3488,4.3488,4.3488,4.3488,4.3488,4.3488,4.3488,4.3488,4.3488,4.38,4.4268,4.4599,4.525,4.6122,4.6856,4.7369,4.7838,4.8131,4.8315,4.8315,4.8315,4.8315,4.8315,4.8315,4.8315,4.8315,4.8315,4.8315,4.8315,4.8315,4.8416,4.871,4.9215,5.0041,5.0977,5.1555,5.2252,5.3031,5.3196,5.3196,5.3196,5.3196,5.3196,5.3196,5.3196,5.3196,5.3196,5.3196,5.3227,5.3241,5.3261,5.3254,5.3434,5.3568,5.3783,5.4109,5.4695,5.557,5.6792,5.7637,5.8122,5.8613,5.8815,5.8962,5.9081,5.9168,5.9262,4.5902,4.5718,4.4167,4.3488,4.3488,4.3488,4.3488,4.3488,4.3488,4.3488,4.3488,4.3488,4.3489,4.3445,4.3411,4.3305,4.3187,4.3423,4.3512,4.3393,4.3103,4.2984,4.291,4.291,4.291,4.2919,4.2984,4.3077,4.3205,4.3296,4.3394,4.347,4.3488,4.3488,4.3488,4.3488,4.3488,4.3488,4.3488,4.3488,4.3488,4.3488,4.3488,4.3488,4.3488,4.3488,4.3488,4.3488,4.3488,4.3488,4.3488,4.3488,4.3488,4.3488,4.3488,4.3543,4.3818,4.4195,4.47,4.5305,4.5957,4.6929,4.7369,4.7728,4.8205,4.8315,4.8315,4.8315,4.8315,4.8315,4.8315,4.8315,4.8315,4.8315,4.8315,4.8315,4.8315,4.8315,4.8315,4.8462,4.8765,4.9609,5.06,5.1169,5.205,5.2865,5.3196,5.3196,5.3196,5.3196,5.3196,5.3196,5.3196,5.3196,5.3196,5.3196,5.3196,5.3206,5.3206,5.3217,5.3285,5.3335,5.3466,5.3747,5.4212,5.5123,5.6288,5.7027,5.7622,5.8103,5.8667,5.877,5.8874,5.9012,5.9119,4.5902,4.569,4.4167,4.3488,4.3488,4.3488,4.3488,4.3488,4.3488,4.3488,4.3488,4.3488,4.3472,4.3402,4.3495,4.3479,4.335,4.4022,4.4263,4.3996,4.357,4.3271,4.328,4.3153,4.3108,4.3073,4.2973,4.3022,4.3205,4.3205,4.3295,4.3489,4.3488,4.3488,4.3488,4.3488,4.3488,4.3488,4.3488,4.3488,4.3488,4.3488,4.3488,4.3488,4.3488,4.3488,4.3488,4.3488,4.3488,4.3488,4.3488,4.3488,4.3488,4.3488,4.3488,4.3543,4.4232,4.4626,4.5067,4.6076,4.7003,4.7259,4.7838,4.8315,4.8296,4.8315,4.8315,4.8315,4.8315,4.8315,4.8315,4.8315,4.8315,4.8315,4.8315,4.8315,4.8315,4.8315,4.8315,4.8315,4.8406,4.8939,5.0527,5.0857,5.1665,5.2737,5.3196,5.3196,5.3196,5.3196,5.3196,5.3196,5.3196,5.3196,5.3196,5.3196,5.3196,5.3196,5.3196,5.3196,5.3196,5.3206,5.3227,5.3479,5.386,5.477,5.5633,5.6427,5.733,5.8123,5.8457,5.8543,5.8658,5.8832,5.8971,4.5902,4.5718,4.4167,4.3488,4.3488,4.3488,4.3488,4.3488,4.3488,4.3488,4.3488,4.3488,4.3472,4.3458,4.3935,4.4071,4.4168,4.4699,4.4963,4.4819,4.4646,4.452,4.4375,4.3906,4.3702,4.3715,4.3263,4.3013,4.3196,4.3233,4.3313,4.3479,4.3488,4.3488,4.3488,4.3488,4.3488,4.3488,4.3488,4.3488,4.3488,4.3488,4.3488,4.3488,4.3488,4.3488,4.3488,4.3488,4.3488,4.3488,4.3488,4.3488,4.3488,4.3488,4.3524,4.369,4.4287,4.5012,4.5654,4.6553,4.7342,4.7911,4.815,4.8296,4.8315,4.8315,4.8315,4.8315,4.8315,4.8315,4.8315,4.8315,4.8315,4.8315,4.8315,4.8315,4.8315,4.8315,4.8315,4.8315,4.8315,4.9122,5.026,5.0894,5.1453,5.2737,5.3196,5.3196,5.3196,5.3196,5.3196,5.3196,5.3196,5.3196,5.3196,5.3196,5.3196,5.3196,5.3196,5.3196,5.3196,5.3196,5.3196,5.328,5.3595,5.4346,5.5168,5.5984,5.6974,5.8058,5.8305,5.8451,5.8551,5.8677,5.8809,4.5902,4.5764,4.4167,4.3488,4.3488,4.3488,4.3488,4.3488,4.3488,4.3488,4.3488,4.3488,4.3629,4.3862,4.4227,4.4534,4.4791,4.5466,4.5719,4.566,4.5855,4.5631,4.5135,4.457,4.4476,4.4484,4.3788,4.3576,4.3615,4.3388,4.3322,4.3453,4.3488,4.3488,4.3488,4.3488,4.3488,4.3488,4.3488,4.3488,4.3488,4.3488,4.3488,4.3488,4.3488,4.3488,4.3488,4.3488,4.3488,4.3488,4.3488,4.3488,4.3488,4.3488,4.3653,4.3983,4.4764,4.5562,4.6351,4.714,4.7783,4.8186,4.8315,4.8315,4.8315,4.8315,4.8315,4.8315,4.8315,4.8315,4.8315,4.8315,4.8315,4.8315,4.8315,4.8315,4.8315,4.8315,4.8315,4.8315,4.8388,4.892,5.0553,5.0784,5.1636,5.27,5.3196,5.3196,5.3196,5.3196,5.3196,5.3196,5.3196,5.3196,5.3196,5.3196,5.3196,5.3196,5.3196,5.3196,5.3196,5.3196,5.3196,5.3251,5.3489,5.3995,5.4993,5.5934,5.69,5.7729,5.8076,5.832,5.84,5.8519,5.8654,4.5902,4.5755,4.4158,4.3488,4.3488,4.3488,4.3488,4.3488,4.3488,4.3488,4.3488,4.3488,4.3796,4.4409,4.4563,4.486,4.5482,4.6269,4.6468,4.6577,4.6719,4.6518,4.5668,4.5341,4.5314,4.5271,4.4612,4.4393,4.4307,4.3771,4.3523,4.3646,4.3616,4.3488,4.3488,4.3488,4.3488,4.3488,4.3488,4.3488,4.3488,4.3488,4.3488,4.3488,4.3488,4.3488,4.3488,4.3488,4.3488,4.3488,4.3488,4.3488,4.3506,4.3524,4.3938,4.4672,4.5452,4.6333,4.7021,4.7709,4.8241,4.8315,4.8315,4.8315,4.8315,4.8315,4.8315,4.8315,4.8315,4.8315,4.8315,4.8315,4.8315,4.8315,4.8315,4.8315,4.8315,4.8315,4.8315,4.8333,4.8351,4.9242,5.0215,5.0994,5.1508,5.2847,5.3196,5.3196,5.3196,5.3196,5.3196,5.3196,5.3196,5.3196,5.3196,5.3196,5.3196,5.3196,5.3196,5.3196,5.3196,5.3196,5.3196,5.3306,5.3654,5.4326,5.5284,5.6183,5.7046,5.7602,5.8067,5.8174,5.8231,5.8345,5.8494,4.5902,4.5755,4.4167,4.3488,4.3488,4.3488,4.3488,4.3488,4.3488,4.3488,4.3506,4.3506,4.3887,4.4472,4.5082,4.5668,4.6307,4.7001,4.7354,4.7273,4.7226,4.7255,4.6765,4.6301,4.6093,4.6011,4.5417,4.5164,4.5118,4.4628,4.4254,4.437,4.3965,4.3524,4.3598,4.3635,4.3506,4.3488,4.3506,4.3488,4.3488,4.3488,4.3488,4.3488,4.3488,4.3488,4.3488,4.3488,4.3488,4.3488,4.3488,4.3488,4.3579,4.4066,4.4488,4.4975,4.6049,4.6892,4.7223,4.7838,4.8315,4.8315,4.8315,4.8315,4.8315,4.8315,4.8315,4.8315,4.8315,4.8315,4.8315,4.8315,4.8315,4.8315,4.8315,4.8315,4.8315,4.8315,4.8315,4.8471,4.8912,4.9692,5.0674,5.1389,5.2068,5.2976,5.3196,5.3196,5.3196,5.3196,5.3196,5.3196,5.3196,5.3196,5.3196,5.3196,5.3196,5.3196,5.3196,5.3196,5.3196,5.3196,5.3196,5.3471,5.3885,5.4685,5.553,5.6374,5.7219,5.7652,5.8031,5.8077,5.8163,5.8234,5.8345,4.5902,4.5746,4.4167,4.3488,4.3488,4.3488,4.3488,4.3488,4.3488,4.3488,4.3598,4.3846,4.4445,4.5085,4.5822,4.6516,4.7083,4.7429,4.7565,4.7472,4.7374,4.7374,4.7443,4.7108,4.6898,4.6918,4.6319,4.6076,4.5929,4.5486,4.5132,4.5241,4.4782,4.4745,4.4516,4.425,4.4121,4.3993,4.3671,4.3488,4.3488,4.3488,4.3488,4.3488,4.3488,4.3488,4.3488,4.3488,4.3488,4.3488,4.3506,4.3506,4.3635,4.4259,4.481,4.5415,4.6324,4.7296,4.7681,4.8021,4.8315,4.8315,4.8315,4.8315,4.8315,4.8315,4.8315,4.8315,4.8315,4.8315,4.8315,4.8315,4.8315,4.8315,4.8315,4.8315,4.8315,4.8315,4.8526,4.882,4.9307,5.0188,5.1032,5.1767,5.2325,5.3049,5.3196,5.3196,5.3196,5.3196,5.3196,5.3196,5.3196,5.3196,5.3196,5.3196,5.3196,5.3196,5.3196,5.3196,5.3196,5.3196,5.3196,5.3563,5.3977,5.4851,5.5713,5.6547,5.7299,5.7733,5.802,5.8042,5.8106,5.8167,5.8286,4.5902,4.5773,4.4185,4.3488,4.3488,4.3488,4.3488,4.3488,4.3488,4.3488,4.3653,4.436,4.4976,4.5781,4.6444,4.7183,4.7622,4.7631,4.7554,4.7533,4.7468,4.745,4.7496,4.7482,4.7506,4.7637,4.715,4.6934,4.6797,4.6374,4.6029,4.603,4.5865,4.5645,4.5626,4.5278,4.4892,4.4819,4.4378,4.4093,4.4075,4.4057,4.4057,4.4075,4.4093,4.4093,4.4112,4.4075,4.3983,4.3873,4.3873,4.3855,4.402,4.4452,4.5232,4.6049,4.692,4.7571,4.8039,4.826,4.8315,4.8315,4.8315,4.8315,4.8315,4.8315,4.8315,4.8315,4.8315,4.8315,4.8315,4.8315,4.8315,4.8315,4.8315,4.8379,4.8489,4.8489,4.8912,4.9399,5.0041,5.0922,5.1546,5.2179,5.2627,5.3012,5.3122,5.3196,5.3196,5.3196,5.3196,5.3196,5.3196,5.3196,5.3196,5.3196,5.3196,5.3196,5.3196,5.3196,5.3196,5.3196,5.3269,5.3618,5.4161,5.5034,5.5952,5.687,5.7483,5.7861,5.799,5.802,5.8054,5.8099,5.8219,4.5902,4.5755,4.4167,4.3488,4.3488,4.3488,4.3488,4.3488,4.3488,4.3488,4.3616,4.4351,4.5168,4.5846,4.6499,4.7143,4.7664,4.7668,4.7646,4.7646,4.7615,4.7636,4.7636,4.7668,4.7738,4.7822,4.7694,4.7674,4.7564,4.7169,4.6891,4.6755,4.6342,4.6049,4.6067,4.5764,4.5691,4.5672,4.5369,4.525,4.525,4.5268,4.525,4.525,4.5213,4.5268,4.5351,4.5433,4.5507,4.5498,4.5507,4.547,4.5443,4.559,4.6067,4.6755,4.7526,4.8095,4.8278,4.8315,4.8315,4.8315,4.8315,4.8315,4.8315,4.8315,4.8315,4.8315,4.8315,4.8315,4.8315,4.8315,4.8315,4.8315,4.8434,4.8618,4.9123,4.9454,4.9545,4.9978,5.0822,5.1601,5.2105,5.2527,5.2847,5.3086,5.3141,5.3196,5.3196,5.3196,5.3196,5.3196,5.3196,5.3196,5.3196,5.3196,5.3196,5.3196,5.3196,5.3196,5.3196,5.3196,5.3361,5.3563,5.4289,5.5291,5.6209,5.709,5.7604,5.7941,5.7978,5.7978,5.8013,5.8065,5.8111,4.5645,4.514,4.3983,4.3488,4.3488,4.3488,4.3488,4.3488,4.3488,4.3488,4.3873,4.4745,4.5489,4.6094,4.7079,4.7642,4.7723,4.7728,4.7717,4.7689,4.7689,4.7689,4.7728,4.7759,4.784,4.7912,4.8004,4.8067,4.8082,4.7832,4.7652,4.7653,4.7287,4.715,4.7021,4.6755,4.6571,4.6461,4.6159,4.5938,4.5938,4.5938,4.5938,4.592,4.5938,4.5902,4.5902,4.5902,4.5892,4.5865,4.5883,4.614,4.6397,4.6571,4.6682,4.7186,4.7856,4.8315,4.8315,4.8315,4.8315,4.8315,4.8315,4.8315,4.8315,4.8315,4.8315,4.8315,4.8315,4.8315,4.8315,4.8333,4.8315,4.8388,4.8673,4.916,4.9656,5.0345,5.062,5.0749,5.1363,5.206,5.2601,5.292,5.3122,5.3196,5.3196,5.3196,5.3196,5.3196,5.3196,5.3196,5.3196,5.3196,5.3196,5.3196,5.3196,5.3196,5.3196,5.3196,5.3196,5.3196,5.3196,5.3287,5.4252,5.5511,5.6136,5.687,5.7439,5.7978,5.7978,5.7978,5.7978,5.8001,5.8077,4.5415,4.4645,4.3828,4.3488,4.3488,4.3488,4.3488,4.3488,4.3488,4.3488,4.3726,4.5076,4.5847,4.6296,4.7293,4.8078,4.7904,4.7804,4.7783,4.7783,4.7783,4.7772,4.7793,4.7853,4.7953,4.8024,4.8097,4.8187,4.8197,4.8184,4.8268,4.8186,4.826,4.8296,4.8058,4.7562,4.7397,4.714,4.6773,4.6397,4.6379,4.6379,4.6397,4.6379,4.6397,4.6471,4.6581,4.6599,4.6581,4.6562,4.6562,4.6728,4.7214,4.7333,4.7333,4.7434,4.7948,4.8223,4.8315,4.8315,4.8315,4.8315,4.8315,4.8315,4.8315,4.8315,4.8315,4.8315,4.8315,4.8315,4.8333,4.848,4.86,4.8783,4.9334,4.9986,5.0463,5.1069,5.1748,5.195,5.2189,5.2454,5.292,5.3049,5.3177,5.3196,5.3196,5.3196,5.3196,5.3196,5.3196,5.3196,5.3196,5.3196,5.3196,5.3196,5.3196,5.3196,5.3196,5.3196,5.3196,5.3196,5.3214,5.3306,5.4546,5.5695,5.6191,5.676,5.7531,5.7978,5.7978,5.7978,5.7978,5.799,5.8031,4.5424,4.4626,4.3828,4.3488,4.3488,4.3488,4.3488,4.3488,4.3488,4.3488,4.369,4.5131,4.592,4.6397,4.755,4.8073,4.802,4.796,4.7921,4.7929,4.7921,4.7921,4.796,4.799,4.8058,4.8126,4.8168,4.8187,4.8208,4.8286,4.8315,4.8315,4.8315,4.8315,4.8278,4.8076,4.8168,4.8113,4.8003,4.7911,4.7902,4.7856,4.7865,4.7884,4.7865,4.781,4.7719,4.7709,4.7774,4.7847,4.7911,4.8021,4.8159,4.815,4.815,4.8168,4.8241,4.8315,4.8315,4.8315,4.8315,4.8315,4.8315,4.8315,4.8315,4.8315,4.8315,4.8315,4.8351,4.8425,4.8618,4.9058,4.9325,4.9711,5.0141,5.0894,5.1473,5.1693,5.238,5.2637,5.2711,5.2847,5.3141,5.3177,5.3196,5.3196,5.3196,5.3196,5.3196,5.3196,5.3196,5.3196,5.3196,5.3196,5.3196,5.3196,5.3196,5.3196,5.3196,5.3196,5.3196,5.3214,5.3287,5.3673,5.4876,5.5732,5.6172,5.6833,5.7666,5.7978,5.7978,5.7978,5.7978,5.799,5.8008,4.4745,4.3993,4.3635,4.3488,4.3488,4.3488,4.3488,4.3488,4.3488,4.3763,4.4323,4.536,4.6361,4.7204,4.8016,4.8159,4.8128,4.8032,4.8002,4.8012,4.8012,4.8002,4.803,4.808,4.8168,4.8197,4.8228,4.8267,4.8258,4.8286,4.8315,4.8315,4.8315,4.8315,4.8315,4.8315,4.8296,4.8278,4.8278,4.8296,4.8315,4.8315,4.8315,4.8315,4.8315,4.8315,4.8315,4.8315,4.8315,4.8315,4.8315,4.8315,4.8296,4.8296,4.8296,4.8296,4.8296,4.8315,4.8315,4.8315,4.8315,4.8315,4.8315,4.8315,4.8315,4.8333,4.8333,4.8315,4.8783,4.8985,4.915,4.9793,5.0133,5.0518,5.1004,5.1426,5.205,5.2509,5.2865,5.3067,5.3196,5.3196,5.3196,5.3196,5.3196,5.3196,5.3196,5.3196,5.3196,5.3196,5.3196,5.3196,5.3196,5.3196,5.3196,5.3196,5.3196,5.3196,5.3196,5.3196,5.3196,5.3232,5.3343,5.3885,5.495,5.5647,5.6143,5.695,5.785,5.7978,5.7978,5.7978,5.7978,5.799,5.8042,4.4232,4.3506,4.3488,4.3488,4.3488,4.3488,4.3488,4.3488,4.3488,4.3938,4.4828,4.5773,4.7021,4.8012,4.821,4.8236,4.8208,4.8111,4.8082,4.8082,4.8082,4.8092,4.8121,4.8179,4.8236,4.8236,4.8258,4.8287,4.8305,4.8315,4.8315,4.8315,4.8315,4.8315,4.8315,4.8315,4.8315,4.8315,4.8315,4.8315,4.8315,4.8315,4.8315,4.8315,4.8315,4.8315,4.8315,4.8315,4.8315,4.8315,4.8315,4.8315,4.8315,4.8315,4.8315,4.8315,4.8315,4.8315,4.8315,4.8315,4.8315,4.8315,4.8315,4.8315,4.8333,4.8398,4.8618,4.8746,4.9444,4.9793,5.0059,5.06,5.0986,5.1363,5.1793,5.2068,5.2344,5.2755,5.3031,5.3122,5.3196,5.3196,5.3196,5.3196,5.3196,5.3196,5.3196,5.3196,5.3196,5.3196,5.3196,5.3196,5.3196,5.3196,5.3196,5.3196,5.3196,5.3196,5.3196,5.3196,5.3196,5.3324,5.3471,5.4216,5.5115,5.5776,5.6381,5.7226,5.7978,5.7978,5.7978,5.7978,5.7978,5.7978,5.8077,4.4232,4.3488,4.3488,4.3488,4.3488,4.3488,4.3488,4.3488,4.3488,4.3993,4.4975,4.6287,4.7489,4.8103,4.8305,4.8295,4.8305,4.8287,4.8258,4.8258,4.8277,4.8248,4.8248,4.8258,4.8277,4.8295,4.8296,4.8296,4.8315,4.8315,4.8315,4.8315,4.8315,4.8315,4.8315,4.8315,4.8315,4.8315,4.8315,4.8315,4.8315,4.8315,4.8315,4.8315,4.8315,4.8315,4.8315,4.8315,4.8315,4.8315,4.8315,4.8315,4.8315,4.8315,4.8315,4.8315,4.8315,4.8315,4.8315,4.8315,4.8315,4.8315,4.8315,4.837,4.8545,4.9123,4.9399,4.9545,5.0251,5.0637,5.093,5.1353,5.1848,5.2087,5.2417,5.2645,5.281,5.292,5.3159,5.3177,5.3196,5.3196,5.3196,5.3196,5.3196,5.3196,5.3196,5.3196,5.3196,5.3196,5.3196,5.3196,5.3196,5.3196,5.3196,5.3196,5.3196,5.3196,5.3196,5.3196,5.3196,5.3379,5.3746,5.4509,5.5372,5.6014,5.6657,5.7428,5.796,5.7978,5.7978,5.7978,5.7978,5.7978,5.8122,4.4232,4.3506,4.3488,4.3488,4.3488,4.3488,4.3488,4.3488,4.3506,4.4259,4.5535,4.7085,4.8003,4.8241,4.8315,4.8315,4.8315,4.8315,4.8315,4.8315,4.8315,4.8315,4.8315,4.8315,4.8315,4.8315,4.8315,4.8315,4.8315,4.8315,4.8315,4.8315,4.8315,4.8315,4.8315,4.8315,4.8315,4.8315,4.8315,4.8315,4.8315,4.8315,4.8315,4.8315,4.8315,4.8315,4.8315,4.8315,4.8315,4.8315,4.8315,4.8315,4.8315,4.8315,4.8315,4.8315,4.8315,4.8315,4.8315,4.8315,4.8315,4.8315,4.8333,4.8508,4.894,4.9472,4.9894,5.0353,5.1059,5.1499,5.1638,5.2215,5.2766,5.2829,5.2939,5.3122,5.3196,5.3196,5.3196,5.3196,5.3196,5.3196,5.3196,5.3196,5.3196,5.3196,5.3196,5.3196,5.3196,5.3196,5.3196,5.3196,5.3196,5.3196,5.3196,5.3196,5.3196,5.3196,5.3196,5.3287,5.3379,5.3856,5.4308,5.5005,5.5739,5.651,5.7171,5.7685,5.7941,5.7978,5.7978,5.7978,5.7978,5.7978,5.8145,4.4232,4.3524,4.3488,4.3488,4.3488,4.3488,4.3488,4.3543,4.3781,4.4764,4.6342,4.7691,4.8315,4.8315,4.8315,4.8315,4.8315,4.8315,4.8315,4.8315,4.8315,4.8315,4.8315,4.8315,4.8315,4.8315,4.8315,4.8315,4.8315,4.8315,4.8315,4.8315,4.8315,4.8315,4.8315,4.8315,4.8315,4.8315,4.8315,4.8315,4.8315,4.8315,4.8315,4.8315,4.8315,4.8315,4.8315,4.8315,4.8315,4.8315,4.8315,4.8315,4.8315,4.8315,4.8315,4.8315,4.8315,4.8315,4.8315,4.8315,4.8315,4.8315,4.8691,4.9031,4.9454,4.9986,5.0794,5.1132,5.1877,5.2354,5.2344,5.2839,5.3067,5.3049,5.3049,5.3196,5.3196,5.3196,5.3196,5.3196,5.3196,5.3196,5.3196,5.3196,5.3196,5.3196,5.3196,5.3196,5.3196,5.3196,5.3196,5.3196,5.3196,5.3196,5.3196,5.3196,5.3196,5.3196,5.3251,5.3471,5.3691,5.4179,5.4932,5.5776,5.6492,5.7152,5.7556,5.7886,5.796,5.7978,5.7978,5.7978,5.7978,5.8001,5.8152,4.4305,4.3524,4.3561,4.3579,4.3653,4.3506,4.3524,4.3745,4.448,4.5581,4.6975,4.7929,4.8315,4.8315,4.8315,4.8315,4.8315,4.8315,4.8315,4.8315,4.8315,4.8315,4.8315,4.8315,4.8315,4.8315,4.8315,4.8315,4.8315,4.8315,4.8315,4.8315,4.8315,4.8315,4.8315,4.8315,4.8315,4.8315,4.8315,4.8315,4.8315,4.8315,4.8315,4.8315,4.8315,4.8315,4.8315,4.8315,4.8315,4.8315,4.8315,4.8315,4.8315,4.8315,4.8315,4.8315,4.8315,4.8315,4.8333,4.8351,4.8517,4.8655,4.9142,4.9711,5.0023,5.0812,5.1767,5.1977,5.2601,5.2994,5.3122,5.3159,5.3196,5.3196,5.3196,5.3196,5.3196,5.3196,5.3196,5.3196,5.3196,5.3196,5.3196,5.3196,5.3196,5.3196,5.3196,5.3196,5.3196,5.3196,5.3196,5.3196,5.3196,5.3196,5.3196,5.3196,5.3196,5.3196,5.3306,5.3508,5.394,5.4473,5.5335,5.64,5.7005,5.7464,5.7721,5.7978,5.7978,5.7978,5.7978,5.7978,5.7978,5.8031,5.8163,4.5819,4.5103,4.5094,4.5076,4.4938,4.3928,4.38,4.447,4.5654,4.6599,4.7186,4.7948,4.8315,4.8315,4.8315,4.8315,4.8315,4.8315,4.8315,4.8315,4.8315,4.8315,4.8315,4.8315,4.8315,4.8315,4.8315,4.8315,4.8315,4.8315,4.8315,4.8315,4.8315,4.8315,4.8315,4.8315,4.8315,4.8315,4.8315,4.8315,4.8315,4.8315,4.8315,4.8315,4.8315,4.8315,4.8315,4.8315,4.8315,4.8315,4.8315,4.8315,4.8315,4.8315,4.8315,4.8315,4.8333,4.8618,4.9114,4.9545,4.9692,4.9674,4.9884,5.061,5.1198,5.1565,5.2207,5.2637,5.2957,5.3196,5.3196,5.3196,5.3196,5.3196,5.3196,5.3196,5.3196,5.3196,5.3196,5.3196,5.3196,5.3196,5.3196,5.3196,5.3196,5.3196,5.3196,5.3196,5.3196,5.3196,5.3196,5.3196,5.3196,5.3196,5.3196,5.3196,5.3196,5.3196,5.3324,5.3544,5.4051,5.4821,5.5684,5.6748,5.7244,5.7703,5.785,5.7978,5.7978,5.7978,5.7978,5.7978,5.7978,5.8042,5.8129,4.6627,4.592,4.5902,4.5902,4.5736,4.4773,4.48,4.5636,4.6654,4.7241,4.7617,4.8095,4.8315,4.8315,4.8315,4.8315,4.8315,4.8315,4.8315,4.8315,4.8315,4.8315,4.8315,4.8315,4.8315,4.8315,4.8315,4.8315,4.8315,4.8315,4.8315,4.8315,4.8315,4.8315,4.8315,4.8315,4.8315,4.8315,4.8315,4.8315,4.8315,4.8315,4.8315,4.8315,4.8315,4.8315,4.8315,4.8315,4.8315,4.8315,4.8315,4.8315,4.8315,4.8315,4.8315,4.8315,4.8691,4.9142,4.9949,5.0739,5.0794,5.061,5.0986,5.1426,5.1987,5.2262,5.2637,5.2994,5.3177,5.3196,5.3196,5.3196,5.3196,5.3196,5.3196,5.3196,5.3196,5.3196,5.3196,5.3196,5.3196,5.3196,5.3196,5.3196,5.3196,5.3196,5.3196,5.3196,5.3196,5.3196,5.3196,5.3196,5.3196,5.3196,5.3196,5.3196,5.3196,5.3196,5.3526,5.3922,5.4693,5.5537,5.6308,5.6987,5.7483,5.785,5.7905,5.7978,5.7978,5.7978,5.7978,5.7978,5.7978,5.8042,5.8106,4.67,4.6012,4.5975,4.6058,4.5993,4.5993,4.6397,4.7058,4.7131,4.759,4.826,4.826,4.8315,4.8315,4.8315,4.8315,4.8315,4.8315,4.8315,4.8315,4.8315,4.8315,4.8315,4.8315,4.8315,4.8315,4.8315,4.8315,4.8315,4.8315,4.8315,4.8315,4.8315,4.8315,4.8315,4.8315,4.8315,4.8315,4.8315,4.8315,4.8315,4.8315,4.8315,4.8315,4.8315,4.8315,4.8315,4.8315,4.8315,4.8315,4.8315,4.8315,4.8315,4.8343,4.8351,4.8673,4.9325,5.0133,5.0794,5.1573,5.194,5.1822,5.195,5.206,5.2252,5.2692,5.2976,5.3122,5.3196,5.3196,5.3196,5.3196,5.3196,5.3196,5.3196,5.3196,5.3196,5.3196,5.3196,5.3196,5.3196,5.3196,5.3196,5.3196,5.3196,5.3196,5.3196,5.3196,5.3196,5.3196,5.3196,5.3196,5.3196,5.3196,5.3232,5.3361,5.3544,5.3636,5.4234,5.4711,5.55,5.6161,5.6767,5.7317,5.774,5.7978,5.7978,5.7978,5.7978,5.7978,5.7978,5.7978,5.7978,5.8008,5.8072,4.7819,4.7599,4.7599,4.7627,4.7609,4.7599,4.7434,4.7204,4.7681,4.8131,4.8315,4.8315,4.8315,4.8315,4.8315,4.8315,4.8315,4.8315,4.8315,4.8315,4.8315,4.8315,4.8315,4.8315,4.8315,4.8315,4.8315,4.8315,4.8315,4.8315,4.8315,4.8315,4.8315,4.8315,4.8315,4.8315,4.8315,4.8315,4.8315,4.8315,4.8315,4.8315,4.8315,4.8315,4.8315,4.8315,4.8315,4.8315,4.8315,4.8315,4.8315,4.8315,4.8315,4.8875,4.9362,5.0141,5.082,5.1491,5.1748,5.2399,5.281,5.2755,5.2784,5.2858,5.2939,5.3012,5.3196,5.3196,5.3196,5.3196,5.3196,5.3196,5.3196,5.3196,5.3196,5.3196,5.3196,5.3196,5.3196,5.3196,5.3196,5.3196,5.3196,5.3196,5.3196,5.3196,5.3214,5.3232,5.3232,5.3251,5.3196,5.3196,5.3398,5.3453,5.3581,5.3728,5.394,5.4197,5.4821,5.5445,5.6106,5.6701,5.7207,5.7574,5.7886,5.7978,5.7978,5.7978,5.7978,5.7978,5.7978,5.7978,5.7978,5.8008,5.8049,4.8315,4.8315,4.8315,4.8315,4.8315,4.8315,4.7984,4.7709,4.8104,4.8315,4.8315,4.8315,4.8315,4.8315,4.8315,4.8315,4.8315,4.8315,4.8315,4.8315,4.8315,4.8315,4.8315,4.8315,4.8315,4.8315,4.8315,4.8315,4.8315,4.8315,4.8315,4.8315,4.8315,4.8315,4.8315,4.8315,4.8315,4.8315,4.8315,4.8315,4.8315,4.8315,4.8315,4.8315,4.8315,4.8315,4.8315,4.8315,4.8315,4.8434,4.8489,4.8802,4.8967,4.9619,5.0427,5.1114,5.1546,5.2079,5.2435,5.2847,5.3122,5.3196,5.3196,5.3159,5.3159,5.3159,5.3196,5.3196,5.3196,5.3196,5.3196,5.3196,5.3196,5.3196,5.3196,5.3196,5.3196,5.3196,5.3196,5.3196,5.3196,5.3196,5.3196,5.3196,5.3196,5.3196,5.3324,5.3489,5.3453,5.3398,5.3287,5.3196,5.3526,5.3812,5.3995,5.4278,5.4656,5.5042,5.5629,5.6235,5.6774,5.7171,5.7593,5.7795,5.7941,5.7978,5.7978,5.7978,5.7978,5.7978,5.7978,5.7978,5.7978,5.799,5.8031,4.8315,4.8315,4.8315,4.8315,4.8315,4.8315,4.8278,4.8315,4.8296,4.8315,4.8315,4.8315,4.8315,4.8315,4.8315,4.8315,4.8315,4.8315,4.8315,4.8315,4.8315,4.8315,4.8315,4.8315,4.8315,4.8315,4.8315,4.8315,4.8315,4.8315,4.8315,4.8315,4.8315,4.8315,4.8315,4.8315,4.8315,4.8315,4.8315,4.8315,4.8315,4.8315,4.8315,4.8315,4.8315,4.8315,4.8315,4.8315,4.8361,4.8655,4.9013,4.9472,5.0096,5.0463,5.1261,5.1811,5.2197,5.2509,5.2847,5.3141,5.3159,5.3196,5.3196,5.3196,5.3196,5.3196,5.3196,5.3196,5.3196,5.3196,5.3196,5.3196,5.3196,5.3196,5.3196,5.3196,5.3196,5.3196,5.3196,5.3196,5.3196,5.3214,5.3269,5.3306,5.3673,5.3453,5.371,5.4003,5.4021,5.394,5.3856,5.371,5.4069,5.4528,5.4711,5.5042,5.55,5.5959,5.6455,5.6804,5.7207,5.7574,5.7941,5.7978,5.7978,5.7978,5.7978,5.7978,5.7978,5.7978,5.7978,5.7978,5.7997,5.8107,5.8075,4.8315,4.8315,4.8315,4.8315,4.8315,4.8315,4.8315,4.8315,4.8315,4.8315,4.8315,4.8315,4.8315,4.8315,4.8315,4.8315,4.8315,4.8315,4.8315,4.8315,4.8315,4.8315,4.8315,4.8315,4.8315,4.8315,4.8315,4.8315,4.8315,4.8315,4.8315,4.8315,4.8315,4.8315,4.8315,4.8315,4.8315,4.8315,4.8315,4.8315,4.8315,4.8315,4.8315,4.8315,4.8315,4.8315,4.8315,4.8361,4.8746,4.9233,4.9435,5.0206,5.1344,5.1601,5.2105,5.2729,5.2829,5.2976,5.3086,5.3196,5.3196,5.3196,5.3196,5.3196,5.3196,5.3196,5.3196,5.3196,5.3196,5.3196,5.3196,5.3196,5.3196,5.3196,5.3196,5.3196,5.3214,5.3232,5.3232,5.3251,5.3251,5.3361,5.3471,5.3673,5.3995,5.4399,5.4876,5.5163,5.5163,5.5126,5.5188,5.5097,5.5078,5.5383,5.5519,5.5868,5.6345,5.6693,5.7116,5.7409,5.7629,5.7795,5.7978,5.7978,5.7978,5.7978,5.7978,5.7978,5.7978,5.7978,5.818,5.8272,5.8437,5.8565,5.8364,4.8315,4.8315,4.8315,4.8315,4.8315,4.8315,4.8315,4.8315,4.8315,4.8315,4.8315,4.8315,4.8315,4.8315,4.8315,4.8315,4.8315,4.8315,4.8315,4.8315,4.8315,4.8315,4.8315,4.8315,4.8315,4.8315,4.8315,4.8315,4.8315,4.8315,4.8315,4.8315,4.8315,4.8315,4.8315,4.8315,4.8315,4.8315,4.8315,4.8315,4.8315,4.8315,4.8315,4.8315,4.8315,4.8315,4.8489,4.86,4.9142,4.9831,5.0271,5.1261,5.2179,5.2491,5.2729,5.3012,5.3159,5.3196,5.3196,5.3196,5.3196,5.3196,5.3196,5.3196,5.3196,5.3196,5.3196,5.3196,5.3196,5.3196,5.3196,5.3196,5.3196,5.3196,5.3196,5.3196,5.3398,5.3599,5.371,5.3875,5.4087,5.4564,5.4638,5.4675,5.4924,5.495,5.5511,5.597,5.6025,5.6154,5.6282,5.6338,5.6227,5.6172,5.6235,5.6675,5.7244,5.7556,5.7685,5.7758,5.7813,5.7905,5.7978,5.7978,5.7978,5.7978,5.7978,5.8088,5.8015,5.7978,5.8309,5.8627,5.8829,5.9123,5.9245,4.8315,4.8315,4.8315,4.8315,4.8315,4.8315,4.8315,4.8315,4.8315,4.8315,4.8315,4.8315,4.8315,4.8315,4.8315,4.8315,4.8315,4.8315,4.8315,4.8315,4.8315,4.8315,4.8315,4.8315,4.8315,4.8315,4.8315,4.8315,4.8315,4.8315,4.8315,4.8315,4.8315,4.8315,4.8315,4.8315,4.8315,4.8315,4.8315,4.8315,4.8315,4.8315,4.8315,4.8315,4.8315,4.8333,4.8673,4.9068,4.9555,5.0463,5.1289,5.216,5.2719,5.2994,5.3049,5.3196,5.3196,5.3196,5.3196,5.3196,5.3196,5.3196,5.3196,5.3196,5.3196,5.3196,5.3196,5.3196,5.3196,5.3196,5.3196,5.3196,5.3196,5.3306,5.3306,5.3526,5.3838,5.4142,5.4344,5.4546,5.4961,5.5493,5.5567,5.5603,5.575,5.575,5.5989,5.6363,5.6712,5.6895,5.706,5.7116,5.7079,5.7042,5.6987,5.7226,5.774,5.7795,5.785,5.7923,5.7978,5.7978,5.7978,5.7978,5.7978,5.8088,5.8253,5.84,5.8272,5.8345,5.8859,5.938,5.9563,5.9875,6.0346,4.8315,4.8315,4.8315,4.8315,4.8315,4.8315,4.8315,4.8315,4.8315,4.8315,4.8315,4.8315,4.8315,4.8315,4.8315,4.8315,4.8315,4.8315,4.8315,4.8315,4.8315,4.8315,4.8315,4.8315,4.8315,4.8315,4.8315,4.8315,4.8315,4.8315,4.8315,4.8315,4.8315,4.8315,4.8315,4.8315,4.8315,4.8315,4.8315,4.8315,4.8315,4.8315,4.8315,4.8315,4.8315,4.8746,4.9197,4.9482,5.04,5.1418,5.2289,5.2847,5.3086,5.3196,5.3196,5.3196,5.3196,5.3196,5.3196,5.3196,5.3196,5.3196,5.3196,5.3196,5.3196,5.3196,5.3196,5.3196,5.3196,5.3196,5.3196,5.3196,5.3214,5.3544,5.3691,5.4363,5.4895,5.5115,5.5299,5.542,5.5585,5.5842,5.5897,5.6136,5.6565,5.6675,5.7035,5.7354,5.7391,5.7611,5.7758,5.7758,5.774,5.7831,5.7758,5.7611,5.7905,5.796,5.7978,5.7978,5.7978,5.7978,5.7997,5.8217,5.8272,5.8345,5.851,5.8958,5.9245,5.9446,5.985,6.0224,6.037,6.0682,6.1178]}]]